[[{"header":{"parameterUnit":"m.s-1","parameterCategory":1,"la1":30.6,"la2":28.766,"lo1":-90.7593,"lo2":-88.6598,"dy":0.0162,"dx":0.0183,"nx":116,"ny":114,"refTime":"2023-03-07T18:00:00:Z","depth":0,"parameterNumber":2,"parameterNumberName":"U-component_of_WINDS"},"data":[0.0,0.0,0.0,0.0,0.0,0.0,0.0,0.0,0.0,0.0,0.0,0.0,0.0,0.0,0.0,0.0,0.0,0.0,0.0,0.0,0.0,0.0,0.0,0.0,0.0,0.0,0.0,0.0,0.0,0.0,0.0,0.0,0.0,0.0,0.0,0.0,0.0,0.0,0.0,0.0,0.0,0.0,0.0,0.0,0.0,0.0,0.0,0.0,0.0,0.0,0.0,0.0,0.0,0.0,0.0,0.0,0.0,0.0,0.0,0.0,0.0,0.0,0.0,0.0,0.0,0.0,0.0,0.0,0.0,0.0,0.0,0.0,0.0,0.0,0.0,0.0,0.0,0.0,0.0,0.0,0.0,0.0,0.0,0.0,0.0,0.0,0.0,0.0,0.0,0.0,0.0,0.0,0.0,0.0,0.0,0.0,0.0,0.0,0.0,0.0,0.0,0.0,0.0,0.0,0.0,0.0,0.0,0.0,0.0,0.0,0.0,0.0,0.0,0.0,0.0,0.0,0.0,0.0,0.0,0.0,0.0,0.0,0.0,0.0,0.0,0.0,0.0,0.0,0.0,0.0,0.0,0.0,0.0,0.0,0.0,0.0,0.0,0.0,0.0,0.0,0.0,0.0,0.0,0.0,0.0,0.0,0.0,0.0,0.0,0.0,0.0,0.0,0.0,0.0,0.0,0.0,0.0,0.0,0.0,0.0,0.0,0.0,0.0,0.0,0.0,0.0,0.0,0.0,0.0,0.0,0.0,0.0,0.0,0.0,0.0,0.0,0.0,0.0,0.0,0.0,0.0,0.0,0.0,0.0,0.0,0.0,0.0,0.0,0.0,0.0,0.0,0.0,0.0,0.0,0.0,0.0,0.0,0.0,0.0,0.0,0.0,0.0,0.0,0.0,0.0,0.0,0.0,0.0,0.0,0.0,0.0,0.0,0.0,0.0,0.0,0.0,0.0,0.0,0.0,0.0,0.0,0.0,0.0,0.0,0.0,0.0,0.0,0.0,0.0,0.0,0.0,0.0,0.0,0.0,0.0,0.0,0.0,0.0,0.0,0.0,0.0,0.0,0.0,0.0,0.0,0.0,0.0,0.0,0.0,0.0,0.0,0.0,0.0,0.0,0.0,0.0,0.0,0.0,0.0,0.0,0.0,0.0,0.0,0.0,0.0,0.0,0.0,0.0,0.0,0.0,0.0,0.0,0.0,0.0,0.0,0.0,0.0,0.0,0.0,0.0,0.0,0.0,0.0,0.0,0.0,0.0,0.0,0.0,0.0,0.0,0.0,0.0,0.0,0.0,0.0,0.0,0.0,0.0,0.0,0.0,0.0,0.0,0.0,0.0,0.0,0.0,0.0,0.0,0.0,0.0,0.0,0.0,0.0,0.0,0.0,0.0,0.0,0.0,0.0,0.0,0.0,0.0,0.0,0.0,0.0,0.0,0.0,0.0,0.0,0.0,0.0,0.0,0.0,0.0,0.0,0.0,0.0,0.0,0.0,0.0,0.0,0.0,0.0,0.0,0.0,0.0,0.0,0.0,0.0,0.0,0.0,0.0,0.0,0.0,0.0,0.0,0.0,0.0,0.0,0.0,0.0,0.0,0.0,0.0,0.0,0.0,0.0,0.0,0.0,0.0,0.0,0.0,0.0,0.0,0.0,0.0,0.0,0.0,0.0,0.0,0.0,0.0,0.0,0.0,0.0,0.0,0.0,0.0,0.0,0.0,0.0,0.0,0.0,0.0,0.0,0.0,0.0,0.0,0.0,0.0,0.0,0.0,0.0,0.0,0.0,0.0,0.0,0.0,0.0,0.0,0.0,0.0,0.0,0.0,0.0,0.0,0.0,0.0,0.0,0.0,0.0,0.0,0.0,0.0,0.0,0.0,0.0,0.0,0.0,0.0,0.0,0.0,0.0,0.0,0.0,0.0,0.0,0.0,0.0,0.0,0.0,0.0,0.0,0.0,0.0,0.0,0.0,0.0,0.0,0.0,0.0,0.0,0.0,0.0,0.0,0.0,0.0,0.0,0.0,0.0,0.0,0.0,0.0,0.0,0.0,0.0,0.0,0.0,0.0,0.0,0.0,0.0,0.0,0.0,0.0,0.0,0.0,0.0,0.0,0.0,0.0,0.0,0.0,0.0,0.0,0.0,0.0,0.0,0.0,0.0,0.0,0.0,0.0,0.0,0.0,0.0,0.0,0.0,0.0,0.0,0.0,0.0,0.0,0.0,0.0,0.0,0.0,0.0,0.0,0.0,0.0,0.0,0.0,0.0,0.0,0.0,0.0,0.0,0.0,0.0,0.0,0.0,0.0,0.0,0.0,0.0,0.0,0.0,0.0,0.0,0.0,0.0,0.0,0.0,0.0,0.0,0.0,0.0,0.0,0.0,0.0,0.0,0.0,0.0,0.0,0.0,0.0,0.0,0.0,0.0,0.0,0.0,0.0,0.0,0.0,0.0,0.0,0.0,0.0,0.0,0.0,0.0,0.0,0.0,0.0,0.0,0.0,0.0,0.0,0.0,0.0,0.0,0.0,0.0,0.0,0.0,0.0,0.0,0.0,0.0,0.0,0.0,0.0,0.0,0.0,0.0,0.0,0.0,0.0,0.0,0.0,0.0,0.0,0.0,0.0,0.0,0.0,0.0,0.0,0.0,0.0,0.0,0.0,0.0,0.0,0.0,0.0,0.0,0.0,0.0,0.0,0.0,0.0,0.0,0.0,0.0,0.0,0.0,0.0,0.0,0.0,0.0,0.0,0.0,0.0,0.0,0.0,0.0,0.0,0.0,0.0,0.0,0.0,0.0,0.0,0.0,0.0,0.0,0.0,0.0,0.0,0.0,0.0,0.0,0.0,0.0,0.0,0.0,0.0,0.0,0.0,0.0,0.0,0.0,0.0,0.0,0.0,0.0,0.0,0.0,0.0,0.0,0.0,0.0,0.0,0.0,0.0,0.0,0.0,0.0,0.0,0.0,0.0,0.0,0.0,0.0,0.0,0.0,0.0,0.0,0.0,0.0,0.0,0.0,0.0,0.0,0.0,0.0,0.0,0.0,0.0,0.0,0.0,0.0,0.0,0.0,0.0,0.0,0.0,0.0,0.0,0.0,0.0,0.0,0.0,0.0,0.0,0.0,0.0,0.0,0.0,0.0,0.0,0.0,0.0,0.0,0.0,0.0,0.0,0.0,0.0,0.0,0.0,0.0,0.0,0.0,0.0,0.0,0.0,0.0,0.0,0.0,0.0,0.0,0.0,0.0,0.0,0.0,0.0,0.0,0.0,0.0,0.0,0.0,0.0,0.0,0.0,0.0,0.0,0.0,0.0,0.0,0.0,0.0,0.0,0.0,0.0,0.0,0.0,0.0,0.0,0.0,0.0,0.0,0.0,0.0,0.0,0.0,0.0,0.0,0.0,0.0,0.0,0.0,0.0,0.0,0.0,0.0,0.0,0.0,0.0,0.0,0.0,0.0,0.0,0.0,0.0,0.0,0.0,0.0,0.0,0.0,0.0,0.0,0.0,0.0,0.0,0.0,0.0,0.0,0.0,0.0,0.0,0.0,0.0,0.0,0.0,0.0,0.0,0.0,0.0,0.0,0.0,0.0,0.0,0.0,0.0,0.0,0.0,0.0,0.0,0.0,0.0,0.0,0.0,0.0,0.0,0.0,0.0,0.0,0.0,0.0,0.0,0.0,0.0,0.0,0.0,0.0,0.0,0.0,0.0,0.0,0.0,0.0,0.0,0.0,0.0,0.0,0.0,0.0,0.0,0.0,0.0,0.0,0.0,0.0,0.0,0.0,0.0,0.0,0.0,0.0,0.0,0.0,0.0,0.0,0.0,0.0,0.0,0.0,0.0,0.0,0.0,0.0,0.0,0.0,0.0,0.0,0.0,0.0,0.0,0.0,0.0,0.0,0.0,0.0,0.0,0.0,0.0,0.0,0.0,0.0,0.0,0.0,0.0,0.0,0.0,0.0,0.0,0.0,0.0,0.0,0.0,0.0,0.0,0.0,0.0,0.0,0.0,0.0,0.0,0.0,0.0,0.0,0.0,0.0,0.0,0.0,0.0,0.0,0.0,0.0,0.0,0.0,0.0,0.0,0.0,0.0,0.0,0.0,0.0,0.0,0.0,0.0,0.0,0.0,0.0,0.0,0.0,0.0,0.0,0.0,0.0,0.0,0.0,0.0,0.0,0.0,0.0,0.0,0.0,0.0,0.0,0.0,0.0,0.0,0.0,0.0,0.0,0.0,0.0,0.0,0.0,0.0,0.0,0.0,0.0,0.0,0.0,0.0,0.0,0.0,0.0,0.0,0.0,0.0,0.0,0.0,0.0,0.0,0.0,0.0,0.0,0.0,0.0,0.0,0.0,0.0,0.0,0.0,0.0,0.0,0.0,0.0,0.0,0.0,0.0,0.0,0.0,0.0,0.0,0.0,0.0,0.0,0.0,0.0,0.0,0.0,0.0,0.0,0.0,0.0,0.0,0.0,0.0,0.0,0.0,0.0,0.0,0.0,0.0,0.0,0.0,0.0,0.0,0.0,0.0,0.0,0.0,0.0,0.0,0.0,0.0,0.0,0.0,0.0,0.0,0.0,0.0,0.0,0.0,0.0,0.0,0.0,0.0,0.0,0.0,0.0,0.0,0.0,0.0,0.0,0.0,0.0,0.0,0.0,0.0,0.0,0.0,0.0,0.0,0.0,0.0,0.0,0.0,0.0,0.0,0.0,0.0,0.0,0.0,0.0,0.0,0.0,0.0,0.0,0.0,0.0,0.0,0.0,0.0,0.0,0.0,0.0,0.0,0.0,0.0,0.0,0.0,0.0,0.0,0.0,0.0,0.0,0.0,0.0,0.0,0.0,0.0,0.0,0.0,0.0,0.0,0.0,0.0,0.0,0.0,0.0,0.0,0.0,0.0,0.0,0.0,0.0,0.0,0.0,0.0,0.0,0.0,0.0,0.0,0.0,0.0,0.0,0.0,0.0,0.0,0.0,0.0,0.0,0.0,0.0,0.0,0.0,0.0,0.0,0.0,0.0,0.0,0.0,0.0,0.0,0.0,0.0,0.0,0.0,0.0,0.0,0.0,0.0,0.0,0.0,0.0,0.0,0.0,0.0,0.0,0.0,0.0,0.0,0.0,0.0,0.0,0.0,0.0,0.0,0.0,0.0,0.0,0.0,0.0,0.0,0.0,0.0,0.0,0.0,0.0,0.0,0.0,0.0,0.0,0.0,0.0,0.0,0.0,0.0,0.0,0.0,0.0,0.0,0.0,0.0,0.0,0.0,0.0,0.0,0.0,0.0,0.0,0.0,0.0,0.0,0.0,0.0,0.0,0.0,0.0,0.0,0.0,0.0,0.0,0.0,0.0,0.0,0.0,0.0,0.0,0.0,0.0,0.0,0.0,0.0,0.0,0.0,0.0,0.0,0.0,0.0,0.0,0.0,0.0,0.0,0.0,0.0,0.0,0.0,0.0,0.0,0.0,0.0,0.0,0.0,0.0,0.0,0.0,0.0,0.0,0.0,0.0,0.0,0.0,0.0,0.0,0.0,0.0,0.0,0.0,0.0,0.0,0.0,0.0,0.0,0.0,0.0,0.0,0.0,0.0,0.0,0.0,0.0,0.0,0.0,0.0,0.0,0.0,0.0,0.0,0.0,0.0,0.0,0.0,0.0,0.0,0.0,0.0,0.0,0.0,0.0,0.0,0.0,0.0,0.0,0.0,0.0,0.0,0.0,0.0,0.0,0.0,0.0,0.0,0.0,0.0,0.0,0.0,0.0,0.0,0.0,0.0,0.0,0.0,0.0,0.0,0.0,0.0,0.0,0.0,0.0,0.0,0.0,0.0,0.0,0.0,0.0,0.0,0.0,0.0,0.0,0.0,0.0,0.0,0.0,0.0,0.0,0.0,0.0,0.0,0.0,0.0,0.0,0.0,0.0,0.0,0.0,0.0,0.0,0.0,0.0,0.0,0.0,0.0,0.0,0.0,0.0,0.0,0.0,0.0,0.0,0.0,0.0,0.0,0.0,0.0,0.0,0.0,0.0,0.0,0.0,0.0,0.0,0.0,0.0,0.0,0.0,0.0,0.0,0.0,0.0,0.0,0.0,-2.2118,0.0,0.0,0.0,0.0,0.0,0.0,0.0,0.0,0.0,0.0,0.0,0.0,0.0,0.0,0.0,0.0,0.0,0.0,0.0,0.0,0.0,0.0,0.0,0.0,0.0,0.0,0.0,0.0,0.0,0.0,0.0,0.0,0.0,0.0,0.0,0.0,0.0,0.0,0.0,0.0,0.0,0.0,0.0,0.0,0.0,0.0,0.0,0.0,0.0,0.0,0.0,0.0,0.0,0.0,0.0,0.0,0.0,0.0,0.0,0.0,0.0,0.0,0.0,0.0,0.0,0.0,0.0,0.0,0.0,0.0,0.0,0.0,0.0,0.0,0.0,0.0,0.0,0.0,0.0,0.0,0.0,0.0,0.0,0.0,0.0,0.0,0.0,0.0,0.0,0.0,0.0,0.0,0.0,0.0,0.0,0.0,0.0,0.0,0.0,0.0,0.0,0.0,0.0,0.0,0.0,0.0,0.0,0.0,0.0,0.0,0.0,0.0,0.0,0.0,0.0,0.0,-2.2721,0.0,0.0,0.0,0.0,0.0,0.0,0.0,0.0,0.0,0.0,0.0,0.0,0.0,0.0,0.0,0.0,0.0,0.0,0.0,0.0,0.0,0.0,0.0,0.0,0.0,0.0,0.0,0.0,0.0,0.0,0.0,0.0,0.0,0.0,0.0,0.0,0.0,0.0,0.0,0.0,0.0,0.0,0.0,0.0,0.0,0.0,0.0,0.0,0.0,0.0,0.0,0.0,0.0,0.0,0.0,0.0,0.0,0.0,0.0,0.0,0.0,0.0,0.0,0.0,0.0,0.0,0.0,0.0,0.0,0.0,0.0,0.0,0.0,0.0,0.0,0.0,0.0,0.0,0.0,0.0,0.0,0.0,0.0,0.0,0.0,0.0,0.0,0.0,0.0,0.0,0.0,0.0,0.0,0.0,0.0,0.0,0.0,0.0,0.0,0.0,0.0,0.0,0.0,0.0,0.0,0.0,0.0,0.0,-2.3324,-2.4021,-2.4688,-2.5187,-2.5489,-2.5528,-2.4094,-2.3373,-2.317,-2.292,0.0,0.0,0.0,0.0,0.0,0.0,0.0,0.0,0.0,0.0,0.0,0.0,0.0,0.0,0.0,0.0,0.0,0.0,0.0,0.0,0.0,0.0,0.0,0.0,0.0,0.0,0.0,0.0,0.0,0.0,0.0,0.0,0.0,0.0,0.0,0.0,0.0,0.0,-2.1803,-2.1874,-2.1816,-2.1639,-2.1696,0.0,0.0,0.0,0.0,0.0,0.0,0.0,0.0,0.0,0.0,0.0,0.0,0.0,0.0,0.0,0.0,0.0,0.0,0.0,0.0,0.0,0.0,0.0,0.0,0.0,0.0,0.0,0.0,0.0,0.0,0.0,0.0,0.0,0.0,0.0,0.0,0.0,0.0,0.0,0.0,0.0,0.0,0.0,-2.0576,-1.9869,0.0,0.0,0.0,0.0,0.0,0.0,0.0,0.0,0.0,0.0,0.0,0.0,0.0,-2.0715,-2.1343,-2.2602,-2.328,-2.3374,-2.461,-2.5262,-2.5368,-2.5376,-2.5788,-2.6388,-2.5421,0.0,-2.3898,-2.3167,0.0,0.0,0.0,0.0,0.0,0.0,0.0,0.0,0.0,0.0,0.0,0.0,0.0,0.0,0.0,0.0,0.0,0.0,0.0,0.0,0.0,0.0,0.0,0.0,0.0,0.0,0.0,0.0,0.0,0.0,0.0,0.0,0.0,0.0,0.0,0.0,-2.2518,-2.3205,-2.32,-2.3262,-2.329,-2.3253,-2.3295,-2.3027,-2.2536,-2.2086,0.0,0.0,0.0,0.0,0.0,0.0,0.0,0.0,0.0,0.0,0.0,0.0,0.0,0.0,0.0,0.0,0.0,0.0,0.0,0.0,0.0,0.0,0.0,0.0,0.0,0.0,0.0,0.0,0.0,0.0,0.0,0.0,0.0,0.0,0.0,0.0,0.0,0.0,0.0,-2.0004,-2.0072,-1.9724,-2.1229,-2.1627,0.0,0.0,0.0,0.0,0.0,0.0,0.0,0.0,0.0,-2.1113,-2.1489,-2.1995,-2.2612,-2.3665,-2.4569,-2.5354,-2.5915,-2.6408,-2.6848,-2.6729,-2.6876,-2.7174,-2.6377,-2.5796,-2.5282,-2.3956,-2.3265,-2.3011,0.0,0.0,0.0,0.0,-2.2408,-2.2382,0.0,0.0,0.0,0.0,0.0,0.0,0.0,0.0,0.0,0.0,0.0,0.0,0.0,0.0,0.0,-2.0493,0.0,0.0,0.0,0.0,0.0,0.0,0.0,0.0,0.0,0.0,0.0,0.0,-2.3642,-2.4265,-2.4284,-2.4337,-2.437,-2.4375,-2.4619,-2.4228,-2.3398,-2.2793,-2.2402,0.0,0.0,0.0,0.0,0.0,0.0,0.0,0.0,0.0,0.0,0.0,0.0,0.0,0.0,0.0,0.0,0.0,0.0,0.0,0.0,0.0,0.0,0.0,0.0,0.0,0.0,0.0,0.0,0.0,0.0,0.0,0.0,0.0,0.0,0.0,0.0,0.0,0.0,-2.0023,-2.008,-1.9662,-2.1215,-2.1485,0.0,0.0,0.0,0.0,0.0,0.0,-2.0806,-2.1367,-2.1871,-2.2246,-2.2726,-2.3376,-2.4183,-2.4897,-2.5798,-2.6854,-2.6967,-2.7349,-2.7917,-2.781,-2.7716,-2.7666,-2.7093,-2.6793,-2.6551,-2.4653,-2.3693,-2.3342,-2.2661,-2.2268,-2.213,-2.2669,-2.2867,-2.2933,0.0,0.0,0.0,0.0,0.0,0.0,0.0,0.0,0.0,0.0,0.0,0.0,0.0,0.0,-2.0493,-2.0506,-2.0504,-2.0507,0.0,0.0,0.0,0.0,0.0,0.0,0.0,0.0,0.0,-2.4064,-2.4151,-2.4216,-2.4219,-2.4268,-2.4304,-2.4337,-2.5179,-2.5092,-2.4333,-2.4288,-2.3803,-2.2967,0.0,0.0,0.0,0.0,0.0,0.0,0.0,0.0,0.0,0.0,0.0,0.0,0.0,0.0,0.0,0.0,0.0,0.0,0.0,0.0,0.0,0.0,0.0,0.0,0.0,0.0,0.0,0.0,0.0,0.0,0.0,0.0,0.0,0.0,0.0,0.0,0.0,0.0,0.0,-1.9792,-2.2349,0.0,0.0,0.0,0.0,-2.0561,-2.1175,-2.1651,-2.1651,-2.1688,-2.2438,-2.4015,-2.3862,-2.4498,-2.6054,-2.6548,-2.6863,-2.6996,-2.7644,-2.7965,-2.8,-2.7932,-2.7827,-2.7683,-2.7595,-2.755,-2.736,-2.5031,-2.3805,-2.3393,-2.3281,-2.2916,-2.2573,-2.3341,-2.3501,-2.3295,0.0,0.0,0.0,0.0,0.0,0.0,0.0,0.0,0.0,0.0,0.0,0.0,0.0,-2.0495,-2.05,-2.0495,-2.0459,-2.0427,-2.0377,0.0,0.0,0.0,0.0,0.0,0.0,0.0,-2.3158,-2.4912,-2.4945,-2.5267,-2.5801,-2.5302,-2.5063,-2.5102,-2.6028,-2.6275,-2.5977,-2.545,-2.4721,-2.3819,-2.2353,-2.1596,0.0,0.0,0.0,0.0,0.0,0.0,0.0,0.0,0.0,0.0,0.0,0.0,0.0,0.0,0.0,0.0,0.0,0.0,0.0,0.0,0.0,0.0,0.0,0.0,0.0,0.0,0.0,0.0,0.0,0.0,0.0,0.0,0.0,0.0,0.0,0.0,0.0,-2.0384,-2.221,0.0,-2.0999,-2.2465,-2.3111,-2.2063,-2.3252,-2.4031,-2.4079,-2.4574,-2.5053,-2.5474,-2.5386,-2.5786,-2.672,-2.6879,-2.721,-2.7713,-2.7915,-2.7971,-2.7932,-2.7824,-2.7748,-2.7701,-2.7672,-2.7644,-2.7497,-2.6204,-2.5386,-2.4963,-2.4318,-2.3809,-2.349,-2.411,-2.4284,-2.426,0.0,0.0,0.0,0.0,0.0,0.0,0.0,0.0,0.0,0.0,0.0,-2.0502,-2.0504,-2.0485,-2.0463,-2.0473,-2.0408,-2.0344,-2.0299,0.0,0.0,0.0,0.0,0.0,0.0,-2.2964,-2.4144,-2.5311,-2.563,-2.61,-2.6687,-2.5886,-2.5663,-2.5973,-2.6895,-2.6982,-2.6453,-2.6827,-2.6144,-2.4693,-2.3513,-2.2894,-2.2504,0.0,0.0,0.0,0.0,0.0,0.0,0.0,0.0,0.0,0.0,0.0,0.0,0.0,0.0,0.0,0.0,0.0,0.0,0.0,0.0,0.0,0.0,0.0,0.0,0.0,0.0,0.0,0.0,0.0,0.0,0.0,0.0,0.0,0.0,0.0,-2.1333,-2.1126,-2.2508,-2.2994,-2.1789,-2.3332,-2.4099,-2.3334,-2.4791,-2.5756,-2.5797,-2.6319,-2.6647,-2.6729,-2.6637,-2.6916,-2.7533,-2.7433,-2.762,-2.8126,-2.8042,-2.7971,-2.7932,-2.7824,-2.7748,-2.7701,-2.7701,-2.7672,-2.7595,-2.7119,-2.6745,-2.6371,-2.5293,-2.4689,-2.4481,-2.4933,-2.5141,-2.5242,0.0,0.0,0.0,0.0,0.0,0.0,0.0,0.0,0.0,0.0,-2.0507,-2.0507,-2.0507,-2.0446,-2.0391,-2.0391,-2.0311,-2.0266,-2.0281,-1.933,0.0,0.0,0.0,0.0,-2.2618,-2.4354,-2.5302,-2.5383,-2.6164,-2.6612,-2.6722,-2.5897,-2.5948,-2.6804,-2.766,-2.7149,-2.5758,-2.8375,-2.8029,-2.5704,-2.5567,-2.502,-2.4105,0.0,0.0,0.0,0.0,0.0,0.0,0.0,0.0,0.0,0.0,0.0,0.0,0.0,0.0,0.0,0.0,0.0,0.0,0.0,0.0,0.0,0.0,0.0,0.0,0.0,0.0,0.0,0.0,0.0,0.0,0.0,0.0,0.0,-2.0997,-2.1725,-2.2156,-2.1961,-2.34,-2.3735,-2.204,-2.4034,-2.5117,-2.4346,-2.5768,-2.6686,-2.6686,-2.6686,-2.7034,-2.7805,-2.7603,-2.7839,-2.8587,-2.8295,-2.8162,-2.8182,-2.8071,-2.8,-2.8035,-2.7932,-2.7845,-2.7771,-2.7736,-2.7736,-2.7736,-2.7754,-2.7709,-2.747,-2.6154,-2.5593,-2.558,-2.5816,-2.6026,-2.617,0.0,0.0,0.0,0.0,0.0,0.0,0.0,0.0,0.0,0.0,-2.0464,-2.0437,-2.0424,-2.0371,-2.0321,-2.0328,-1.9696,-1.9534,-2.0128,0.0,0.0,0.0,0.0,0.0,-2.3444,-2.4017,-2.5201,-2.7102,-2.6139,-2.6314,-2.7537,-2.6103,-2.5576,-2.591,-2.6775,-2.7249,-2.7469,-2.8855,-2.9003,-2.8193,-2.6326,-2.5063,-2.418,0.0,0.0,0.0,0.0,0.0,0.0,0.0,0.0,0.0,0.0,0.0,0.0,0.0,0.0,0.0,0.0,0.0,0.0,0.0,0.0,0.0,0.0,0.0,0.0,0.0,0.0,0.0,0.0,0.0,0.0,0.0,0.0,-2.1028,-2.1072,-2.2239,-2.3037,-2.292,-2.3785,-2.417,-2.3594,-2.5201,-2.6193,-2.6023,-2.7503,-2.8404,-2.8404,-2.8404,-2.8448,-2.8529,-2.8941,-2.8928,-2.8463,-2.8808,-2.8667,-2.8056,-2.7975,-2.8185,-2.8637,-2.8026,-2.8366,-2.9404,-2.8825,-2.8579,-2.8614,-2.9211,-2.8739,-2.7595,-2.6894,-2.6502,-2.637,-2.6229,-2.6189,-2.6188,0.0,0.0,0.0,0.0,0.0,0.0,0.0,0.0,0.0,0.0,-2.0442,-2.0393,-2.0396,-2.0341,-2.0297,-2.0303,-1.978,-1.9624,-2.0079,0.0,0.0,0.0,0.0,-2.2756,-2.3746,-2.4539,-2.552,-2.6717,-2.6126,-2.6365,-2.7325,-2.6004,-2.5625,-2.6047,-2.6916,-2.7175,-2.7108,-2.91,-2.9107,-2.7705,-2.6961,-2.6357,-2.5751,-2.4144,-2.3781,-2.3993,-2.327,-2.2999,-2.3045,-2.3395,0.0,0.0,0.0,0.0,0.0,0.0,0.0,0.0,0.0,0.0,0.0,0.0,0.0,0.0,0.0,0.0,0.0,0.0,0.0,0.0,0.0,0.0,0.0,0.0,-2.1067,-2.1682,-2.2097,-2.286,-2.3517,-2.3798,-2.4213,-2.4565,-2.4783,-2.5934,-2.6835,-2.7185,-2.8404,-2.913,-2.9062,-2.9078,-2.9198,-2.9375,-2.965,-2.97,-2.9489,-2.9386,-2.9233,-2.9,-2.829,-2.8467,-2.9398,-2.8225,-2.8579,-3.0053,-2.8895,-2.8596,-2.8912,-2.9035,-2.8528,0.0,0.0,0.0,0.0,0.0,-2.6851,-2.6726,0.0,0.0,0.0,0.0,0.0,0.0,0.0,0.0,0.0,0.0,0.0,-2.0407,-2.0388,-2.0334,-2.0292,-2.0292,-2.0139,-2.0041,0.0,0.0,0.0,-2.1387,-2.2855,-2.3784,-2.3973,-2.5476,-2.6001,-2.5478,-2.6137,-2.6498,-2.6573,-2.5769,-2.5811,-2.6592,-2.7363,-2.6962,-2.5893,-2.9071,-2.8671,-2.6068,-2.7514,-2.8025,-2.7648,-2.5321,-2.4921,-2.5413,-2.3966,-2.3431,-2.356,-2.4374,0.0,0.0,0.0,0.0,0.0,0.0,0.0,0.0,0.0,0.0,0.0,0.0,0.0,0.0,0.0,0.0,0.0,0.0,0.0,0.0,0.0,0.0,0.0,0.0,-2.1972,-2.2728,-2.3515,-2.3594,-2.3832,-2.454,-2.4594,-2.4874,-2.556,-2.6329,-2.7103,-2.7877,-2.8724,-2.9163,-2.904,0.0,0.0,0.0,0.0,-3.0283,-3.0998,-3.0008,-2.9775,-3.0252,-2.872,-2.8721,-3.0004,-2.8431,-2.8579,-3.0036,-2.8491,-2.8245,-2.886,-2.8315,-2.8045,-2.796,-2.8078,-2.7921,-2.7627,-2.7879,-2.7786,-2.7538,0.0,0.0,0.0,0.0,0.0,0.0,0.0,0.0,0.0,-2.0403,-2.0416,-2.039,-2.0324,-2.0258,-2.0214,-2.0214,-1.9519,-1.933,0.0,0.0,-2.1765,-2.3061,-2.3434,-2.4288,-2.5686,-2.5482,-2.5971,-2.7224,-2.6033,-2.5852,-2.6575,-2.5717,-2.5442,-2.5661,-2.583,-2.6494,-2.7538,-2.8234,-2.8545,-2.8547,-2.8229,-2.7294,-2.6054,-2.554,-2.5442,-2.5658,-2.6018,-2.6112,-2.6204,-2.7064,-2.7311,-2.7291,-2.746,0.0,0.0,0.0,0.0,0.0,0.0,0.0,0.0,0.0,0.0,0.0,0.0,0.0,0.0,0.0,0.0,0.0,0.0,0.0,0.0,-2.2118,-2.2905,-2.3512,-2.3727,-2.4243,-2.4624,-2.4689,-2.4634,-2.4879,-2.5606,-2.6357,-2.7152,-2.7993,-2.8767,-2.9189,-2.9156,-2.9112,-2.9442,-3.0173,-3.0574,-3.0844,-3.0998,-3.0471,-2.9977,-2.9499,0.0,0.0,-2.9198,-2.817,-2.8579,-3.0053,-2.9088,-2.8754,-2.8983,-3.0071,-3.0395,-3.0056,-2.8815,-2.8297,-2.8279,-2.8819,-2.8508,-2.7892,0.0,0.0,0.0,0.0,0.0,0.0,0.0,0.0,0.0,0.0,-2.0365,-2.0173,-1.9697,-1.9627,-1.9423,-1.8997,-1.8866,0.0,0.0,-2.1281,-2.228,-2.3496,-2.3943,-2.4568,-2.5479,-2.5179,-2.543,-2.6299,-2.5562,-2.5409,-2.5833,-2.5444,-2.5298,-2.5389,-2.6266,-2.6887,-2.7392,-2.8705,-2.8767,-2.7991,-2.8034,-2.7048,-2.555,-2.5585,-2.5604,-2.5659,-2.606,-2.6172,-2.6288,-2.7113,-2.7373,-2.7417,-2.7822,-2.7648,-2.721,0.0,0.0,0.0,0.0,0.0,0.0,0.0,0.0,0.0,0.0,0.0,0.0,0.0,0.0,-2.1473,0.0,0.0,-2.2214,-2.3058,-2.3517,-2.3898,-2.4379,-2.4771,-2.4952,-2.4813,-2.5103,-2.5587,-2.6328,-2.7103,-2.7863,-2.8645,-2.904,-2.9207,-2.9119,-2.9089,-2.9442,-3.0173,-3.0784,-3.1097,-3.1093,-3.0758,-3.0391,-2.9925,-2.8624,-2.8576,-2.9611,-2.8397,-2.8717,-3.0129,-2.8964,-2.8891,-2.9634,-2.9973,-3.0475,-3.092,-2.9668,-2.9102,-2.904,-2.9695,-2.966,-2.928,0.0,0.0,0.0,0.0,0.0,0.0,0.0,0.0,0.0,0.0,-2.0083,-1.9708,-1.8824,-1.8746,-1.8521,0.0,0.0,0.0,0.0,-2.1839,-2.2658,-2.3453,-2.4264,-2.4798,-2.5024,-2.4929,-2.4965,-2.5123,-2.5139,-2.5124,-2.5097,-2.5154,-2.5228,-2.5375,-2.6942,-2.7337,-2.6987,-2.9282,-2.9066,-2.7239,-2.7783,-2.7093,-2.5714,-2.5606,-2.5573,-2.561,-2.5716,-2.5748,-2.5858,-2.6675,-2.7052,-2.7296,-2.7937,-2.8037,-2.7762,-2.7033,-2.6595,0.0,0.0,0.0,0.0,0.0,0.0,0.0,0.0,0.0,-2.1771,-2.1934,-2.244,-2.2955,-2.3299,-2.3354,-2.3618,-2.4507,-2.4598,-2.4815,-2.552,-2.5615,-2.5558,-2.5446,-2.5657,-2.621,-2.7256,-2.7783,-2.8426,-2.9251,-2.9302,-2.9226,-2.9062,-2.9074,-2.9442,-3.0197,-3.0697,-3.1039,-3.1203,-3.0785,-3.0517,-3.0381,-2.8827,-2.8713,-2.9827,-2.8567,-2.8691,-2.9794,-2.8676,-2.8921,-3.0021,-2.9483,-3.007,-3.127,-3.0574,-3.022,-3.0178,-3.0733,-3.0819,-3.0644,0.0,0.0,0.0,0.0,0.0,0.0,0.0,0.0,0.0,0.0,0.0,0.0,0.0,0.0,0.0,0.0,0.0,0.0,-2.1047,-2.18,-2.26,-2.347,-2.4272,-2.5061,-2.5841,-2.5171,-2.5194,-2.5967,-2.5267,-2.4993,-2.5094,-2.5116,-2.5185,-2.533,-2.6315,-2.7089,-2.7734,-2.8879,-2.9189,-2.8862,-2.8256,-2.7415,-2.6477,-2.5708,-2.5467,-2.5615,-2.6377,-2.6629,-2.6704,-2.7559,-2.8333,-2.8936,-2.8956,-2.8472,-2.7865,-2.7714,0.0,-2.5402,-2.5247,-2.4685,-2.4499,-2.5995,-2.4594,-2.3228,0.0,0.0,-2.2766,-2.3471,-2.3711,-2.4238,-2.5775,-2.6019,-2.6256,-2.7133,-2.7267,-2.7312,-2.747,-2.7452,-2.737,-2.7318,-2.5999,-2.594,-2.804,-2.7641,-2.783,-2.928,-2.9286,-2.9229,-2.9251,-2.9108,-2.9389,-3.0268,-3.0192,-3.048,-3.1185,-3.0234,-2.9723,-2.9709,-2.862,-2.8187,-2.8351,-2.8099,-2.8088,-2.8283,-2.8765,-2.9068,-2.9281,-2.9897,-3.0678,-3.1475,-3.137,-3.1707,-3.2241,-3.2213,-3.1603,-3.0872,0.0,0.0,0.0,0.0,0.0,0.0,0.0,0.0,0.0,0.0,0.0,0.0,0.0,0.0,0.0,0.0,0.0,0.0,-2.1023,-2.1348,-2.2084,-2.3393,-2.3757,-2.4357,-2.5225,-2.4887,-2.4876,-2.5294,-2.4994,-2.4844,-2.4867,-2.4955,-2.5297,-2.5916,-2.6759,-2.7612,-2.8485,-2.9321,-2.9155,-2.8309,-2.7967,-2.7064,-2.5901,-2.5545,-2.5417,-2.5496,-2.5847,-2.5962,0.0,0.0,-2.7417,-2.7764,-2.8198,-2.7797,-2.7133,-2.705,-2.6189,0.0,-2.5209,-2.5321,-2.551,0.0,-2.5327,-2.4957,-2.5157,-2.505,-2.5001,-2.5346,-2.5782,-2.6356,-2.7119,-2.6814,-2.6751,0.0,-2.7378,-2.7223,-2.7733,-2.7802,-2.7785,-2.7713,-2.7046,-2.7079,-2.8393,-2.8123,-2.8315,-2.9427,-2.9361,-2.9267,-2.9302,-2.9186,-2.9289,-2.9654,-3.003,-3.0178,-3.0043,-2.9978,-2.9675,-2.9132,-2.8634,-2.834,-2.8259,-2.825,-2.8219,-2.829,-2.954,-2.9826,-2.9451,-3.0225,-3.068,-3.0871,-3.0363,-3.0902,-3.2005,-3.2332,-3.2177,-3.1829,0.0,0.0,0.0,0.0,0.0,0.0,0.0,0.0,0.0,0.0,0.0,0.0,0.0,0.0,0.0,0.0,0.0,0.0,0.0,-2.0908,-2.1519,-2.2686,-2.3158,-2.3697,-2.4346,-2.4514,-2.4637,-2.4709,-2.4729,-2.4723,-2.4708,-2.483,-2.5237,-2.5952,-2.702,-2.7859,-2.8583,-2.9577,-2.9232,-2.802,-2.7797,-2.6902,-2.5687,-2.5216,-2.5028,-2.5056,-2.5292,-2.5364,0.0,0.0,-2.6183,-2.6596,-2.6688,-2.6486,-2.6148,-2.5866,-2.534,-2.4883,-2.5124,0.0,0.0,-2.5603,-2.5852,-2.6102,-2.5959,-2.6403,-2.6927,-2.7136,-2.7471,-2.7822,-2.8076,-2.7424,-2.7131,-2.8023,-2.7692,-2.7509,-2.811,-2.8233,-2.8156,-2.7865,-2.7562,-2.7733,-2.8631,-2.8558,-2.879,-2.958,-2.9454,-2.9361,-2.9357,-2.9272,-2.9222,-2.9225,-2.9562,-2.9459,-2.8878,-2.9108,-2.8982,-2.8463,-2.8112,-2.8103,-2.8411,-2.8411,-2.8411,-2.8483,-2.9867,-3.001,-2.9345,-3.0327,-3.0524,-3.0219,-3.0032,-3.0632,-3.1675,-3.2373,-3.259,-3.2523,0.0,0.0,0.0,0.0,0.0,0.0,0.0,0.0,0.0,0.0,0.0,0.0,0.0,0.0,0.0,0.0,0.0,0.0,0.0,-2.0563,-2.1018,-2.1075,-2.2573,-2.3435,-2.3526,-2.424,-2.4623,-2.4709,-2.465,-2.4629,-2.4707,-2.4764,-2.4853,-2.5003,-2.6671,-2.7452,-2.764,-2.93,-2.9568,-2.8804,-2.802,-2.7251,-2.6397,-2.4755,-2.4096,-2.4154,-2.4995,0.0,0.0,0.0,-2.517,-2.6214,-2.4547,-2.4575,0.0,-2.4221,-2.3955,0.0,0.0,0.0,-2.4388,-2.6035,-2.5849,-2.5688,-2.7341,-2.7746,-2.7972,-2.8765,-2.8318,-2.8043,-2.8823,-2.8291,-2.8046,-2.8916,-2.9083,-2.9121,-2.914,-2.9166,-2.8849,-2.8004,-2.715,-2.7253,0.0,-2.8755,-2.8909,-2.9633,-2.9561,-2.9492,-2.9492,-2.9378,-2.9304,-2.9293,-2.8507,-2.8069,-2.8032,-2.7221,-2.7077,-2.7627,-2.6706,-2.7013,-2.8411,-2.8411,-2.8411,-2.8447,-2.9274,-2.9184,-2.8555,-3.0136,-3.0306,-2.9693,-3.1286,-3.185,-3.19,-3.2675,-3.2818,-3.2606,0.0,0.0,0.0,0.0,0.0,0.0,0.0,0.0,0.0,0.0,0.0,0.0,0.0,0.0,0.0,0.0,0.0,0.0,0.0,-2.0113,-2.049,-2.0981,-2.2074,-2.2886,-2.3363,-2.4134,-2.4539,-2.4568,-2.3973,-2.3981,-2.4566,-2.4097,-2.4485,-2.5589,-2.6145,-2.675,-2.7406,-2.7875,-2.7686,-2.7011,-2.6807,-2.6288,-2.5614,-2.5096,-2.4875,-2.4812,0.0,0.0,0.0,0.0,0.0,0.0,-2.3279,0.0,0.0,-2.2963,0.0,0.0,0.0,0.0,-2.5841,-2.7005,-2.7509,-2.786,-2.8464,-2.9039,-2.9532,-2.9806,-2.9193,-2.8688,-2.9004,-2.7945,-2.7288,-2.8167,-2.787,-2.773,-2.8328,-2.8394,-2.8085,-2.7214,-2.7321,0.0,0.0,0.0,0.0,-2.9804,-2.9209,-2.9027,-2.9598,-2.8446,-2.8276,-2.9405,-2.8071,-2.7605,-2.8192,-2.7326,-2.6902,-2.6924,-2.6438,-2.6475,-2.7013,-2.755,-2.784,-2.7937,-2.9241,-2.9649,-2.9468,-3.0459,-3.0368,-2.9742,-3.079,-3.1175,-3.1167,-3.144,-3.1826,-3.2268,0.0,0.0,0.0,0.0,0.0,0.0,0.0,0.0,0.0,0.0,0.0,0.0,0.0,0.0,0.0,0.0,0.0,0.0,0.0,0.0,-2.0094,-2.0551,-2.1405,-2.2062,-2.2462,-2.3276,-2.3811,-2.4079,-2.3512,-2.368,-2.4481,-2.3718,-2.4084,-2.5379,-2.5126,-2.5512,-2.6392,-2.6606,-2.6137,-2.5267,-2.5939,-2.5615,-2.4747,-2.4811,-2.485,0.0,0.0,0.0,0.0,0.0,0.0,0.0,0.0,0.0,0.0,0.0,0.0,0.0,0.0,-2.6587,-2.7064,-2.7955,-2.86,-2.9085,-2.9416,-2.9927,-3.0253,-2.9938,-2.921,-2.8436,-2.7846,-2.6621,-2.5885,-2.6458,-2.6127,-2.6102,-2.6945,-2.7098,-2.7013,-2.6764,-2.7165,-2.7378,0.0,0.0,0.0,-2.9058,-2.8479,-2.8311,-2.8852,-2.7995,-2.7857,-2.8652,-2.7615,-2.7167,-2.7428,-2.6605,-2.6042,-2.5775,-2.6049,-2.6238,-2.6365,-2.7143,-2.7717,-2.8157,-2.9101,-2.9513,-2.9611,-3.0295,-3.0071,-2.9452,-3.0839,-3.1173,-3.0918,-3.1249,-3.153,-3.1773,0.0,0.0,0.0,0.0,0.0,0.0,0.0,0.0,0.0,0.0,0.0,0.0,0.0,0.0,0.0,0.0,0.0,0.0,0.0,0.0,0.0,-1.9807,-2.064,-2.1054,-2.0983,-2.1786,-2.2559,-2.3284,-2.3255,-2.3667,-2.4481,-2.363,-2.3665,-2.441,-2.3676,-2.379,-2.4626,-2.545,-2.4949,-2.374,-2.5406,-2.5209,-2.3949,-2.4041,0.0,0.0,0.0,0.0,0.0,0.0,0.0,0.0,0.0,0.0,0.0,0.0,0.0,-2.5266,-2.6094,-2.7018,-2.7982,-2.8836,-2.9071,-2.9282,-3.0142,-3.0327,-3.0096,-2.9223,-2.839,-2.7313,0.0,0.0,-2.4072,-2.4047,-2.413,-2.4459,-2.5228,-2.5383,-2.5767,0.0,0.0,0.0,0.0,0.0,0.0,-2.7485,0.0,-2.7424,-2.7415,-2.7911,-2.7937,-2.7288,-2.7078,-2.6658,-2.5974,-2.5126,-2.4564,-2.4312,-2.5517,-2.6157,-2.6315,-2.7098,-2.7976,-2.8877,-2.8833,-2.8864,-2.9015,-2.9722,-2.9482,-2.8933,-3.1437,-3.181,-3.1062,-3.2001,-3.1855,-3.1104,0.0,0.0,0.0,0.0,0.0,0.0,0.0,0.0,0.0,0.0,0.0,0.0,0.0,0.0,0.0,0.0,0.0,0.0,0.0,0.0,0.0,0.0,0.0,0.0,0.0,0.0,0.0,0.0,0.0,-2.3119,-2.4462,-2.3063,-2.2813,-2.3506,-2.2817,-2.2604,-2.2779,-2.3045,-2.327,-2.3494,0.0,-2.4493,-2.4752,0.0,0.0,0.0,0.0,0.0,0.0,0.0,0.0,0.0,0.0,0.0,-2.1443,0.0,0.0,-2.5261,-2.7341,-2.8203,-2.8734,-2.9603,-2.9889,-2.9862,-2.9519,-2.9429,-2.9198,-2.8376,-2.7498,-2.6535,0.0,0.0,0.0,-2.3229,-2.374,0.0,-2.4347,-2.4463,0.0,-2.5654,0.0,-2.5127,-2.6076,-2.6056,0.0,0.0,-2.6364,-2.6851,-2.745,-2.6412,-2.6552,-2.8185,-2.6392,-2.5879,-2.693,-2.5313,-2.4444,-2.4385,-2.4546,-2.4685,-2.4811,-2.6245,-2.7051,-2.7353,-2.8511,-2.9329,-2.9892,-3.007,-2.9972,-2.991,-3.1814,-3.1675,-3.0515,-3.1358,-3.1113,-3.0282,0.0,0.0,0.0,0.0,0.0,0.0,0.0,0.0,0.0,0.0,0.0,0.0,0.0,0.0,0.0,0.0,0.0,0.0,0.0,0.0,0.0,0.0,0.0,0.0,0.0,0.0,0.0,0.0,0.0,0.0,0.0,-2.2617,-2.2635,-2.3702,-2.2245,-2.1962,-2.264,-2.2671,0.0,0.0,0.0,0.0,0.0,0.0,0.0,0.0,0.0,0.0,0.0,0.0,0.0,-2.1393,-2.1938,-2.2043,-2.2305,-2.3998,0.0,-2.6177,-2.7935,-2.8833,-2.9323,-2.9489,-2.9606,-2.9481,-2.871,-2.853,-2.8269,-2.742,-2.6811,0.0,-2.4432,0.0,0.0,0.0,0.0,0.0,-2.2864,-2.2987,-2.3647,0.0,-2.4943,0.0,-2.5402,-2.5373,-2.5178,0.0,-2.548,-2.6046,-2.6479,-2.5868,-2.5977,-2.6986,-2.5955,-2.5605,-2.6107,-2.4974,-2.4364,-2.4321,-2.4172,-2.4345,-2.4798,-2.574,-2.6593,-2.7365,0.0,-2.9045,-2.9759,-2.9759,-2.9701,-2.9746,-3.1109,-3.106,-3.0294,-3.0778,-3.0631,-3.0075,0.0,0.0,0.0,0.0,0.0,0.0,0.0,0.0,0.0,0.0,0.0,0.0,0.0,0.0,0.0,0.0,0.0,0.0,0.0,0.0,0.0,0.0,0.0,0.0,0.0,0.0,0.0,0.0,0.0,0.0,0.0,0.0,0.0,0.0,0.0,0.0,0.0,0.0,0.0,0.0,0.0,0.0,0.0,0.0,0.0,0.0,0.0,0.0,0.0,0.0,-2.2395,-2.2918,-2.2446,-2.2696,-2.3336,-2.4257,-2.5782,-2.734,-2.8213,-2.9138,-2.9693,-2.8943,-2.8831,-2.8676,-2.7808,-2.7616,-2.7355,-2.6414,0.0,-2.551,-2.313,-2.2685,-2.2135,-2.0451,0.0,-2.0708,-2.137,-2.1533,-2.245,-2.4778,-2.4893,-2.4869,-2.5029,-2.4937,-2.4648,-2.4128,-2.4716,-2.5151,-2.5209,-2.5799,-2.5799,-2.5044,-2.571,-2.5623,-2.465,-2.4474,-2.4347,-2.4238,-2.4173,-2.4568,-2.5363,-2.5485,-2.6366,-2.7798,-2.7948,-2.8395,-2.9052,-2.9174,-2.9145,-2.9125,-3.0049,-3.033,-3.0203,-3.0349,-3.03,-3.004,0.0,0.0,0.0,0.0,0.0,0.0,0.0,0.0,0.0,0.0,-2.0743,-2.0308,0.0,0.0,0.0,0.0,0.0,0.0,0.0,0.0,0.0,0.0,0.0,0.0,0.0,0.0,0.0,0.0,0.0,0.0,0.0,0.0,0.0,0.0,0.0,0.0,0.0,0.0,0.0,0.0,0.0,0.0,0.0,0.0,0.0,0.0,0.0,0.0,0.0,0.0,-2.1968,-2.219,-2.3428,-2.3428,-2.3391,-2.561,-2.6547,-2.7191,-2.8713,-2.9419,-2.9536,-2.8747,-2.8727,-2.8508,-2.6988,-2.6631,0.0,0.0,-2.5335,-2.4783,-2.3014,-2.2654,-2.2074,-2.0389,0.0,0.0,0.0,0.0,-2.1936,0.0,0.0,0.0,0.0,0.0,0.0,0.0,-2.4105,-2.4478,-2.5244,-2.5343,-2.5294,-2.5101,-2.5737,-2.5668,-2.4764,-2.4516,-2.44,-2.4376,-2.4348,-2.4422,-2.4626,-2.5392,-2.5911,-2.6274,-2.7529,0.0,-2.8273,-2.9047,-2.9323,-2.9333,-3.0169,-3.0091,-2.9633,-3.0246,-3.0017,-2.9341,0.0,0.0,0.0,0.0,0.0,0.0,0.0,-2.0981,-2.1293,-2.2169,-2.191,-2.1467,-2.0985,-2.0499,-2.0197,0.0,0.0,0.0,0.0,0.0,0.0,0.0,0.0,0.0,0.0,0.0,0.0,0.0,0.0,0.0,0.0,0.0,0.0,0.0,0.0,0.0,0.0,0.0,0.0,0.0,0.0,0.0,0.0,0.0,0.0,0.0,0.0,0.0,0.0,0.0,-2.1442,-2.178,-2.263,-2.2914,-2.3272,-2.4919,-2.6055,-2.7066,-2.8332,-2.9136,-2.9317,-2.8163,-2.7998,-2.768,-2.6053,0.0,0.0,0.0,-2.5044,-2.4683,-2.3482,-2.2909,0.0,0.0,0.0,0.0,0.0,0.0,0.0,0.0,0.0,0.0,0.0,-2.2071,-2.2254,-2.2671,-2.305,-2.3844,-2.5189,-2.5215,-2.5141,-2.5057,-2.5372,-2.5241,-2.465,-2.451,-2.4392,-2.4294,-2.4367,-2.4385,-2.4367,-2.489,-2.5352,-2.5809,-2.7019,-2.7704,-2.8079,-2.9004,-2.9344,-2.9325,-3.0205,-3.006,-2.9447,-3.0245,-2.9987,-2.9178,0.0,0.0,0.0,0.0,0.0,0.0,0.0,-2.1602,-2.1972,-2.3022,-2.301,-2.2616,-2.1863,-2.0992,-2.0391,0.0,0.0,0.0,0.0,0.0,0.0,0.0,0.0,0.0,0.0,0.0,0.0,0.0,0.0,0.0,0.0,0.0,0.0,0.0,0.0,0.0,0.0,0.0,0.0,0.0,0.0,0.0,0.0,0.0,0.0,0.0,0.0,0.0,0.0,0.0,-2.0703,-2.1158,-2.1202,-2.1906,-2.2923,-2.3925,-2.5198,-2.6503,-2.7565,-2.8388,-2.8671,-2.7322,-2.6918,-2.6521,-2.5263,-2.4885,0.0,0.0,-2.4993,-2.4765,-2.397,0.0,-2.234,0.0,-2.0637,0.0,0.0,0.0,0.0,0.0,0.0,0.0,0.0,-2.1172,0.0,-2.1482,-2.223,-2.3411,-2.5094,-2.4992,-2.4934,-2.4998,-2.4965,-2.4801,-2.4545,-2.43,-2.4124,-2.3971,-2.4063,-2.409,-2.4026,-2.4352,-2.4842,-2.5485,-2.6535,-2.7288,-2.7869,-2.8938,-2.9304,-2.9274,-2.9998,-2.9868,-2.9343,-3.0016,-2.9776,-2.9112,0.0,0.0,0.0,0.0,0.0,0.0,0.0,-2.1598,-2.2188,-2.377,-2.3346,-2.2836,-2.2696,-2.1893,-2.1063,0.0,0.0,0.0,0.0,0.0,0.0,0.0,0.0,0.0,0.0,0.0,0.0,0.0,0.0,0.0,0.0,0.0,0.0,0.0,0.0,0.0,0.0,0.0,0.0,0.0,0.0,0.0,0.0,0.0,0.0,0.0,0.0,0.0,0.0,0.0,0.0,-1.9675,-1.9637,-2.0637,-2.2144,-2.3796,0.0,0.0,-2.6571,-2.7168,-2.7101,-2.6251,-2.5532,-2.503,-2.4929,0.0,0.0,-2.4834,-2.4993,-2.4765,-2.4033,-2.322,-2.2396,0.0,0.0,-2.0162,0.0,0.0,0.0,0.0,0.0,0.0,0.0,-2.0269,0.0,-2.1449,-2.219,-2.3345,-2.5018,-2.437,-2.4258,-2.4974,-2.4827,-2.4715,-2.4684,-2.3719,-2.3221,-2.3195,-2.3212,-2.3168,-2.3151,-2.4068,-2.4518,-2.4602,-2.621,-2.6991,0.0,-2.8705,-2.9262,-2.9207,-2.9226,-2.9185,-2.9119,-2.9136,-2.906,-2.8893,0.0,0.0,0.0,0.0,0.0,0.0,-2.1405,-2.1575,-2.2192,-2.3882,-2.3828,-2.3612,-2.3584,-2.2799,-2.1718,-2.0318,0.0,0.0,0.0,0.0,0.0,0.0,0.0,0.0,0.0,0.0,0.0,0.0,0.0,0.0,0.0,0.0,0.0,0.0,0.0,0.0,0.0,0.0,0.0,0.0,0.0,0.0,0.0,0.0,0.0,0.0,0.0,0.0,0.0,0.0,0.0,0.0,-2.023,-2.0666,0.0,0.0,-2.3561,-2.519,-2.5446,-2.6282,-2.6811,-2.5552,-2.5024,-2.4553,-2.3604,0.0,-2.3815,-2.4189,-2.4702,-2.4962,-2.4681,-2.3539,-2.2519,0.0,0.0,0.0,0.0,0.0,0.0,0.0,0.0,0.0,0.0,0.0,-2.0451,-2.1325,-2.1167,-2.1728,-2.3322,-2.3626,-2.4094,-2.4863,-2.4757,-2.4639,-2.4518,-2.3619,-2.3351,-2.3759,-2.3261,-2.328,-2.3732,-2.4146,-2.4302,-2.4376,-2.6079,-2.6849,0.0,-2.8627,-2.9262,-2.9244,-2.9702,-2.9558,-2.9152,-2.9507,-2.9319,-2.8803,0.0,0.0,0.0,0.0,0.0,-2.0577,-2.137,-2.1756,-2.2373,-2.3565,-2.3931,-2.3989,-2.3739,-2.2938,-2.2015,-2.1022,-2.0464,0.0,0.0,0.0,0.0,0.0,0.0,0.0,0.0,0.0,0.0,0.0,0.0,0.0,0.0,0.0,0.0,0.0,0.0,0.0,0.0,0.0,0.0,0.0,0.0,0.0,0.0,0.0,0.0,0.0,0.0,0.0,0.0,0.0,0.0,0.0,0.0,0.0,0.0,0.0,-2.2916,-2.49,-2.4649,-2.5298,-2.5753,-2.4674,-2.4065,-2.3477,0.0,0.0,-2.3398,-2.3708,-2.4486,-2.5101,-2.5101,-2.3749,-2.262,0.0,0.0,-2.0107,-2.0107,0.0,0.0,0.0,0.0,0.0,0.0,-1.9618,-2.0228,-2.0765,-2.0274,-2.0531,-2.1843,-2.2765,-2.3596,-2.4355,-2.4565,-2.4591,-2.4435,-2.3363,-2.3158,-2.3832,-2.3033,-2.306,-2.3804,-2.4071,-2.4191,-2.4255,-2.5732,-2.639,0.0,-2.8173,-2.8805,-2.8795,-2.9582,-2.9505,-2.8972,-2.943,-2.9166,-2.852,0.0,0.0,0.0,0.0,0.0,0.0,-2.1389,-2.2237,-2.2793,-2.2812,-2.3563,-2.3775,-2.2908,-2.2047,-2.1835,-2.2609,-2.1096,0.0,0.0,0.0,0.0,0.0,0.0,0.0,0.0,0.0,0.0,-2.1789,0.0,0.0,0.0,0.0,0.0,0.0,0.0,0.0,0.0,0.0,0.0,0.0,0.0,0.0,0.0,0.0,0.0,0.0,0.0,0.0,0.0,0.0,0.0,0.0,0.0,0.0,0.0,0.0,-2.2669,-2.3606,-2.4383,-2.4025,-2.3446,-2.3502,-2.2327,-2.1362,0.0,0.0,-2.2659,-2.3512,-2.4455,-2.5107,-2.5107,-2.3785,-2.2675,-2.2606,0.0,0.0,-2.0107,0.0,0.0,0.0,0.0,0.0,-1.9436,-1.9688,-1.9743,-1.9625,-1.9738,0.0,-2.0969,-2.1779,-2.2577,-2.3393,-2.4193,-2.4566,-2.45,-2.2782,-2.2281,-2.3004,-2.2206,-2.2154,-2.2856,-2.3775,-2.4161,-2.4158,-2.5024,-2.5404,0.0,-2.7158,-2.7738,-2.7697,-2.8427,-2.8619,-2.851,-2.845,-2.8242,-2.8014,0.0,0.0,0.0,0.0,0.0,0.0,0.0,-2.0842,-2.1231,-2.1831,-2.2158,-2.2447,-2.2765,-2.2507,-2.2427,-2.2686,-2.1646,0.0,0.0,0.0,0.0,0.0,0.0,0.0,0.0,0.0,-2.2526,-2.2012,-2.3568,-2.4329,0.0,0.0,0.0,0.0,0.0,0.0,0.0,0.0,0.0,0.0,0.0,0.0,0.0,0.0,0.0,0.0,0.0,0.0,0.0,0.0,0.0,0.0,0.0,0.0,0.0,0.0,0.0,0.0,-2.3854,-2.3599,-2.3278,-2.2802,-2.185,-2.0966,-2.0746,0.0,-2.1758,-2.2622,-2.3076,-2.3505,-2.4099,-2.2863,-2.193,-2.2514,-2.1122,0.0,0.0,0.0,0.0,0.0,0.0,0.0,0.0,0.0,-1.9584,-1.9526,-1.9567,-1.9736,-2.0021,-2.0809,-2.1898,-2.3352,-2.3569,-2.3905,-2.443,-2.2169,-2.1688,-2.2978,-2.2188,-2.2199,-2.296,-2.3718,-2.4054,-2.4081,-2.4897,-2.5264,-2.5348,-2.646,-2.6812,-2.6654,-2.6849,-2.7187,-2.7523,-2.7366,-2.7565,-2.7897,0.0,0.0,0.0,0.0,0.0,0.0,0.0,-2.0476,-2.0764,-2.099,-2.127,-2.1673,-2.2253,-2.2226,-2.2431,-2.3102,-2.2618,0.0,0.0,0.0,0.0,0.0,0.0,0.0,0.0,-2.2396,-2.2853,-2.2058,-2.3686,-2.4134,-2.3498,-2.3318,-2.3279,0.0,0.0,0.0,0.0,0.0,0.0,0.0,0.0,0.0,-2.3085,0.0,0.0,0.0,0.0,0.0,0.0,0.0,0.0,0.0,0.0,0.0,0.0,0.0,0.0,0.0,0.0,-2.2967,-2.2389,-2.1963,-2.1185,0.0,0.0,0.0,-2.1255,-2.1796,-2.2483,-2.3164,-2.3707,-2.2949,-2.2413,-2.292,-2.1533,0.0,0.0,0.0,0.0,0.0,0.0,0.0,0.0,-1.9259,-1.9346,-1.9357,-1.9402,-1.9445,-1.9525,-2.0289,-2.122,-2.2314,-2.2606,-2.3105,-2.386,-2.2,-2.1857,-2.34,-2.2621,-2.2483,-2.2941,-2.336,-2.352,-2.3535,-2.4016,-2.439,0.0,-2.56,-2.5841,-2.5725,-2.6237,-2.6621,-2.6899,-2.6741,-2.6912,-2.7216,0.0,0.0,0.0,0.0,0.0,0.0,0.0,-2.0898,-2.1116,-2.0308,-2.0846,-2.1359,-2.1478,-2.143,-2.2067,-2.3755,0.0,0.0,0.0,0.0,0.0,0.0,0.0,0.0,0.0,-2.2588,-2.2975,-2.2112,-2.379,-2.3782,-2.2197,-2.2959,-2.2874,-2.2078,-2.1892,-2.1799,-2.1855,-2.2668,-2.3002,-2.3032,-2.3138,-2.311,0.0,0.0,0.0,0.0,0.0,0.0,0.0,0.0,0.0,0.0,0.0,0.0,0.0,0.0,0.0,0.0,0.0,0.0,0.0,0.0,0.0,0.0,0.0,0.0,0.0,-2.1073,-2.2432,-2.3613,-2.3607,-2.3611,-2.3591,-2.3537,0.0,0.0,0.0,0.0,0.0,0.0,0.0,0.0,-1.8779,-1.8958,-1.907,-1.9097,-1.9221,-1.9306,-1.9375,-2.0081,-2.0494,-2.052,-2.1345,-2.2171,-2.2988,-2.2132,-2.2473,-2.4002,-2.3253,-2.285,-2.272,-2.2711,-2.2662,0.0,-2.2602,-2.3017,-2.3746,-2.4625,-2.4849,-2.4819,-2.6239,-2.6676,-2.649,-2.6425,-2.6301,-2.6174,0.0,0.0,0.0,0.0,0.0,0.0,0.0,0.0,0.0,0.0,-2.0349,-2.0695,-2.1286,-2.1866,-2.2667,0.0,0.0,0.0,0.0,0.0,0.0,0.0,0.0,0.0,0.0,-2.3895,-2.4031,-2.3157,-2.4219,-2.45,-2.3977,-2.3563,-2.3553,-2.3807,-2.185,-2.0952,-2.0949,-2.1768,-2.2477,-2.3076,-2.3174,-2.2769,0.0,0.0,0.0,0.0,-2.03,-2.0515,0.0,0.0,0.0,0.0,0.0,0.0,0.0,0.0,-2.1793,0.0,-2.1514,0.0,-2.1166,-2.1842,-2.0897,-1.98,0.0,0.0,0.0,0.0,0.0,0.0,0.0,0.0,0.0,0.0,0.0,0.0,0.0,0.0,0.0,0.0,0.0,-1.8627,-1.8637,-1.8769,-1.8887,-1.8932,-1.9019,-1.9129,-1.9251,-1.9381,-1.9506,-1.9607,-1.9764,-2.0836,-2.2896,-2.1469,-2.1525,-2.3094,-2.231,-2.1899,-2.1881,-2.1826,-2.1732,-2.1678,-2.2319,-2.2528,-2.2494,-2.3461,-2.3679,-2.3445,-2.4405,-2.5061,-2.5446,-2.5374,-2.6031,-2.6766,0.0,0.0,0.0,0.0,0.0,0.0,0.0,0.0,0.0,0.0,0.0,0.0,0.0,0.0,0.0,0.0,0.0,0.0,0.0,0.0,0.0,0.0,0.0,0.0,-2.3561,-2.4335,-2.414,-2.2866,-2.375,-2.3746,-2.285,-2.2824,-2.2786,-2.2683,-2.0902,-2.0294,-2.0657,-2.1469,-2.2075,-2.2514,-2.254,0.0,0.0,0.0,0.0,0.0,-1.9663,-1.9807,0.0,-1.9746,-1.9613,-1.9733,0.0,0.0,0.0,0.0,-2.0763,-2.0532,-2.0896,-2.0727,-2.0558,-2.1046,-2.0477,-1.9807,-1.9807,0.0,0.0,0.0,0.0,0.0,0.0,0.0,0.0,0.0,-2.0922,0.0,0.0,0.0,0.0,0.0,0.0,-1.8163,0.0,-1.8675,-1.875,-1.8851,-1.8914,-1.901,-1.9145,-1.9125,-1.9132,-1.9208,-1.9166,-1.9986,-2.168,-2.0841,-2.1006,-2.2199,-2.1789,-2.1416,-2.1052,-2.0998,-2.1087,-2.1283,-2.1721,-2.2157,-2.2588,-2.3147,-2.318,-2.2976,-2.3789,-2.4253,-2.4502,-2.4836,-2.5193,-2.5411,0.0,0.0,0.0,0.0,0.0,0.0,0.0,0.0,0.0,0.0,0.0,0.0,0.0,0.0,0.0,0.0,0.0,0.0,0.0,0.0,0.0,0.0,0.0,-2.3747,-2.3776,-2.4403,-2.3974,-2.2483,-2.3278,-2.2877,-2.1373,-2.2122,-2.1906,-2.0863,-2.0114,-2.0142,-2.0841,-2.1507,-2.193,-2.2167,-2.2175,0.0,0.0,0.0,0.0,0.0,0.0,0.0,0.0,-1.9574,-1.9606,-1.9611,-1.9685,0.0,0.0,0.0,0.0,0.0,-2.0633,-2.0314,-1.9839,-1.9945,-1.9889,-1.9776,-1.9776,0.0,0.0,0.0,0.0,0.0,0.0,-2.1639,0.0,0.0,0.0,0.0,0.0,0.0,0.0,0.0,0.0,0.0,-1.8494,-1.859,-1.8646,-1.876,-1.8833,-1.8932,-1.9062,-1.9076,-1.9091,-1.9099,-1.9099,-1.9418,-2.0091,-2.0297,-2.077,-2.1497,-2.1434,-2.1043,-2.0389,-2.0245,-2.0471,-2.0993,0.0,0.0,-2.2932,-2.3091,-2.3015,-2.2899,-2.3724,-2.3898,-2.3762,-2.4447,-2.4257,-2.375,0.0,0.0,0.0,0.0,0.0,0.0,0.0,0.0,0.0,0.0,0.0,0.0,0.0,0.0,0.0,0.0,0.0,0.0,0.0,0.0,0.0,0.0,-2.469,-2.473,-2.4627,-2.4726,-2.4606,-2.4217,-2.4367,-2.4228,-2.3846,-2.4045,-2.3302,-2.1798,-2.1594,-2.1545,-2.1614,-2.1743,-2.2582,-2.3841,-2.3888,0.0,0.0,0.0,0.0,0.0,0.0,0.0,0.0,-1.9594,-1.9608,-1.9608,-1.968,0.0,0.0,0.0,0.0,0.0,-1.9951,-1.9895,-1.9964,-2.0657,-2.0257,-1.9713,-1.9713,0.0,0.0,0.0,0.0,0.0,0.0,-2.0715,0.0,0.0,0.0,0.0,0.0,0.0,0.0,-1.9454,0.0,-1.8417,-1.8435,-1.8522,-1.8617,-1.8631,-1.876,-1.8843,-1.894,-1.8974,-1.9035,-1.9104,-1.9104,-1.9133,-1.9199,-1.9938,-2.0717,-2.1487,-2.0826,-2.0427,-2.0291,-1.9489,-1.9441,-2.0048,0.0,-2.1214,-2.1743,-2.259,-2.2764,-2.2556,-2.3429,-2.3707,-2.3625,-2.3687,-2.4032,-2.4414,0.0,0.0,0.0,0.0,0.0,0.0,0.0,0.0,0.0,0.0,0.0,0.0,0.0,0.0,0.0,0.0,0.0,0.0,0.0,0.0,0.0,-2.397,-2.4467,-2.4535,-2.3994,-2.4425,-2.4166,-2.3204,-2.3619,-2.381,-2.3735,-2.3291,-2.2671,-2.1924,-2.1389,-2.1377,-2.1828,-2.2259,-2.2885,-2.3548,0.0,0.0,0.0,0.0,0.0,0.0,0.0,0.0,0.0,0.0,-1.9594,-1.9606,-1.9673,0.0,0.0,0.0,0.0,0.0,-1.9776,-1.9776,-1.9838,-2.0219,-1.9988,-1.9707,-1.9707,-1.97,0.0,0.0,0.0,0.0,0.0,0.0,0.0,0.0,0.0,0.0,0.0,-1.8735,-1.8332,0.0,0.0,-1.7998,-1.8361,-1.8493,-1.8571,-1.8603,-1.8724,-1.8825,-1.8895,-1.8957,-1.9036,-1.9095,-1.9062,-1.901,-1.8941,-1.9318,-1.9714,-2.0147,-1.9821,-1.9613,-1.9525,-1.9094,-1.938,-2.0256,0.0,-2.1198,-2.1983,-2.2468,-2.2582,-2.2439,-2.289,-2.3024,-2.3047,-2.3386,-2.4164,-2.5053,0.0,0.0,0.0,0.0,0.0,0.0,0.0,0.0,0.0,0.0,0.0,0.0,0.0,0.0,0.0,0.0,0.0,0.0,0.0,0.0,-2.4166,-2.3248,-2.4043,-2.4114,-2.3289,-2.4079,-2.3861,-2.2549,-2.3194,-2.3491,-2.3457,-2.2609,-2.2103,-2.1855,-2.096,-2.1019,-2.1865,-2.2479,-2.2966,-2.3298,0.0,0.0,0.0,0.0,0.0,0.0,0.0,0.0,0.0,0.0,0.0,0.0,0.0,0.0,0.0,-1.9707,-1.9707,-1.9738,-1.9751,-1.9713,-1.9675,-1.9642,0.0,-1.9694,-1.9694,-1.9693,0.0,0.0,0.0,0.0,0.0,0.0,0.0,0.0,0.0,-1.9316,-1.9235,-1.8458,-1.811,-1.8698,-1.7996,-1.773,-1.8343,-1.8435,-1.8497,-1.8604,-1.8705,-1.8807,-1.8931,-1.8958,-1.901,-1.9105,-1.9053,-1.8886,-1.8592,-1.8565,-1.8655,-1.8914,-1.901,-1.8967,-1.8833,-1.8807,-1.9449,-2.0593,-2.0529,-2.1228,-2.2422,-2.2474,-2.2446,-2.2377,-2.2446,-2.2576,-2.2815,-2.349,-2.4506,-2.5495,0.0,0.0,0.0,0.0,0.0,0.0,0.0,0.0,0.0,0.0,0.0,0.0,0.0,0.0,0.0,0.0,0.0,0.0,0.0,0.0,-2.3851,-2.2978,-2.3768,-2.3907,-2.3215,-2.4055,-2.4409,-2.4236,-2.4353,-2.4372,-2.4292,-2.3496,-2.2664,-2.1863,-2.1055,-2.1147,-2.1902,-2.1947,-2.2844,-2.4192,-2.4146,0.0,0.0,0.0,0.0,0.0,0.0,0.0,0.0,0.0,0.0,0.0,0.0,0.0,-1.9693,0.0,-1.9738,-1.9782,-1.9648,-1.9621,-1.9587,-1.9439,-1.9564,0.0,-1.9701,-1.9649,0.0,-1.9763,0.0,0.0,0.0,0.0,0.0,0.0,0.0,-1.9312,-1.9847,0.0,-1.89,-1.9465,-1.8818,-1.8343,-1.8396,-1.8348,-1.842,-1.866,-1.8632,-1.8725,-1.8975,-1.8932,-1.8976,-1.9105,-1.9105,-1.8633,-1.77,-1.7752,-1.8075,-1.8623,-1.8816,-1.8797,-1.8631,-1.8558,-1.9282,-2.0582,-2.0347,-2.1054,-2.2422,-2.2474,-2.2419,-2.231,-2.2394,-2.283,-2.3524,-2.4256,-2.4978,-2.556,0.0,0.0,0.0,0.0,0.0,0.0,0.0,0.0,0.0,0.0,0.0,0.0,0.0,0.0,0.0,0.0,0.0,0.0,0.0,0.0,-2.3756,-2.2876,-2.3673,-2.3785,-2.3033,-2.3869,-2.4072,-2.36,-2.4126,-2.4107,-2.3582,-2.325,-2.2392,-2.1153,-2.133,-2.1311,-2.1208,-2.2268,-2.3046,-2.3602,-2.4072,-2.3759,0.0,0.0,0.0,0.0,0.0,0.0,0.0,0.0,-1.9613,0.0,0.0,0.0,0.0,0.0,0.0,-1.9665,-1.9614,-1.9539,-1.9453,-1.9413,-1.9383,0.0,0.0,-1.9427,-1.9456,-1.9587,-1.9513,0.0,0.0,0.0,0.0,0.0,0.0,-1.9037,-1.9062,-1.876,-1.8588,-1.8669,-1.8402,-1.8208,-1.8166,-1.8205,-1.83,-1.844,-1.8544,-1.8648,-1.8742,-1.8806,-1.8797,-1.8734,-1.8324,-1.7852,-1.7282,-1.6817,-1.6893,-1.7545,-1.7795,-1.8033,-1.8293,-1.8214,-1.8644,-1.9413,-1.928,-1.9769,-2.072,-2.0747,-2.1015,-2.1485,-2.2051,-2.2736,-2.3397,-2.3605,-2.4435,-2.5446,0.0,0.0,0.0,0.0,0.0,0.0,0.0,0.0,0.0,0.0,0.0,0.0,0.0,0.0,0.0,0.0,0.0,0.0,0.0,-2.4084,-2.3532,-2.2445,-2.3203,-2.3287,-2.2511,-2.3345,-2.3676,-2.3455,-2.3999,-2.3851,-2.3076,-2.3005,-2.227,-2.1033,-2.1578,-2.1512,-2.1094,-2.2261,-2.2889,-2.3149,-2.3667,-2.3667,0.0,0.0,0.0,0.0,0.0,0.0,0.0,0.0,0.0,0.0,0.0,0.0,0.0,0.0,0.0,0.0,-1.9464,-1.9376,-1.9295,0.0,0.0,0.0,-1.9102,-1.9198,-1.9297,-1.9372,-1.935,0.0,0.0,0.0,0.0,0.0,-1.8877,-1.8735,-1.8424,-1.833,-1.8232,-1.8053,-1.7999,-1.7988,-1.8027,-1.8095,-1.8194,-1.8328,-1.8435,-1.8532,-1.8601,-1.8676,-1.8552,-1.8167,-1.794,-1.7337,-1.6354,-1.6245,-1.6279,-1.6451,-1.6883,-1.7423,-1.8033,-1.8005,-1.8268,-1.8696,-1.8655,-1.9038,-1.9698,-1.9698,-2.017,-2.1005,-2.2087,-2.2836,-2.3341,-2.367,-2.4443,-2.533,0.0,0.0,0.0,0.0,0.0,0.0,0.0,0.0,0.0,0.0,0.0,0.0,0.0,0.0,0.0,0.0,0.0,0.0,-2.4103,-2.3968,-2.3188,-2.1597,-2.2289,-2.2362,-2.1625,-2.2456,-2.3336,-2.4201,-2.419,-2.3796,-2.3004,-2.2942,-2.2475,-2.1706,-2.1776,-2.1774,-2.1694,-2.1782,-2.2311,-2.3093,-2.3033,-2.3492,-2.4118,0.0,0.0,0.0,0.0,0.0,0.0,0.0,0.0,0.0,0.0,0.0,0.0,0.0,-1.9492,-1.9442,-1.918,-1.9107,0.0,0.0,0.0,0.0,-1.8706,-1.8955,-1.9185,-1.9099,0.0,-1.9074,-1.9009,0.0,0.0,-1.8717,-1.8577,-1.8398,-1.8132,-1.81,-1.8059,-1.7905,-1.7783,-1.7805,-1.8081,-1.8037,-1.8113,-1.8375,-1.8338,-1.8391,-1.8576,-1.8526,-1.8163,-1.7426,-1.8105,-1.7254,-1.4745,-1.6096,-1.6346,-1.5509,-1.6256,-1.7051,-1.7894,-1.7958,-1.824,-1.8696,-1.8684,-1.9084,-1.9684,-1.9701,-2.0187,-2.1055,-2.2597,-2.3244,-2.3459,-2.4793,-2.5247,-2.5246,0.0,0.0,0.0,0.0,0.0,0.0,0.0,0.0,0.0,0.0,0.0,0.0,0.0,0.0,0.0,0.0,0.0,0.0,0.0,-2.3534,-2.3164,-2.3119,-2.2851,-2.2598,-2.238,-2.273,-2.3335,-2.419,-2.4142,-2.4004,-2.3776,-2.3708,-2.2958,-2.1743,-2.2301,-2.1934,-2.0933,-2.2079,-2.2721,-2.3006,-2.3612,-2.3997,-2.4172,0.0,0.0,0.0,0.0,0.0,0.0,0.0,0.0,0.0,0.0,0.0,0.0,0.0,-1.9361,-1.9272,-1.9132,0.0,0.0,-1.8914,0.0,0.0,0.0,-1.8707,0.0,0.0,0.0,-1.8257,-1.8717,0.0,0.0,-1.8438,-1.8388,-1.8205,-1.7938,-1.785,-1.7772,-1.7624,-1.7577,-1.7601,-1.7738,-1.7822,-1.7922,-1.8113,-1.8187,-1.8239,-1.8253,-1.8277,-1.8101,-1.7689,-1.6986,-1.6402,-1.5964,-1.5351,-1.5469,-1.629,-1.6445,-1.6931,-1.7692,-1.7659,-1.7666,-1.7712,-1.7671,-1.8002,-1.8656,-1.9757,-2.0326,-2.0714,-2.2298,-2.2923,-2.3054,-2.3869,-2.4529,-2.4974,0.0,0.0,0.0,0.0,0.0,0.0,0.0,0.0,0.0,0.0,0.0,0.0,0.0,0.0,0.0,0.0,0.0,0.0,0.0,0.0,-2.3358,-2.3406,-2.2961,-2.2726,-2.2773,-2.3197,-2.3647,-2.4161,-2.3764,-2.3571,-2.3579,-2.351,-2.2991,-2.2127,-2.2948,-2.2392,-2.0958,-2.1963,-2.241,-2.2465,-2.3006,-2.3611,-2.419,0.0,0.0,0.0,0.0,0.0,0.0,0.0,0.0,0.0,0.0,0.0,0.0,-1.9243,-1.914,-1.9059,-1.8965,0.0,0.0,-1.8833,-1.8705,-1.8582,-1.8489,0.0,0.0,0.0,0.0,-1.8119,-1.8533,-1.8156,0.0,-1.8225,-1.8121,-1.7921,-1.7681,-1.7612,-1.7542,-1.7429,-1.7422,-1.7441,-1.7502,-1.7635,-1.7777,-1.7917,-1.8037,-1.8098,-1.802,-1.8068,-1.7866,-1.7288,-1.6804,-1.638,-1.6031,-1.5714,-1.5896,-1.6551,-1.6798,-1.7126,-1.7554,-1.7491,-1.7401,-1.731,-1.7476,-1.7769,-1.823,-1.9747,-2.0393,-2.0597,-2.2144,-2.2781,-2.2944,-2.3818,-2.4355,-2.4674,0.0,0.0,0.0,0.0,0.0,0.0,0.0,0.0,0.0,0.0,0.0,0.0,0.0,0.0,0.0,0.0,0.0,0.0,0.0,0.0,-2.3523,-2.2939,-2.2782,-2.2792,-2.2905,-2.3675,-2.4087,-2.4094,-2.3305,-2.2865,-2.2792,-2.2803,-2.2719,-2.2631,-2.3505,-2.2996,-2.1507,-2.1644,-2.1689,-2.1688,-2.1761,-2.2667,-2.3988,-2.4052,0.0,0.0,0.0,0.0,0.0,0.0,0.0,0.0,0.0,0.0,-1.9135,-1.8948,-1.8895,-1.886,-1.8743,0.0,0.0,-1.8715,-1.8657,0.0,-1.8348,0.0,-1.8416,-1.8551,0.0,-1.8298,-1.8445,-1.8249,-1.8082,-1.8063,-1.785,-1.7618,-1.7432,-1.7401,-1.737,-1.7293,-1.7281,-1.7314,-1.7372,-1.7531,-1.7647,-1.7789,-1.7928,-1.7955,-1.7894,-1.7961,-1.7544,-1.6635,-1.7233,-1.692,-1.5518,-1.6768,-1.714,-1.6603,-1.7213,-1.75,-1.75,-1.7437,-1.7391,-1.74,-1.7958,-1.8232,-1.841,-1.9819,-2.0459,-2.0737,-2.2227,-2.2831,-2.3026,-2.4293,-2.4588,-2.4432,0.0,0.0,0.0,0.0,0.0,0.0,0.0,0.0,0.0,0.0,0.0,0.0,0.0,0.0,0.0,0.0,0.0,0.0,0.0,0.0,-2.2713,-2.3696,-2.3168,-2.2867,-2.2905,-2.3079,-2.3462,-2.4016,-2.3823,-2.3403,-2.2735,-2.3301,-2.2908,-2.1813,-2.32,-2.2964,-2.1541,-2.2119,-2.205,-2.1589,-2.2225,-2.24,-2.2301,-2.2867,-2.263,0.0,0.0,0.0,0.0,0.0,0.0,0.0,-1.929,-1.9109,-1.8958,-1.8904,-1.8825,0.0,0.0,-1.8752,0.0,0.0,-1.8657,-1.8549,-1.8348,-1.827,-1.8246,-1.8288,-1.7721,-1.7411,-1.8066,-1.7625,-1.7325,-1.7787,-1.7726,-1.7577,-1.742,-1.7314,-1.7248,-1.7224,-1.7211,-1.7257,-1.7325,-1.7491,-1.7647,-1.7789,-1.7878,-1.7922,-1.7894,-1.7816,-1.7631,-1.7366,-1.6959,-1.6848,-1.7034,-1.6768,-1.6846,-1.7296,-1.7427,-1.7493,-1.75,-1.7437,-1.7617,-1.8046,-1.8678,-1.9299,-1.99,-2.0787,-2.119,-2.1366,-2.3014,-2.3276,-2.2866,-2.4052,-2.4535,-2.4565,0.0,0.0,0.0,0.0,0.0,0.0,0.0,0.0,0.0,0.0,0.0,0.0,0.0,0.0,0.0,0.0,0.0,0.0,0.0,0.0,0.0,-2.3472,-2.348,-2.3472,-2.3463,-2.3097,-2.3068,-2.3389,-2.3373,0.0,0.0,0.0,0.0,-2.1485,-2.2261,-2.1962,-2.0906,-2.1256,-2.1222,-2.0962,-2.136,-2.1561,-2.168,-2.2081,-2.1963,-2.1653,-2.2109,0.0,0.0,0.0,0.0,0.0,0.0,0.0,-1.8788,-1.8725,-1.8669,0.0,0.0,0.0,0.0,-1.8612,0.0,0.0,-1.8274,-1.8201,-1.8127,-1.8027,-1.7712,-1.759,-1.798,-1.7341,-1.6946,-1.7558,-1.7219,-1.6969,-1.7224,-1.717,-1.7099,-1.7099,-1.7099,-1.7162,-1.7297,-1.7389,-1.7519,-1.7681,-1.7772,-1.7794,-1.776,-1.7692,-1.7624,-1.7547,-1.718,-1.7156,-1.7503,-1.7122,-1.7117,-1.7493,-1.7498,-1.7462,-1.741,-1.7358,-1.7474,-1.7734,-1.8746,-1.9412,-1.9866,-2.0919,-2.1418,-2.1609,-2.285,-2.3079,-2.285,-2.3677,-2.3944,-2.3885,0.0,0.0,0.0,0.0,0.0,0.0,0.0,0.0,0.0,0.0,0.0,0.0,0.0,0.0,0.0,0.0,0.0,0.0,0.0,0.0,0.0,0.0,-2.3628,-2.402,-2.3902,-2.3224,-2.2738,-2.2503,0.0,0.0,0.0,0.0,0.0,-2.1402,0.0,-2.0894,-2.0192,-2.0119,-2.0083,-2.0074,-2.0147,-2.0563,-2.118,-2.1316,-2.1252,-2.1116,-2.1379,-2.1298,-2.0989,-2.0454,0.0,0.0,0.0,0.0,-1.8668,-1.8524,0.0,0.0,0.0,0.0,-1.8555,-1.8495,-1.8368,0.0,-1.8031,-1.7913,-1.7738,0.0,-1.7713,-1.7988,-1.7917,-1.7163,-1.6736,-1.7323,-1.6558,-1.6117,-1.6779,-1.6679,-1.6581,-1.6581,-1.669,-1.6842,-1.7024,-1.7195,-1.7365,-1.7554,-1.7647,-1.7653,-1.7624,-1.7612,-1.7571,-1.7522,-1.751,-1.7498,-1.7503,-1.7503,-1.7503,-1.7503,-1.7491,-1.7431,-1.7293,-1.7281,-1.7338,-1.7529,-1.8697,-1.9331,-1.9655,-2.0838,-2.1434,-2.167,-2.2423,-2.2668,-2.2652,-2.3076,-2.3176,-2.3142,0.0,0.0,0.0,0.0,0.0,0.0,0.0,0.0,0.0,0.0,0.0,0.0,0.0,0.0,0.0,0.0,0.0,0.0,0.0,0.0,0.0,-2.1996,-2.3335,-2.3774,-2.3088,-2.2837,-2.2377,-2.1651,0.0,0.0,0.0,0.0,0.0,-2.1402,0.0,0.0,-2.0119,-2.0108,-1.9712,-1.9156,-1.984,-1.9804,-1.9442,-2.0192,-2.0027,-1.9517,-2.0236,-1.9984,-1.9425,-2.0002,-1.9669,0.0,0.0,0.0,0.0,-1.8445,0.0,0.0,0.0,0.0,-1.8426,0.0,-1.8311,-1.8031,0.0,0.0,-1.6585,0.0,-1.6725,-1.7635,-1.7491,-1.6863,-1.65,-1.6991,-1.594,-1.5245,-1.5807,-1.5277,-1.4829,-1.4829,-1.5451,-1.5911,-1.5992,-1.68,-1.7341,-1.742,-1.7537,-1.7618,-1.7676,-1.7635,-1.7601,-1.7594,-1.7536,-1.7505,-1.7503,-1.7503,-1.7503,-1.7503,-1.7431,-1.7371,-1.7293,-1.7236,-1.7841,-1.894,-1.9119,-1.9899,-2.105,-2.129,-2.1464,-2.167,-2.2486,-2.2356,-2.1803,-2.2083,-2.2725,-2.3357,0.0,0.0,0.0,0.0,0.0,0.0,0.0,0.0,0.0,0.0,0.0,0.0,0.0,0.0,0.0,0.0,0.0,0.0,0.0,0.0,0.0,-2.1732,-2.2822,-2.3224,-2.2802,-2.2297,-2.1604,0.0,0.0,0.0,0.0,-2.1506,-2.1463,0.0,0.0,0.0,0.0,-1.9343,-1.9146,-1.8941,-1.9237,-1.9201,0.0,-1.9371,-1.9316,-1.9088,-1.9389,-1.9273,-1.8977,-1.9182,-1.8972,-1.8601,-1.846,0.0,0.0,0.0,0.0,0.0,-1.8291,-1.8041,-1.7659,0.0,-1.7173,-1.6628,-1.6197,0.0,0.0,0.0,-1.5411,-1.5878,-1.5889,-1.5281,-1.4945,-1.5456,-1.472,-1.4277,-1.4889,-1.4637,-1.457,-1.5054,-1.543,-1.589,-1.6463,-1.6963,-1.7277,-1.7341,-1.746,-1.7542,-1.7526,-1.7577,-1.7577,-1.7552,-1.7489,-1.7465,-1.7503,-1.7443,-1.7419,-1.7443,-1.7383,-1.7334,-1.7293,-1.7199,-1.7672,-1.8602,-1.9024,-1.9785,-2.0774,-2.1178,-2.1402,-2.1512,-2.1869,-2.1804,-2.1466,-2.1358,-2.171,-2.218,0.0,0.0,0.0,0.0,0.0,0.0,0.0,0.0,0.0,0.0,0.0,0.0,0.0,0.0,0.0,0.0,0.0,0.0,0.0,0.0,0.0,-2.1341,-2.2328,-2.2638,-2.2097,-2.1696,0.0,0.0,0.0,0.0,-2.0375,-2.0602,-2.0557,0.0,-1.9403,0.0,0.0,0.0,0.0,0.0,-1.8797,-1.8825,0.0,0.0,-1.8966,-1.8984,-1.8905,-1.8843,-1.8788,-1.8585,-1.8506,-1.8455,-1.8328,-1.83,0.0,0.0,0.0,0.0,0.0,0.0,-1.7016,-1.6934,-1.6366,-1.5667,0.0,0.0,0.0,0.0,-1.3838,-1.3793,-1.385,-1.3612,-1.3585,-1.4151,-1.3554,-1.3233,-1.388,-1.3845,-1.4054,-1.4872,-1.5156,-1.5657,-1.6586,-1.6998,-1.7195,-1.7248,-1.737,-1.7441,-1.7396,-1.7479,-1.7536,-1.7498,-1.7425,-1.7429,-1.7479,-1.7371,-1.7334,-1.7399,-1.7322,-1.7269,-1.7273,-1.7145,-1.7455,-1.8125,-1.8878,-1.9706,-2.0582,-2.1099,-2.134,-2.1402,-2.1402,-2.1402,-2.1355,-2.0958,-2.1101,-2.1488,0.0,0.0,0.0,0.0,0.0,0.0,0.0,0.0,0.0,0.0,0.0,0.0,0.0,0.0,-1.9973,-2.1559,-2.0209,-1.9255,-1.9219,-2.0024,-2.049,-2.0476,-2.1972,0.0,-2.0463,-2.1078,0.0,0.0,0.0,0.0,-2.1109,-1.9694,-1.9671,-2.0834,-2.022,-1.9445,-1.8622,0.0,0.0,0.0,-1.8688,-1.8788,0.0,0.0,0.0,0.0,0.0,-1.8724,-1.8612,-1.8608,-1.8502,-1.8385,-1.8256,-1.8338,-1.8435,0.0,0.0,0.0,0.0,-1.6905,0.0,-1.6722,0.0,0.0,0.0,0.0,0.0,0.0,-1.1895,-1.1785,-1.161,-1.2267,-1.3063,-1.372,-1.2791,-1.2177,-1.2709,-1.2459,-1.2475,-1.3149,-1.3969,-1.4766,-1.5515,-1.6513,-1.7108,-1.7108,-1.7232,-1.7338,-1.7413,-1.7408,-1.7437,-1.75,-1.7437,-1.7406,-1.7411,-1.7346,-1.7334,-1.7399,-1.7277,-1.7215,-1.7199,-1.7137,-1.7433,-1.806,-1.885,-1.9937,-2.1166,-2.1262,-2.134,-2.1402,-2.1402,-2.1402,-2.1355,-2.0958,-2.1454,-2.2229,0.0,0.0,0.0,0.0,0.0,0.0,0.0,0.0,0.0,0.0,0.0,0.0,0.0,-1.9307,-1.9376,-1.9984,-1.9486,-1.915,-1.9211,-1.9447,-1.9832,-2.0299,-2.0889,-2.1125,-2.095,-2.0696,0.0,0.0,0.0,-1.9047,-1.96,-1.9467,-1.9369,-1.9292,-1.9161,-1.8792,-1.8293,-1.8475,0.0,0.0,-1.8641,-1.8761,-1.8833,0.0,0.0,0.0,0.0,0.0,-1.8592,-1.8502,-1.8403,-1.8329,-1.8218,-1.827,-1.8339,-1.8155,0.0,0.0,0.0,0.0,0.0,-1.661,-1.5635,-1.4501,0.0,0.0,0.0,0.0,-1.1418,-1.1282,-1.1155,-1.158,-1.2031,-1.2235,-1.1948,-1.1803,-1.2071,-1.2031,-1.2429,-1.3717,-1.4155,-1.4851,-1.6143,-1.6728,-1.7061,-1.7095,-1.7257,-1.7371,-1.7338,-1.7377,-1.7425,-1.751,-1.7398,-1.7318,-1.7261,-1.7298,-1.7306,-1.7334,-1.7236,-1.7203,-1.7203,-1.7086,-1.7371,-1.7949,-1.8228,-1.9203,-2.0586,-2.1053,-2.1278,-2.134,-2.134,-2.134,-2.1228,-2.0289,-2.0687,-2.1504,0.0,0.0,0.0,0.0,0.0,0.0,0.0,0.0,0.0,0.0,0.0,0.0,0.0,0.0,-1.9084,-1.9101,-1.9101,-1.9109,-1.917,-1.9117,-1.9338,-1.9866,-2.0128,-2.0346,-2.0497,-2.0235,0.0,0.0,0.0,0.0,0.0,-1.9215,-1.9055,-1.8627,-1.857,-1.8361,0.0,0.0,0.0,-1.8378,0.0,-1.8696,-1.8797,0.0,0.0,0.0,0.0,0.0,0.0,0.0,-1.8322,-1.8225,-1.8172,0.0,0.0,0.0,0.0,0.0,-1.7825,0.0,0.0,0.0,0.0,0.0,0.0,0.0,0.0,0.0,-1.1132,-1.1038,-1.0944,-1.1097,-1.1227,-1.1204,-1.1373,-1.1505,-1.156,-1.1681,-1.2351,-1.393,-1.4199,-1.4766,-1.6136,-1.6668,-1.686,-1.6677,-1.704,0.0,-1.7162,-1.7297,-1.7398,-1.7427,-1.7318,-1.7248,-1.7203,-1.722,-1.7232,-1.7273,-1.7199,-1.7174,-1.7162,-1.7048,-1.7203,-1.7585,-1.778,-1.8589,-1.9833,-2.0555,-2.086,-2.0891,-2.1197,-2.1294,-2.1166,-2.0289,-2.0528,-2.1118,0.0,0.0,0.0,0.0,0.0,0.0,0.0,0.0,0.0,0.0,0.0,0.0,0.0,0.0,0.0,-1.9087,-1.9095,-1.9095,-1.9105,-1.9105,-1.9105,-1.9087,-1.9777,-1.9786,-1.8967,-1.9696,0.0,0.0,0.0,0.0,0.0,0.0,-1.8697,-1.9041,-1.8593,-1.8232,-1.7994,0.0,-1.8239,-1.83,0.0,-1.8601,-1.8779,0.0,0.0,0.0,-1.8656,-1.8559,0.0,-1.8416,0.0,0.0,0.0,0.0,0.0,0.0,0.0,0.0,0.0,0.0,0.0,0.0,0.0,0.0,0.0,0.0,0.0,-1.116,-1.0998,-1.0984,-1.0852,-1.0755,-1.0729,-1.0789,-1.1062,-1.125,-1.1137,-1.1365,-1.2105,-1.3643,-1.3982,-1.444,-1.5321,-1.6225,-1.6505,-1.5847,-1.6542,-1.6953,-1.6901,-1.715,-1.7293,-1.7293,-1.7236,-1.7203,-1.7203,-1.7137,-1.7137,-1.7203,-1.7137,-1.7095,-1.7095,-1.701,-1.6946,-1.694,-1.7502,-1.8174,-1.8934,-1.9801,-2.009,-2.0078,-2.094,-2.1246,-2.1151,-2.0926,-2.1039,-2.1167,0.0,0.0,0.0,0.0,0.0,0.0,0.0,0.0,0.0,0.0,0.0,0.0,0.0,0.0,-1.9036,-1.9087,-1.9095,-1.9078,-1.9036,-1.9036,-1.901,-1.8967,-1.9138,-1.965,-2.0469,-1.9658,0.0,0.0,0.0,0.0,0.0,0.0,0.0,0.0,-1.8153,-1.7894,-1.7664,-1.8046,0.0,0.0,-1.8297,-1.8368,0.0,0.0,0.0,0.0,0.0,-1.8416,-1.8358,0.0,-1.8253,-1.8162,0.0,0.0,0.0,0.0,0.0,0.0,-1.7366,0.0,0.0,0.0,0.0,0.0,0.0,0.0,0.0,-1.2529,-1.198,-1.1533,-1.1394,-1.109,-1.0813,-1.0741,-1.0885,-1.118,-1.1677,-1.1929,-1.2675,-1.4251,-1.4162,-1.4344,-1.5371,-1.5798,-1.5901,0.0,-1.6393,-1.6805,-1.6686,-1.6946,-1.71,-1.7145,-1.7186,-1.7203,-1.7203,-1.7137,-1.7137,-1.7203,-1.7074,-1.7023,-1.701,-1.6707,-1.6668,-1.6827,-1.675,-1.7223,-1.8103,-1.8962,-1.9597,-2.003,-2.0439,-2.0748,-2.0894,-2.0162,-2.0288,-2.0698,0.0,0.0,0.0,0.0,0.0,0.0,0.0,0.0,0.0,0.0,0.0,0.0,0.0,0.0,-1.9118,-1.9523,-1.9278,-1.907,-1.8992,-1.8975,-1.894,-1.8905,-1.887,-1.9254,-2.0127,-1.9262,0.0,0.0,0.0,0.0,0.0,0.0,0.0,0.0,0.0,0.0,0.0,0.0,0.0,0.0,-1.8131,0.0,0.0,-1.8284,-1.8325,0.0,0.0,0.0,-1.8263,-1.8266,-1.8191,0.0,0.0,0.0,0.0,0.0,0.0,0.0,0.0,0.0,0.0,0.0,0.0,0.0,-1.4803,-1.4283,-1.3668,0.0,-1.2239,-1.1789,-1.1313,-1.1177,-1.1109,-1.106,-1.1289,-1.1583,-1.1846,-1.2025,-1.2747,-1.4413,-1.442,-1.4603,-1.539,-1.5839,-1.5937,-1.5574,-1.6253,-1.6646,-1.6554,-1.662,-1.6727,-1.6847,-1.6937,-1.6953,-1.6879,-1.702,-1.707,-1.6991,-1.701,-1.6959,-1.6863,-1.6546,-1.6492,-1.6612,-1.6315,-1.6676,-1.753,-1.8125,-1.8972,-1.9954,-2.0366,-2.0655,-2.0747,-2.0191,-2.0267,-2.0481,0.0,0.0,0.0,0.0,0.0,0.0,0.0,0.0,0.0,0.0,0.0,0.0,0.0,0.0,0.0,0.0,-1.9497,-1.9118,-1.8984,-1.8913,-1.8878,-1.8896,-1.8824,-1.8833,-1.8922,-1.8778,0.0,0.0,0.0,0.0,0.0,0.0,0.0,0.0,0.0,0.0,0.0,0.0,0.0,-1.7617,-1.7922,-1.8025,0.0,0.0,-1.81,-1.8166,-1.8166,-1.817,-1.8172,-1.8163,-1.8057,0.0,0.0,0.0,0.0,0.0,-1.6836,0.0,0.0,0.0,0.0,0.0,0.0,0.0,-1.4467,-1.4457,-1.4158,-1.2742,-1.2367,-1.204,-1.1148,-1.1345,-1.1629,-1.1616,-1.2018,-1.2234,-1.1911,-1.1988,-1.2698,-1.4352,-1.4661,-1.4898,-1.5319,-1.5928,-1.6061,-1.5509,-1.6072,-1.6448,-1.6461,-1.6303,-1.6289,-1.6488,-1.6591,-1.6581,-1.6412,-1.685,-1.6924,-1.667,-1.6863,-1.685,-1.6644,-1.6421,-1.6342,-1.6369,-1.6066,-1.6449,-1.7252,-1.7383,-1.8294,-1.9704,-2.0369,-2.0605,-2.055,-2.0501,-2.0448,-2.0375,0.0,0.0,0.0,0.0,0.0,0.0,0.0,0.0,0.0,0.0,0.0,0.0,0.0,0.0,0.0,0.0,-1.9343,-1.94,-1.8788,-1.8752,-1.8752,-1.8815,-1.8806,-1.91,-1.9752,-1.9109,-1.9007,0.0,0.0,0.0,0.0,0.0,0.0,0.0,0.0,0.0,0.0,0.0,0.0,-1.7451,-1.7698,0.0,-1.7777,-1.7894,-1.7955,-1.796,-1.796,-1.7988,-1.8027,-1.7988,-1.7927,-1.7894,0.0,0.0,0.0,-1.7624,0.0,0.0,0.0,0.0,0.0,0.0,0.0,0.0,-1.5847,-1.54,-1.4786,0.0,-1.417,-1.3516,-1.2917,-1.2606,-1.243,-1.232,-1.2442,-1.2646,-1.2952,-1.3112,-1.3594,-1.4696,-1.453,-1.4519,-1.5028,-1.4671,-1.4663,-1.5214,-1.5729,-1.6097,-1.6248,-1.6207,-1.6277,-1.6409,-1.6436,-1.6436,-1.6412,-1.6646,-1.6672,-1.6463,-1.6596,-1.657,-1.6367,-1.5994,-1.6009,-1.6301,-1.5812,-1.6318,-1.7499,-1.7163,-1.7639,-1.8625,-1.8934,-1.9311,-1.9618,-1.9354,-1.9502,-1.9833,0.0,0.0,0.0,0.0,0.0,0.0,0.0,0.0,0.0,0.0,0.0,0.0,0.0,0.0,0.0,0.0,0.0,0.0,0.0,-1.8584,-1.8582,-1.8657,-1.8592,-1.8768,-1.9233,-1.8757,-1.8623,-1.8899,0.0,0.0,0.0,0.0,0.0,0.0,0.0,0.0,0.0,0.0,-1.7419,-1.7407,-1.7512,0.0,-1.7606,-1.7704,-1.7749,-1.776,-1.7833,-1.7889,-1.7933,-1.7878,-1.7828,0.0,0.0,-1.7562,-1.7359,0.0,-1.694,-1.6149,0.0,0.0,0.0,-1.5899,0.0,0.0,0.0,-1.5957,-1.5385,-1.502,-1.4586,-1.3998,-1.3158,0.0,-1.2921,-1.2522,-1.2983,-1.3406,-1.3403,-1.3525,-1.3942,-1.4836,-1.489,-1.4874,-1.4902,-1.4964,-1.5293,-1.598,-1.6201,-1.6352,-1.644,-1.644,-1.6347,-1.6111,-1.6207,-1.6207,-1.6095,-1.6409,-1.645,-1.6248,-1.6382,-1.6369,-1.6191,-1.5854,-1.5797,-1.5925,-1.5536,-1.604,-1.7134,-1.6834,-1.7257,-1.8159,-1.8608,-1.9162,-1.9676,-1.9403,-1.9456,-1.9614,0.0,0.0,0.0,0.0,0.0,0.0,0.0,0.0,0.0,0.0,0.0,0.0,0.0,0.0,0.0,0.0,0.0,0.0,0.0,-1.8496,-1.8438,-1.8656,-1.8428,-1.8358,-1.8465,-1.8307,-1.8187,-1.8097,0.0,0.0,0.0,0.0,0.0,0.0,0.0,0.0,0.0,0.0,0.0,-1.7605,0.0,-1.7446,-1.751,-1.7559,-1.7589,-1.7612,-1.7715,-1.7794,-1.785,-1.7772,-1.7738,-1.771,-1.7687,-1.7698,0.0,0.0,0.0,0.0,0.0,0.0,0.0,0.0,0.0,-1.4766,0.0,0.0,0.0,0.0,0.0,0.0,0.0,0.0,0.0,0.0,0.0,0.0,0.0,-1.3645,0.0,-1.4834,-1.5224,-1.5286,-1.4978,-1.5623,-1.6119,-1.6277,-1.6533,-1.6621,-1.6502,-1.6756,-1.6562,-1.5829,-1.6212,-1.6242,-1.5813,-1.6316,-1.6399,-1.6053,-1.6205,-1.6177,-1.5997,-1.5768,-1.5624,-1.5566,-1.5284,-1.5666,-1.6502,-1.6289,-1.6857,-1.7919,-1.8531,-1.9184,-1.974,-1.9378,-1.9388,-1.9505,-1.8831,-2.0304,0.0,0.0,0.0,0.0,0.0,0.0,0.0,0.0,0.0,0.0,0.0,0.0,0.0,0.0,0.0,0.0,-1.9238,0.0,-1.8541,-1.9278,-1.8655,-1.831,-1.832,-1.83,-1.8236,-1.8095,0.0,0.0,0.0,0.0,0.0,0.0,-1.7512,0.0,0.0,0.0,-1.7794,0.0,-1.7666,-1.7439,0.0,-1.7512,-1.7542,-1.7601,-1.7624,-1.767,-1.771,0.0,-1.7692,-1.7777,0.0,-1.7692,-1.7749,-1.7635,0.0,0.0,0.0,0.0,0.0,0.0,-1.5287,0.0,0.0,0.0,-1.5375,-1.5614,0.0,0.0,0.0,0.0,0.0,0.0,0.0,0.0,-1.3777,-1.3778,-1.4016,-1.4662,-1.4935,-1.5151,-1.5404,-1.5739,-1.5405,-1.4163,-1.5653,-1.6336,-1.5758,-1.6919,-1.7041,-1.5844,-1.703,-1.7106,-1.59,-1.6748,-1.6763,-1.5928,-1.6125,-1.6011,-1.5653,-1.5566,-1.5522,-1.5477,-1.5165,-1.5314,-1.5786,-1.5356,-1.6192,-1.7745,-1.787,-1.8353,-1.8831,-1.7977,-1.8373,-1.9214,-1.9597,-2.0738,0.0,0.0,0.0,0.0,0.0,0.0,0.0,0.0,0.0,0.0,0.0,0.0,0.0,0.0,0.0,-1.9342,0.0,0.0,0.0,-1.8693,-1.87,-1.8569,-1.8239,-1.8078,-1.8143,-1.8442,-1.8025,0.0,0.0,0.0,0.0,0.0,-1.7707,0.0,-1.8714,0.0,-1.7875,0.0,0.0,0.0,0.0,-1.7489,-1.7531,-1.7601,-1.7601,-1.7624,-1.7647,0.0,-1.7897,0.0,0.0,0.0,0.0,0.0,0.0,0.0,0.0,0.0,0.0,0.0,0.0,0.0,-1.4931,0.0,-1.5798,0.0,0.0,0.0,0.0,0.0,0.0,0.0,-1.4267,0.0,0.0,0.0,-1.4513,0.0,0.0,0.0,-1.5418,-1.5269,-1.5193,-1.5257,-1.6098,-1.647,-1.6203,-1.677,-1.6712,-1.5829,-1.6368,-1.6413,-1.5857,-1.6592,-1.6592,-1.5857,-1.6291,-1.6158,-1.5551,-1.5463,-1.5359,-1.5195,-1.5027,-1.5164,-1.5492,-1.5149,-1.5792,-1.7004,-1.6987,-1.7657,-1.8522,-1.7701,-1.7951,-1.8611,-1.9987,0.0,0.0,0.0,0.0,0.0,0.0,0.0,0.0,0.0,0.0,0.0,-2.1091,-2.0766,0.0,0.0,-1.9417,-1.9366,0.0,0.0,-1.8609,0.0,0.0,0.0,-1.8104,-1.7878,-1.7973,-1.8391,-1.7898,0.0,0.0,0.0,0.0,0.0,0.0,-1.8547,-1.9651,0.0,-1.8455,-1.8733,-1.8094,-1.769,-1.746,-1.7484,-1.7536,-1.7571,-1.7571,-1.7566,-1.7566,-1.7571,-1.7916,0.0,-1.7744,0.0,0.0,0.0,0.0,0.0,-1.8091,0.0,0.0,0.0,0.0,0.0,0.0,0.0,0.0,0.0,0.0,0.0,0.0,0.0,0.0,0.0,0.0,-1.4746,0.0,0.0,0.0,0.0,0.0,0.0,0.0,-1.4963,-1.5124,-1.5829,-1.6304,-1.6499,-1.6336,-1.674,-1.6622,-1.5829,-1.6353,-1.6383,-1.5842,-1.6638,-1.6638,-1.5842,-1.6263,-1.6129,-1.5492,-1.5463,-1.5314,-1.5088,-1.5011,-1.5118,-1.5329,-1.5088,-1.5523,-1.6339,-1.6116,-1.6744,-1.7763,-1.7294,-1.7444,-1.7847,-1.9132,-2.0308,0.0,0.0,0.0,0.0,0.0,0.0,0.0,0.0,0.0,0.0,0.0,0.0,0.0,0.0,0.0,-1.9364,-1.9942,0.0,-1.8229,0.0,0.0,-1.7828,0.0,-1.7738,-1.7681,-1.7634,-1.7601,0.0,0.0,0.0,0.0,0.0,0.0,-1.9102,-1.9717,-1.987,-1.9849,-1.9692,-1.8951,-1.8232,-1.7589,0.0,-1.7505,-1.7498,-1.7498,0.0,0.0,-1.7498,-1.7599,0.0,0.0,0.0,0.0,0.0,0.0,0.0,0.0,0.0,0.0,-1.7392,0.0,0.0,0.0,0.0,-1.5552,0.0,0.0,0.0,0.0,0.0,0.0,0.0,0.0,0.0,0.0,0.0,0.0,0.0,0.0,0.0,0.0,-1.5066,-1.5227,-1.461,-1.5772,-1.626,-1.5654,-1.6919,-1.7086,-1.5844,-1.7737,-1.7876,-1.5915,-1.7273,-1.7257,-1.59,-1.5915,-1.577,-1.5492,-1.5566,-1.5477,-1.5298,-1.5222,-1.5207,-1.5192,-1.4994,-1.5348,-1.5959,-1.53,-1.5471,-1.6121,-1.6348,-1.6692,-1.7024,0.0,0.0,0.0,0.0,0.0,0.0,0.0,-2.2487,0.0,0.0,0.0,0.0,0.0,-2.2561,-2.2243,0.0,0.0,-2.1121,-2.0749,-2.0378,0.0,0.0,0.0,-1.8572,0.0,0.0,0.0,0.0,0.0,0.0,0.0,0.0,0.0,0.0,0.0,-1.9545,0.0,0.0,0.0,0.0,0.0,-1.783,-1.7601,0.0,-1.7536,-1.7505,-1.7505,-1.7493,0.0,-1.7498,-1.7857,-1.8212,-1.7674,-1.7905,-1.8272,-1.7769,-1.7969,0.0,0.0,0.0,-1.8046,-1.7538,0.0,0.0,0.0,0.0,0.0,0.0,0.0,0.0,0.0,0.0,0.0,0.0,0.0,0.0,0.0,0.0,0.0,0.0,0.0,0.0,0.0,0.0,-1.5535,-1.5125,-1.5595,-1.5817,-1.561,-1.6144,-1.6428,-1.6398,-1.6683,-1.6713,-1.6428,-1.6862,-1.6653,-1.5842,-1.6144,-1.5995,-1.5433,-1.5403,-1.5284,-1.5103,-1.5178,-1.5207,-1.5193,-1.5224,-1.5338,-1.5449,-1.5265,-1.523,-1.5291,-1.5418,-1.5773,-1.6326,-2.12,0.0,0.0,0.0,0.0,0.0,0.0,0.0,0.0,0.0,-2.3676,0.0,-2.3906,0.0,-2.3513,0.0,-2.257,-2.1913,-2.1127,-2.088,0.0,-1.8732,-1.8831,0.0,0.0,0.0,0.0,0.0,0.0,-1.9768,0.0,0.0,0.0,0.0,0.0,-2.019,-2.0197,0.0,-2.014,0.0,0.0,-1.7893,0.0,0.0,-1.7577,-1.75,0.0,-1.7486,-1.7503,-1.7467,-1.7797,-1.8123,-1.7662,-1.7869,-1.8188,-1.7699,-1.7893,-1.8335,-1.8601,-1.8402,0.0,-1.7844,-1.7265,0.0,-1.5738,0.0,-1.6365,0.0,0.0,0.0,0.0,0.0,0.0,0.0,0.0,0.0,0.0,-1.6122,0.0,0.0,0.0,0.0,0.0,0.0,-1.5564,-1.5183,-1.5491,-1.5712,0.0,-1.5965,-1.6204,-1.6368,-1.6667,-1.6682,-1.6383,-1.6754,-1.653,-1.5726,-1.6009,-1.5874,-1.5359,-1.5329,-1.5254,-1.5103,-1.5178,-1.5222,-1.5223,-1.5224,-1.5193,-1.5162,-1.5438,-1.5476,-1.5324,-1.5083,-1.5476,-1.6273,0.0,0.0,0.0,0.0,-2.2315,0.0,0.0,0.0,-2.3441,0.0,-2.4275,-2.4495,-2.5247,-2.4744,-2.4072,-2.3307,-2.2588,-2.1881,-2.121,-2.0358,0.0,0.0,-1.9186,-1.8764,-1.8797,0.0,0.0,0.0,0.0,0.0,0.0,0.0,0.0,0.0,-2.1375,0.0,-2.1019,-2.1913,-2.1417,-1.9934,-1.9186,-1.8402,-1.7687,-1.7687,-1.7612,-1.7489,-1.7431,-1.7476,-1.7524,-1.7436,-1.7467,-1.755,-1.7517,-1.75,-1.75,-1.7491,-1.7517,-1.7685,-1.8356,-1.8029,-1.7658,-1.8277,-1.7318,0.0,0.0,0.0,-1.6068,0.0,0.0,0.0,0.0,0.0,0.0,0.0,0.0,0.0,0.0,0.0,0.0,0.0,0.0,0.0,0.0,-1.5151,-1.5326,-1.479,-1.5423,-1.5826,0.0,-1.6368,-1.6443,-1.5858,-1.764,-1.7715,-1.5858,-1.6933,-1.6871,-1.5595,-1.5536,-1.5418,-1.5298,-1.5359,-1.5359,-1.5298,-1.5237,-1.5237,-1.5283,-1.5025,-1.4979,-1.5113,-1.5757,-1.611,-1.6163,-1.5404,-1.5852,-1.6848,-2.2811,-2.3456,-2.4213,0.0,-2.3978,-2.3385,0.0,0.0,0.0,0.0,-2.433,-2.4835,-2.5646,-2.5653,-2.5473,-2.5274,-2.4813,0.0,0.0,0.0,0.0,-2.0659,-1.987,-1.9701,-2.025,-1.9651,0.0,-2.105,0.0,0.0,-2.19,0.0,0.0,0.0,0.0,0.0,-2.0355,-2.1725,-2.1421,-1.993,-1.9142,-1.8336,-1.7624,0.0,-1.7496,-1.7437,-1.7453,-1.7818,-1.8158,-1.7645,-1.7859,-1.8223,-1.7659,-1.7505,-1.7489,-1.7451,-1.779,-1.8108,-1.7794,-1.8314,-1.8746,-1.7835,-1.767,-1.7611,0.0,0.0,0.0,0.0,0.0,0.0,0.0,0.0,0.0,0.0,0.0,0.0,0.0,0.0,0.0,-1.653,0.0,0.0,0.0,-1.5117,-1.5087,-1.5485,-1.5259,0.0,0.0,0.0,-1.6637,-1.6458,-1.695,-1.695,-1.6397,-1.6203,-1.5921,-1.5522,-1.5463,-1.5388,-1.5298,-1.5268,-1.5238,-1.5237,-1.5268,-1.5283,-1.5298,-1.5284,-1.5514,-1.5918,-1.6136,-1.6547,-1.6986,-1.6665,-1.7044,-1.7666,-2.3823,0.0,0.0,-2.4497,0.0,0.0,-2.3385,-2.3588,0.0,-2.3869,-2.4323,0.0,-2.5373,-2.5757,-2.5877,-2.5547,-2.536,0.0,-2.4147,0.0,0.0,-2.1842,-2.1052,-2.0661,-2.0744,-2.0304,0.0,-2.1387,0.0,0.0,-2.2063,0.0,0.0,0.0,0.0,-2.151,0.0,-2.1451,-2.1272,-2.0376,-1.9618,-1.8841,0.0,-1.7612,-1.7453,-1.7491,-1.7789,-1.8145,-1.8352,-1.7687,-1.7955,-1.8423,-1.7714,-1.7474,-1.75,-1.7733,-1.8078,-1.837,-1.8231,-1.8801,-1.9252,-1.8385,-1.8212,-1.8111,-1.7607,-1.7287,-1.7061,0.0,-1.6998,-1.7023,0.0,0.0,0.0,0.0,0.0,0.0,0.0,0.0,0.0,0.0,-1.6,0.0,0.0,-1.5169,-1.4848,-1.5335,-1.526,0.0,0.0,0.0,-1.6547,-1.6308,-1.713,-1.716,-1.6263,-1.6411,-1.6158,-1.5551,-1.5448,-1.5344,-1.5268,-1.5222,-1.5207,-1.5207,-1.5237,-1.5283,-1.5343,-1.5254,-1.5442,-1.5864,-1.6556,-1.7395,-1.82,-1.813,-1.805,-1.7928,0.0,0.0,0.0,0.0,0.0,0.0,0.0,-2.4372,0.0,-2.3816,0.0,-2.4858,-2.4913,-2.5576,-2.5745,-2.5103,0.0,-2.4879,-2.4414,-2.405,-2.3619,-2.315,-2.2258,-2.1499,-2.0837,-2.0837,-2.0837,0.0,0.0,0.0,0.0,0.0,0.0,0.0,0.0,0.0,0.0,-2.1329,-2.1191,-2.0928,-2.0333,-1.9601,-1.873,-1.7975,-1.7711,-1.7827,-1.8359,-1.8532,-1.8433,-1.7757,-1.8013,-1.8513,-1.7814,-1.7563,-1.765,-1.8248,-1.8549,-1.8743,-1.9126,-1.9444,-1.961,-1.9249,-1.8749,-1.828,-1.8032,-1.7584,-1.7174,-1.7061,-1.7124,-1.719,0.0,0.0,0.0,0.0,0.0,0.0,0.0,0.0,0.0,0.0,0.0,0.0,0.0,0.0,0.0,0.0,0.0,0.0,0.0,0.0,-1.6367,-1.5829,-1.752,-1.7625,-1.5919,-1.6859,-1.6796,-1.5699,-1.558,-1.546,-1.5322,-1.5409,-1.541,-1.5338,-1.5322,-1.5356,-1.5389,-1.5119,-1.5234,-1.5691,-1.7062,-1.8334,-1.9395,-1.9395,-1.8808,-1.802,0.0,0.0,0.0,0.0,0.0,-2.5521,-2.548,-2.5387,-2.5114,-2.4526,-2.5082,-2.554,-2.5542,-2.5819,-2.5943,-2.5811,-2.5269,0.0,0.0,0.0,0.0,-2.3801,-2.248,-2.1658,-2.1526,-2.1526,-2.1526,0.0,0.0,0.0,0.0,0.0,0.0,0.0,0.0,0.0,-2.2026,-2.2026,0.0,-2.0814,-2.0711,-2.0173,-1.9426,-1.9267,-1.9191,-1.9168,-1.9276,-1.9312,-1.9197,-1.8466,-1.8713,-1.918,-1.8401,-1.8184,-1.8348,-1.895,-1.9598,-2.0,-1.9444,-2.0223,-2.0755,-1.886,-1.8789,-1.8863,-1.7626,-1.7318,-1.7285,-1.7244,-1.7273,-1.7285,-1.7244,0.0,0.0,0.0,0.0,0.0,0.0,0.0,0.0,0.0,0.0,-1.5602,0.0,0.0,0.0,0.0,0.0,0.0,0.0,0.0,-1.6443,0.0,-1.6638,-1.686,0.0,0.0,-1.6053,-1.6254,-1.6238,-1.6128,-1.5968,-1.6519,-1.651,-1.6021,-1.5971,-1.5746,-1.5389,-1.5224,-1.5844,-1.6953,-1.7829,-1.8678,-1.9395,-1.9339,-1.9114,-1.8802,0.0,0.0,0.0,0.0,0.0,0.0,0.0,-2.5378,-2.538,-2.465,-2.4863,-2.511,-2.5163,-2.5633,-2.5954,-2.5954,-2.5661,-2.5648,-2.6064,-2.4691,-2.3902,-2.4,-2.2863,-2.2059,-2.1709,-2.1709,-2.1709,-2.1709,0.0,0.0,0.0,0.0,0.0,0.0,0.0,-2.2106,0.0,0.0,0.0,-2.1349,-2.0952,-2.0575,-2.0169,-1.9679,-1.9517,-1.9593,-1.9906,-1.978,-1.9402,-1.9081,-1.9457,-1.9951,-1.917,-1.8886,-1.8993,-1.9672,-2.0143,-2.0435,-2.0348,-2.0897,-2.125,-2.0221,-1.9621,-1.9148,-1.8529,-1.7834,-1.7293,-1.7293,-1.7371,-1.7378,-1.7306,-1.7224,0.0,0.0,0.0,0.0,0.0,0.0,0.0,0.0,0.0,0.0,0.0,0.0,0.0,0.0,0.0,-1.589,-1.6397,0.0,-1.6936,0.0,0.0,0.0,-1.6084,0.0,-1.6246,-1.6494,-1.6494,-1.6576,-1.6735,-1.7088,-1.6868,-1.6213,-1.6242,-1.5926,-1.5418,-1.5585,-1.6432,-1.7652,-1.8095,-1.8658,-1.9246,-1.9302,-1.9134,-1.8889,0.0,-2.4748,0.0,0.0,-2.4553,0.0,-2.4758,-2.5243,-2.5405,-2.4827,-2.478,-2.4834,-2.4974,-2.5571,-2.5952,-2.5917,-2.5972,-2.5943,-2.576,-2.4999,-2.4311,-2.3736,-2.2882,-2.2178,-2.1649,-2.1664,-2.1664,0.0,0.0,0.0,0.0,0.0,0.0,0.0,0.0,0.0,0.0,0.0,-2.1955,-2.1834,-2.1254,-2.0993,-2.0915,-2.0195,-1.9967,-2.0091,-2.0568,-2.0361,-1.9869,-1.9897,-2.0092,-2.0252,-1.9815,-1.9614,-1.9677,-2.0363,-2.0574,-2.0688,-2.1147,-2.1324,-2.1369,-2.1332,-2.0246,-1.9195,-1.9222,-1.8204,-1.7265,-1.733,-1.7431,-1.7443,-1.7293,-1.7195,0.0,0.0,0.0,0.0,0.0,0.0,0.0,0.0,0.0,0.0,-1.6434,0.0,0.0,0.0,0.0,-1.6502,-1.6668,-1.7145,-1.7249,0.0,0.0,-1.6976,-1.6069,0.0,-1.6514,-1.6812,-1.6781,-1.704,-1.7524,-1.7719,-1.7303,-1.6447,-1.654,-1.6192,-1.5593,-1.5961,-1.6862,-1.8,-1.8122,-1.8517,-1.9045,-1.9139,-1.9026,-1.8779,0.0,0.0,0.0,0.0,0.0,0.0,-2.5597,-2.5549,-2.5602,-2.5584,-2.5693,-2.5801,-2.5873,-2.6064,-2.6132,-2.6008,-2.6008,-2.5676,-2.4965,-2.421,-2.3506,-2.285,-2.1985,-2.1482,-2.1433,-2.1557,-2.1557,0.0,0.0,-2.1768,0.0,0.0,0.0,0.0,0.0,0.0,0.0,-2.1969,-2.1943,-2.1796,-2.1729,-2.1668,-2.1609,-2.1586,-2.151,-2.1423,-2.1473,-2.1457,-2.1376,-2.1252,-2.0407,-1.9528,-2.0058,-2.0266,-2.041,-2.0956,-2.1165,-2.1212,-2.1198,-2.1262,-2.1163,-2.0563,-1.9758,-1.8998,-1.8519,-1.7751,-1.7191,-1.7439,-1.7443,-1.7375,-1.7224,-1.7248,-1.7232,0.0,0.0,0.0,0.0,0.0,-1.685,-1.6712,0.0,0.0,0.0,-1.6165,0.0,0.0,-1.6001,-1.6104,-1.6004,-1.6503,-1.6817,-1.691,-1.6817,-1.7009,-1.7503,-1.6247,-1.6231,-1.7495,-1.7379,-1.7631,-1.8226,-1.883,-1.8417,-1.718,-1.7146,-1.6735,-1.6126,-1.6168,-1.6915,-1.8,-1.8,-1.8352,-1.8822,-1.8841,-1.8779,-1.8711,0.0,0.0,0.0,0.0,0.0,0.0,0.0,-2.5597,-2.5619,-2.5682,-2.5715,-2.5749,-2.5811,-2.5936,-2.6007,-2.5936,-2.5936,-2.5606,-2.4849,-2.4042,-2.3324,-2.2735,-2.1841,-2.1371,-2.1402,-2.1449,-2.1449,0.0,0.0,0.0,0.0,0.0,0.0,0.0,0.0,-2.1988,-2.1913,-2.1899,-2.1855,-2.1812,-2.1812,-2.1766,-2.1753,-2.1709,-2.1694,-2.1693,-2.1541,-2.1249,-2.0999,-2.1302,-2.1027,-2.062,-2.0883,-2.095,-2.0983,-2.1197,-2.1278,-2.1294,-2.1231,-2.1246,-2.1228,-2.097,-2.0031,-1.9121,-1.8993,-1.8055,-1.7248,-1.7419,-1.7407,-1.7371,-1.7338,-1.7273,-1.7236,-1.722,0.0,0.0,0.0,0.0,0.0,-1.6782,0.0,-1.645,0.0,0.0,0.0,0.0,0.0,-1.7137,-1.7167,-1.7629,-1.7973,-1.8151,0.0,-1.7365,-1.7633,-1.7049,-1.7242,-1.8197,-1.8178,-1.8448,-1.8972,-1.924,-1.8837,-1.787,-1.7408,-1.7306,-1.7442,-1.7323,-1.7805,-1.859,-1.852,-1.8607,-1.8803,-1.8803,-1.876,-1.8692,-2.3749,0.0,-2.5751,0.0,-2.4929,-2.5381,-2.5423,-2.5391,-2.5394,-2.5476,-2.5432,-2.547,-2.5735,-2.5844,-2.5897,-2.5897,-2.5684,-2.5258,-2.4503,-2.3664,-2.2931,-2.2328,-2.1664,0.0,-2.1371,-2.1386,-2.1402,-2.1402,-2.1572,0.0,0.0,0.0,0.0,0.0,-2.1897,-2.1899,-2.1869,-2.184,-2.1811,-2.1812,-2.1812,-2.1736,-2.1663,-2.1634,-2.1602,-2.1554,-2.122,-2.0944,-2.0763,-2.0996,-2.1193,-2.134,-2.1355,-2.1324,-2.1262,-2.1183,-2.1151,-2.1135,-2.1103,-2.1119,-2.1198,-2.1277,-2.0372,-1.9402,-1.9335,-1.8342,-1.7402,-1.7277,-1.7449,-1.7543,-1.7371,-1.7261,-1.7199,-1.7232,0.0,0.0,0.0,-1.7074,0.0,0.0,-1.6662,-1.6488,-1.6474,-1.6328,0.0,0.0,0.0,-1.7738,-1.7605,-1.8108,-1.8558,0.0,0.0,0.0,-1.7916,-1.7721,-1.7944,-1.8634,-1.8668,-1.8956,-1.945,-1.9221,-1.8847,-1.8323,-1.761,-1.7697,-1.835,-1.8211,-1.8499,-1.9017,-1.8931,-1.8975,-1.9128,-1.9069,-1.9139,-1.9256,-2.4614,-2.5294,-2.568,-2.4905,-2.5458,-2.5772,-2.5116,-2.489,-2.4871,-2.4985,-2.489,-2.5091,-2.5807,-2.5897,-2.5897,-2.5897,-2.5226,-2.447,-2.3665,-2.2916,-2.2151,0.0,0.0,-2.1293,-2.1293,-2.1371,-2.1402,-2.1402,0.0,0.0,-2.1709,0.0,-2.1812,-2.1812,-2.1869,-2.1869,-2.1812,-2.1869,-2.1855,-2.1812,-2.1812,-2.1602,-2.1324,-2.1603,-2.1449,-2.1055,-2.0577,-2.0787,-2.118,-2.0532,-2.0713,-2.1199,-2.1278,-2.1262,-2.1151,-2.0876,-2.0811,-2.0811,-2.0811,-2.0844,-2.0958,-2.123,-2.0635,-1.9837,-1.9251,-1.8429,-1.7641,-1.7033,-1.7536,-1.7911,-1.7304,-1.7203,-1.7174,-1.7108,0.0,0.0,0.0,-1.7001,0.0,-1.7083,-1.674,-1.6474,-1.6396,-1.622,0.0,0.0,0.0,0.0,0.0,0.0,0.0,-1.8687,-1.8057,0.0,-1.8687,-1.7961,-1.7961,-1.8702,-1.8634,-1.8956,-1.9578,-1.8836,-1.8505,-1.846,-1.7794,-1.7882,-1.849,-1.849,-1.8734,-1.9101,-1.9101,-1.9421,-1.9852,-1.966,-2.0059,-2.0542,-2.5001,-2.5614,-2.5889,-2.4787,-2.4422,-2.4288,-2.4255,-2.4207,-2.4207,-2.4242,-2.465,-2.5025,-2.5259,-2.5451,-2.5659,0.0,-2.5172,-2.4452,0.0,-2.2915,-2.2086,-2.1325,-2.1293,-2.1293,-2.1293,-2.1324,-2.1324,-2.1324,0.0,0.0,0.0,-2.1694,-2.1724,-2.1812,-2.1783,-2.1783,-2.1812,-2.1825,-2.1781,-2.1723,-2.157,-2.1449,-2.1293,-2.1198,-2.1103,-2.1007,-2.0909,-2.0715,-2.0441,-2.014,-1.9899,-1.9832,-2.0175,-2.0576,-2.083,-2.0273,-2.0334,-2.0595,-2.0529,-2.0645,-2.0794,-2.0925,-2.048,-1.9996,-1.9938,-1.8967,-1.7974,-1.758,-1.7393,-1.7204,-1.6969,-1.6937,-1.6949,-1.6955,-1.7038,0.0,-1.6998,0.0,-1.6766,-1.6701,-1.6423,-1.6205,-1.6136,-1.5983,0.0,0.0,0.0,0.0,0.0,0.0,0.0,0.0,-1.8749,0.0,-1.9393,-1.9148,-1.9148,-1.9375,-1.9358,-1.9442,-1.9608,-1.9738,-1.955,-1.9118,-1.9354,-1.9343,-1.9148,-1.9609,-1.9828,-1.9851,-1.9851,-2.0146,-2.0569,-2.0501,-2.0317,-2.0061,-2.4971,-2.515,-2.5118,-2.4112,-2.383,-2.375,-2.3674,-2.3862,-2.4014,-2.4053,-2.4425,-2.4726,-2.4846,-2.4989,0.0,-2.5752,-2.4749,-2.4002,-2.3817,-2.2671,-2.1779,-2.1325,-2.1293,-2.1293,-2.1293,-2.1293,0.0,-2.134,-2.1511,-2.1619,-2.1646,-2.1649,-2.1679,-2.1753,-2.1738,-2.1753,-2.1812,-2.1783,-2.1559,-2.1208,-2.1041,-2.0858,-2.0639,-2.056,-2.0639,-2.0765,-2.0353,-2.0256,-2.0177,-1.932,-1.9334,-1.9652,-1.9357,-1.9892,-2.055,-2.024,-2.0216,-2.0323,-2.0376,-2.046,-2.0577,-2.0727,-2.0527,-2.0272,-2.0141,-1.9386,-1.8569,-1.7955,-1.7781,-1.7545,-1.6911,-1.6802,-1.6789,-1.676,-1.6805,-1.6824,-1.6788,0.0,-1.6541,0.0,0.0,0.0,0.0,-1.5927,-1.5949,0.0,0.0,0.0,0.0,0.0,-1.9291,-1.9747,-1.9321,-1.9271,-1.9708,-2.0202,-2.0318,-2.0079,-2.0337,-2.0299,-2.0016,-2.0614,-2.0516,-1.992,-2.061,-2.0353,-1.9582,-2.0521,-2.0518,-2.0024,-2.049,-2.0845,-2.1096,-2.1244,-2.1146,-2.0854,-2.4642,-2.4206,-2.3704,0.0,-2.3615,0.0,-2.3354,-2.3708,-2.4085,-2.4204,-2.4219,-2.4291,-2.4549,-2.4569,-2.4819,-2.5427,0.0,0.0,0.0,-2.2199,-2.1294,-2.1294,-2.1309,-2.1293,-2.1293,-2.1293,-2.134,-2.1402,-2.1527,-2.1527,-2.1402,-2.1572,-2.1646,-2.1612,-2.1705,-2.1749,-2.1731,-2.1706,-2.1192,-2.0373,-2.0301,-1.9999,-1.961,-1.9767,-2.0114,-2.0339,-1.9217,-1.9594,-2.0316,-1.8368,-1.8981,-2.0267,-1.8874,-1.9225,-2.0227,-2.0497,-2.0308,-2.0043,-2.0291,-2.0292,-2.0278,-2.0531,-2.0617,-2.0478,-1.9846,-1.9578,-1.9153,-1.8059,-1.8423,-1.8467,-1.7016,-1.6751,-1.6699,-1.6514,-1.6423,-1.6398,-1.6398,-1.6315,-1.6287,0.0,0.0,0.0,-1.6067,-1.5956,-1.5844,0.0,0.0,0.0,0.0,0.0,-1.9794,-1.975,-1.9813,-1.9842,-1.9842,-2.1066,-2.1365,-2.0703,-2.138,-2.135,-2.0718,-2.1395,-2.1335,-2.0733,-2.141,-2.0961,-1.9872,-2.1216,-2.0998,-1.992,-2.1119,-2.1558,-2.1554,-2.193,-2.2315,-2.2565,0.0,0.0,-2.4369,-2.3719,-2.3006,-2.2645,-2.3016,-2.2752,-2.2726,-2.3315,-2.385,-2.425,-2.4359,-2.4364,-2.4326,-2.4223,-2.3441,-2.3024,-2.3168,-2.1905,-2.1151,-2.1151,-2.1262,-2.1293,-2.1293,-2.1293,-2.134,-2.1402,-2.1371,-2.134,-2.1324,-2.1262,-2.1033,-2.0649,-2.1128,-2.1171,-2.0916,-2.1419,-2.1058,-2.0166,-1.9999,-1.9736,-1.9434,-1.9321,-1.9721,-2.0326,-2.0136,-1.9887,-1.9557,-1.9059,-1.8826,-1.87,-1.8704,-1.8808,-1.8979,-1.9236,-1.9649,-1.9973,-1.9887,-1.963,-1.9401,-1.9468,-1.9342,-1.9122,-1.8872,-1.8477,-1.8003,-1.7474,-1.72,-1.6882,-1.6363,-1.6355,-1.6396,-1.6289,-1.626,-1.6258,-1.6328,-1.6051,-1.591,0.0,-1.5869,-1.5726,-1.5726,-1.5784,-1.6114,0.0,0.0,-1.8912,-1.9668,-2.0576,-2.0846,-2.0325,-2.0908,-2.1216,-2.1216,-2.1545,-2.1365,-2.0703,-2.138,-2.135,-2.0718,-2.1395,-2.1335,-2.0733,-2.141,-2.1231,-2.0572,-2.1924,-2.2222,-2.1852,-2.2144,-2.2448,-2.2725,-2.2805,-2.2542,-2.2135,-2.4739,-2.4395,-2.4063,-2.345,-2.3039,-2.2859,-2.298,-2.2955,-2.3067,-2.3457,-2.3859,-2.4002,-2.3743,-2.3713,-2.3518,-2.3034,-2.2858,-2.2681,-2.251,-2.1496,-2.0892,-2.0827,-2.0893,-2.099,-2.1103,-2.1119,-2.1198,-2.134,-2.1324,-2.1293,-2.1293,-2.1199,-2.0989,-2.0727,-2.099,-2.1004,-2.0802,-2.1116,-2.0686,-1.9782,-1.9311,-1.9169,-1.9175,-1.8769,-1.9241,-2.0135,-1.9899,-1.9679,-1.9424,-1.878,-1.8703,-1.8852,-1.8659,-1.8812,-1.9048,-1.9101,-1.9405,-1.9681,-1.9436,-1.9193,-1.8931,-1.8676,-1.8484,-1.8392,-1.8438,-1.8246,-1.7944,-1.7517,-1.7227,-1.6853,-1.6254,-1.6207,-1.6207,-1.6041,-1.6025,-1.6024,-1.6067,-1.584,-1.5815,-1.6262,-1.6159,-1.6054,-1.6054,-1.6336,-1.6614,-1.6786,-1.8054,0.0,-1.9767,-2.1108,-2.1613,-2.1078,-2.1764,-2.1994,-2.1695,-2.1994,-2.1814,-2.1171,-2.2113,-2.1919,-2.0733,-2.171,-2.1784,-2.1201,-2.1879,-2.1769,-2.1261,-2.2562,-2.2694,-2.2099,-2.2729,-2.2789,-2.2593,-2.2965,-2.2533,-2.183,-2.4567,-2.3977,-2.3452,-2.2996,-2.3309,-2.3516,-2.3146,-2.3485,-2.384,-2.3967,-2.387,-2.3618,-2.3061,-2.2925,-2.259,-2.1903,-2.2163,-2.2194,-2.1797,-2.107,-2.0577,-2.0477,-2.051,-2.0628,-2.0844,-2.086,-2.099,-2.123,-2.1246,-2.1246,-2.1214,-2.1167,-2.1071,-2.0959,-2.0927,-2.0879,-2.0799,-2.078,-2.0253,-1.9387,-1.8702,-1.8588,-1.879,-1.8303,-1.885,-1.9793,-1.9322,-1.9375,-1.9481,-1.8287,-1.8648,-1.9459,-1.8661,-1.8883,-1.9432,-1.9302,-1.9174,-1.9051,-1.8955,-1.8785,-1.85,-1.7898,-1.7761,-1.7807,-1.8021,-1.8126,-1.8028,-1.7564,-1.7492,-1.7263,-1.6342,-1.6166,-1.6099,-1.5962,-1.583,-1.5785,-1.5919,0.0,-1.5802,-1.6472,-1.659,-1.6589,-1.6589,-1.7118,-1.7195,-1.6559,-1.8164,-1.9263,-1.9434,-2.1278,-2.2236,-2.1994,-2.2538,-2.2568,-2.1994,-2.2463,-2.2418,-2.1859,-2.2936,-2.2547,-2.0882,-2.2113,-2.2343,-2.1739,-2.2418,-2.2388,-2.1934,-2.3116,-2.2822,-2.1747,-2.299,-2.2812,-2.199,-2.2782,-2.2457,-2.1772,-2.3792,-2.3619,-2.3558,-2.3419,-2.3095,-2.3008,-2.3428,-2.3164,-2.3116,-2.3743,-2.3341,-2.2984,-2.2996,-2.248,-2.1888,-2.1205,-2.1215,-2.1225,-2.114,-2.0654,-2.0356,-2.0339,-2.0543,-2.0644,-2.0561,-2.0677,-2.0811,-2.0958,-2.1071,-2.1039,-2.0876,-2.086,-2.051,-1.9861,-2.0362,-2.0316,-1.9941,-2.0492,-2.0104,-1.9141,-1.9033,-1.8614,-1.8118,-1.8587,-1.8923,-1.9216,-1.9687,-1.9498,-1.9006,-1.8795,-1.867,-1.8581,-1.8458,-1.8344,-1.8306,-1.8488,-1.8123,-1.7783,-1.8461,-1.8023,-1.7272,-1.6769,-1.6654,-1.6626,-1.6558,-1.6598,-1.658,-1.639,-1.636,-1.6302,-1.6069,-1.5969,-1.608,-1.6488,-1.5935,-1.5728,-1.6457,0.0,-1.5492,-1.589,-1.6323,-1.6589,-1.6589,-1.723,-1.7744,-1.796,-1.8941,-1.9975,-2.099,-2.1963,-2.2736,-2.3295,-2.34,-2.3415,-2.331,-2.2897,-2.2643,-2.2553,-2.2748,-2.2368,-2.1575,-2.2358,-2.2343,-2.1739,-2.2418,-2.2643,-2.2598,-2.3295,-2.3033,-2.225,-2.3024,-2.2703,-2.191,-2.2595,-2.2678,-2.2463,-2.3694,-2.3588,-2.3588,-2.3545,-2.3349,-2.3287,-2.355,-2.3355,-2.3203,-2.32,-2.293,-2.2485,-2.1818,-2.1491,-2.1039,-2.0361,-2.03,-2.03,-2.03,-2.0139,-2.001,-1.9975,-2.0098,-2.0202,-2.0273,-2.0477,-2.0611,-2.0679,-2.0761,-2.0728,-2.0645,-2.0596,-2.0373,-1.9991,-2.0201,-2.0136,-1.9875,-2.0114,-1.9932,-1.944,-1.9042,-1.8869,-1.8833,-1.841,-1.8712,-1.9318,-1.8912,-1.8774,-1.8725,-1.8332,-1.825,-1.8338,-1.8253,-1.8372,-1.8479,-1.8212,-1.7585,-1.706,-1.7467,-1.6998,-1.6349,-1.613,-1.6081,-1.6067,-1.6041,-1.6069,-1.6081,-1.6053,-1.6053,-1.6039,-1.601,-1.5956,-1.5976,-1.6233,-1.5906,0.0,-1.6607,-1.6336,-1.6379,-1.725,-1.7544,-1.7673,-1.7675,-1.815,-1.8414,-1.8314,-1.9277,-2.0322,-2.134,-2.2164,-2.2909,-2.358,-2.3595,-2.3595,-2.3595,-2.331,-2.3032,-2.2703,-2.3032,-2.2652,-2.1724,-2.2403,-2.2482,-2.2152,-2.2532,-2.2862,-2.3157,-2.3468,-2.3344,-2.297,-2.3201,-2.2885,-2.2334,-2.268,-2.2429,-2.1977,-2.3671,-2.3588,-2.361,-2.3588,-2.3588,-2.3588,-2.3588,-2.3588,-2.3424,-2.2945,-2.2772,-2.2254,-2.1066,-2.0778,-2.0438,-1.9768,-1.9708,-1.9708,-1.9708,-1.9744,-1.9744,-1.9708,-1.9708,-1.98,-2.0028,-2.0237,-2.0357,-2.0409,-2.0443,-2.0443,-2.0443,-2.0393,-2.0323,-2.0218,-2.0115,-2.0061,-1.9988,-1.9866,-1.9797,-1.9752,-1.9171,-1.9151,-1.9361,-1.8508,-1.8612,-1.9121,-1.8252,-1.8057,-1.8147,-1.7574,-1.769,-1.8045,-1.7958,-1.8299,-1.8611,-1.7953,-1.7244,-1.6651,-1.6548,-1.6203,-1.5885,-1.5913,-1.5927,-1.5927,-1.5927,-1.5927,-1.5956,-1.5969,-1.5997,-1.6011,-1.5983,-1.5927,-1.5945,-1.6111,0.0,-1.5979,-1.6652,-1.6712,-1.7085,-1.815,-1.8487,-1.8646,-1.8668,-1.9015,-1.9123,-1.8873,-1.9864,-2.0828,-2.1673,-2.247,-2.3122,-2.3595,-2.3595,-2.3595,-2.3595,-2.3595,-2.3355,-2.2912,-2.337,-2.3011,-2.1909,-2.2587,-2.2733,-2.2479,-2.2769,-2.3112,-2.3509,-2.356,-2.3448,-2.3221,-2.3216,-2.2892,-2.2476,-2.264,-2.2215,-2.1597,-2.3509,-2.356,-2.3588,-2.3516,-2.3509,-2.3509,-2.3509,-2.3509,-2.3494,-2.345,-2.3014,-2.2433,-2.1695,-2.1062,-2.0438,-1.9768,-1.9708,-1.9708,-1.9708,-1.9708,-1.9708,-1.9708,-1.9708,-1.9744,-1.9815,-1.9833,-1.994,-2.0118,-2.0237,-2.0304,-2.0304,-2.0304,-2.02,-2.0023,-2.0023,-1.999,-1.9988,-1.9866,-1.9797,-1.9797,-1.9666,-1.9271,-1.8837,-1.9346,-1.8837,-1.7923,-1.8448,-1.7863,-1.683,-1.6786,-1.7043,-1.7371,-1.7371,-1.7649,-1.791,-1.7475,-1.6991,-1.6516,-1.6068,-1.603,-1.6109,-1.6232,-1.626,-1.6219,-1.6024,-1.6039,-1.6039,-1.5927,-1.597,-1.5983,-1.5913,-1.5899,-1.6096,-1.6728,0.0,0.0,-1.6774,-1.6712,-1.6711,-1.7,-1.8018,-1.8736,-1.887,-1.9336,-1.9893,-2.049,-2.1177,-2.1884,-2.2577,-2.3191,-2.355,-2.3595,-2.3595,-2.3595,-2.3595,-2.3595,-2.358,-2.3535,-2.358,-2.3193,-2.2462,-2.3137,-2.3043,-2.2368,-2.3102,-2.3465,-2.3509,-2.3509,-2.3066,-2.2414,-2.2783,-2.2408,-2.1747,-2.2227,-2.2296,-2.2137,-2.3545,-2.3573,-2.3588,-2.3566,-2.3538,-2.3494,-2.356,-2.3174,-2.2765,-2.2426,-2.1839,-2.1201,-2.0528,-2.0228,-1.9974,-1.9723,-1.9708,-1.9672,-1.9632,-1.9632,-1.965,-1.9708,-1.9669,-1.9669,-1.9744,-1.9744,-1.978,-1.9836,-1.9904,-1.9922,-1.9922,-1.9957,-1.9937,-1.9815,-1.9866,-1.9848,-1.9797,-1.9762,-1.9744,-1.9744,-1.9708,-1.9286,-1.8732,-1.8986,-1.8762,-1.8237,-1.7669,-1.7635,-1.7766,-1.698,-1.7251,-1.7934,-1.7971,-1.8025,-1.7916,-1.7021,-1.6296,-1.5771,-1.5684,-1.6025,-1.6308,-1.5917,-1.5912,-1.5941,-1.574,-1.5812,-1.5885,-1.574,-1.5798,-1.6005,-1.6442,-1.6185,-1.6125,-1.6849,0.0,-1.6261,-1.7409,-1.7513,-1.7799,-1.8711,-1.9155,-1.9404,-1.9439,-1.9914,-2.0352,-2.0673,-2.1635,-2.2336,-2.2688,-2.3266,-2.3653,-2.3717,-2.3653,-2.3595,-2.3595,-2.3595,-2.3595,-2.3595,-2.3595,-2.3454,-2.3187,-2.3462,-2.3382,-2.3066,-2.3397,-2.3538,-2.3509,-2.3538,-2.3374,-2.3101,-2.3047,-2.2767,-2.2414,-2.2386,-2.2324,-2.2208,-2.3523,-2.3545,-2.3566,-2.3566,-2.3451,-2.3422,-2.3545,-2.3108,-2.256,-2.2023,-2.1585,-2.0991,-2.0109,-2.0004,-1.9929,-1.9723,-1.9708,-1.9672,-1.9632,-1.9611,-1.9629,-1.9669,-1.9629,-1.9629,-1.9672,-1.969,-1.969,-1.9672,-1.969,-1.9708,-1.9708,-1.9744,-1.9744,-1.9708,-1.9744,-1.9744,-1.9726,-1.9726,-1.9726,-1.9726,-1.9726,-1.9438,-1.8986,-1.8777,-1.8565,-1.8237,-1.7115,-1.7143,-1.7602,-1.6857,-1.7232,-1.8019,-1.8159,-1.8179,-1.7983,-1.7163,-1.6611,-1.6158,-1.5873,-1.6272,-1.6626,-1.5918,-1.5728,-1.5727,-1.5772,-1.5758,-1.5726,-1.5668,-1.592,-1.6293,-1.6743,-1.6683,-1.6668,-1.694,-1.6605,-1.665,-1.7593,-1.788,-1.8427,-1.9585,-1.9801,-1.9866,-1.9866,-2.0307,-2.0714,-2.0987,-2.1978,-2.2694,-2.2972,-2.337,-2.3653,-2.3739,-2.3653,-2.3595,-2.3595,-2.3595,-2.3595,-2.3595,-2.3595,-2.3588,-2.3566,-2.3732,-2.3644,-2.3393,-2.3681,-2.3651,-2.3429,-2.3523,-2.3545,-2.3465,-2.3157,-2.2949,-2.2768,-2.2509,-2.2324,-2.2208,-2.3341,-2.3407,-2.3509,-2.3509,-2.3282,-2.3194,-2.3466,-2.3385,-2.3105,-2.256,-2.259,-2.2179,-2.0838,-2.0688,-2.0423,-1.9768,-1.9708,-1.9708,-1.9708,-1.9647,-1.9593,-1.9593,-1.9593,-1.9593,-1.9593,-1.9669,-1.9669,-1.9593,-1.9669,-1.9708,-1.9708,-1.9708,-1.9708,-1.9708,-1.9708,-1.9744,-1.9797,-1.9797,-1.9797,-1.9797,-1.9797,-1.9747,-1.9603,-1.8942,-1.8267,-1.7609,-1.695,-1.6323,-1.586,-1.6259,-1.6809,-1.7364,-1.7691,-1.791,-1.8018,-1.8072,-1.8179,-1.8007,-1.6734,-1.6786,-1.704,-1.6437,-1.5902,-1.5654,-1.6256,-1.5979,-1.5639,-1.5785,-1.6398,-1.6864,-1.6742,-1.7421,-1.7774,-1.7121,-1.7015,-1.7029,-1.712,-1.7639,-1.8276,-1.9014,-1.9632,-2.0005,-2.0005,-2.0488,-2.1057,-2.1669,-2.2328,-2.2972,-2.3565,-2.3595,-2.3595,-2.3595,-2.3595,-2.3595,-2.3595,-2.3595,-2.3595,-2.3595,-2.3595,-2.3566,-2.3524,-2.3984,-2.3803,-2.3148,-2.3862,-2.3865,-2.3319,-2.3466,-2.3422,-2.3275,-2.3016,-2.2791,-2.2592,-2.244,-2.2301,-2.2208,-2.3319,-2.3407,-2.3509,-2.3509,-2.3356,-2.3319,-2.3545,-2.3108,-2.2545,-2.2008,-2.157,-2.0961,-2.0094,-1.9989,-1.9914,-1.9723,-1.9708,-1.9672,-1.9632,-1.952,-1.9501,-1.9593,-1.9593,-1.9593,-1.9593,-1.9629,-1.9629,-1.9593,-1.9629,-1.965,-1.9708,-1.9708,-1.9708,-1.9708,-1.9708,-1.9708,-1.9726,-1.978,-1.9491,-1.9036,-1.9138,-1.8547,-1.7608,-1.7908,-1.7578,-1.6965,-1.6771,-1.6828,-1.6943,-1.6693,-1.728,-1.817,-1.8259,-1.835,-1.8314,-1.7707,-1.7171,-1.6702,-1.6469,-1.6306,-1.6113,-1.5703,-1.5793,-1.5925,-1.5678,-1.5901,-1.62,-1.6276,-1.6547,-1.7026,-1.7938,-1.7976,-1.795,-1.8221,-1.7938,-1.7882,-1.8433,-1.8628,-1.9008,-1.9851,-1.9974,-2.0005,-2.0005,-2.091,-2.1553,-2.168,-2.2712,-2.34,-2.3595,-2.3595,-2.3595,-2.3595,-2.3595,-2.3595,-2.3595,-2.3595,-2.3595,-2.3595,-2.3595,-2.3588,-2.3566,-2.3732,-2.3629,-2.3393,-2.3666,-2.3636,-2.3466,-2.3523,-2.3545,-2.348,-2.3157,-2.2949,-2.2768,-2.2394,-2.2114,-2.1926,-2.3179,-2.3246,-2.3334,-2.3334,-2.3268,-2.3312,-2.3523,-2.3189,-2.2712,-2.2173,-2.1515,-2.0842,-2.0168,-1.9836,-1.9672,-1.9708,-1.9708,-1.969,-1.9632,-1.956,-1.956,-1.9632,-1.9611,-1.9574,-1.952,-1.952,-1.952,-1.952,-1.9574,-1.9632,-1.9708,-1.9708,-1.9708,-1.9708,-1.9708,-1.9708,-1.9708,-1.9762,-1.9536,-1.9091,-1.9211,-1.8547,-1.7503,-1.7637,-1.7279,-1.6666,-1.6443,-1.6546,-1.6811,-1.6632,-1.7381,-1.835,-1.83,-1.8385,-1.8408,-1.8065,-1.7502,-1.6936,-1.6739,-1.6502,-1.6141,-1.5439,-1.5684,-1.6115,-1.6065,-1.603,-1.6035,-1.6127,-1.6441,-1.695,-1.7773,-1.8095,-1.8281,-1.8383,-1.8423,-1.8582,-1.8994,-1.9055,-1.9331,-2.0089,-2.0061,-1.9988,-1.9919,-2.0816,-2.1598,-2.2059,-2.3026,-2.3595,-2.3595,-2.3595,-2.3595,-2.3595,-2.3595,-2.3595,-2.3595,-2.3595,-2.3729,-2.4014,-2.4014,-2.4014,-2.4007,-2.4485,-2.4238,-2.3437,-2.4052,-2.3971,-2.3429,-2.3545,-2.3551,-2.3458,-2.3135,-2.2859,-2.2586,-2.2194,-2.1864,-2.164,-2.2955,-2.3015,-2.3105,-2.3105,-2.3105,-2.3194,-2.3466,-2.3509,-2.3278,-2.2682,-2.2069,-2.1425,-2.0688,-2.0001,-1.9629,-1.969,-1.969,-1.969,-1.9708,-1.969,-1.969,-1.969,-1.9629,-1.952,-1.9395,-1.9395,-1.9395,-1.9395,-1.952,-1.9629,-1.969,-1.9708,-1.9708,-1.9708,-1.9708,-1.9708,-1.9708,-1.9762,-1.9732,-1.9618,-1.9689,-1.9251,-1.8446,-1.7848,-1.7189,-1.6547,-1.6009,-1.5784,-1.586,-1.6332,-1.7198,-1.805,-1.8039,-1.8187,-1.8469,-1.8823,-1.8618,-1.813,-1.7395,-1.7141,-1.6807,-1.5654,-1.5692,-1.6176,-1.6859,-1.6233,-1.5521,-1.5654,-1.6218,-1.6741,-1.686,-1.793,-1.8614,-1.8054,-1.8593,-1.9071,-1.9063,-1.913,-1.936,-1.9929,-1.9988,-1.9919,-1.9797,-2.0399,-2.1328,-2.2598,-2.3212,-2.352,-2.352,-2.3586,-2.3595,-2.3595,-2.3595,-2.3595,-2.3595,-2.3655,-2.4014,-2.4605,-2.4605,-2.4634,-2.4724,-2.5747,-2.5192,-2.3445,-2.4682,-2.4481,-2.3319,-2.3523,-2.3458,-2.3275,-2.3001,-2.2609,-2.2161,-2.1864,-2.1616,-2.135,-2.2925,-2.3015,-2.3105,-2.3105,-2.3105,-2.3194,-2.3466,-2.3509,-2.3071,-2.1897,-2.1724,-2.1226,-1.9972,-1.97,-1.9611,-1.9629,-1.9629,-1.9632,-1.9708,-1.965,-1.9629,-1.9629,-1.9465,-1.9358,-1.9321,-1.9321,-1.9321,-1.9321,-1.9395,-1.9487,-1.9629,-1.9687,-1.9708,-1.9708,-1.9708,-1.9708,-1.9708,-1.9762,-1.9461,-1.8929,-1.9047,-1.8307,-1.7115,-1.6965,-1.6533,-1.5979,-1.5858,-1.5741,-1.5802,-1.6894,-1.7467,-1.7775,-1.8121,-1.8633,-1.8987,-1.8506,-1.8234,-1.8057,-1.7977,-1.7467,-1.6907,-1.6799,-1.6371,-1.5947,-1.576,-1.5926,-1.6135,-1.6289,-1.6515,-1.7025,-1.8072,-1.8089,-1.824,-1.9141,-1.9011,-1.8985,-1.9562,-1.9604,-1.9667,-1.9973,-1.9902,-1.983,-1.9797,-2.0359,-2.1265,-2.2598,-2.2823,-2.2897,-2.2897,-2.3447,-2.3717,-2.3595,-2.3696,-2.3717,-2.3595,-2.4111,-2.4455,-2.4605,-2.4605,-2.4874,-2.5367,-2.5057,-2.46,-2.4079,-2.3851,-2.357,-2.3319,-2.3451,-2.3385,-2.3127,-2.2957,-2.2549,-2.202,-2.1722,-2.1423,-2.1033,-2.2902,-2.297,-2.2992,-2.2992,-2.306,-2.3171,-2.3378,-2.3133,-2.2835,-2.2533,-2.1664,-2.0931,-2.054,-1.989,-1.9465,-1.9465,-1.9501,-1.952,-1.9545,-1.9523,-1.9501,-1.9501,-1.9376,-1.9265,-1.9195,-1.9195,-1.9246,-1.9302,-1.9339,-1.9446,-1.9593,-1.9647,-1.9672,-1.9708,-1.9708,-1.9708,-1.9708,-1.9744,-1.9531,-1.9166,-1.9251,-1.8633,-1.7608,-1.7294,-1.6771,-1.6189,-1.5889,-1.5755,-1.5846,-1.675,-1.7091,-1.7252,-1.801,-1.8347,-1.8438,-1.8476,-1.8314,-1.8122,-1.8065,-1.7571,-1.7026,-1.6775,-1.624,-1.5762,-1.5733,-1.5795,-1.5901,-1.6008,-1.6159,-1.6578,-1.7643,-1.7761,-1.8059,-1.9148,-1.9266,-1.9354,-1.9699,-1.9744,-1.9762,-1.9848,-1.978,-1.9861,-2.0102,-2.0706,-2.1511,-2.253,-2.293,-2.3137,-2.3137,-2.3573,-2.3739,-2.3595,-2.3739,-2.3739,-2.3595,-2.4261,-2.4769,-2.5068,-2.5397,-2.5561,-2.5615,-2.5529,-2.4923,-2.3896,-2.3739,-2.3443,-2.3105,-2.3061,-2.2926,-2.2746,-2.2563,-2.217,-2.1688,-2.1423,-2.1106,-2.0799,-2.2857,-2.2902,-2.2902,-2.288,-2.2992,-2.3105,-2.3246,-2.2796,-2.2669,-2.3278,-2.1732,-2.0749,-2.1218,-2.0082,-1.9302,-1.9302,-1.9358,-1.9395,-1.9395,-1.9395,-1.9376,-1.9376,-1.9321,-1.9209,-1.9097,-1.9082,-1.9153,-1.9246,-1.9284,-1.9395,-1.9556,-1.9574,-1.9629,-1.969,-1.969,-1.9708,-1.9708,-1.9708,-1.9708,-1.9708,-1.9708,-1.9286,-1.8642,-1.8087,-1.7443,-1.6801,-1.6293,-1.6099,-1.6189,-1.6753,-1.693,-1.7059,-1.7946,-1.7949,-1.7749,-1.8345,-1.8332,-1.8069,-1.7841,-1.7467,-1.7007,-1.6406,-1.5871,-1.561,-1.5985,-1.5857,-1.561,-1.5566,-1.5876,-1.6338,-1.694,-1.7434,-1.8017,-1.8899,-1.9381,-1.9659,-1.9693,-1.9744,-1.9762,-1.9708,-1.9779,-2.0068,-2.0605,-2.1174,-2.1787,-2.2441,-2.3082,-2.3452,-2.3452,-2.3679,-2.3739,-2.3653,-2.3739,-2.3799,-2.3774,-2.444,-2.5113,-2.5779,-2.6437,-2.6467,-2.5959,-2.6249,-2.5431,-2.3741,-2.3831,-2.3458,-2.2799,-2.2558,-2.2411,-2.2301,-2.2091,-2.1722,-2.1302,-2.1033,-2.0848,-2.0687,-2.2795,-2.2872,-2.288,-2.2818,-2.2872,-2.2955,-2.3105,-2.3054,-2.2856,-2.2452,-2.173,-2.1044,-2.0431,-1.9742,-1.9302,-1.9302,-1.9321,-1.9339,-1.9395,-1.9358,-1.9321,-1.9321,-1.9176,-1.9097,-1.9031,-1.9078,-1.9078,-1.905,-1.9209,-1.9321,-1.9339,-1.952,-1.9593,-1.9611,-1.9672,-1.9708,-1.9708,-1.9708,-1.9708,-1.9708,-1.9708,-1.9286,-1.8687,-1.8612,-1.8147,-1.7548,-1.741,-1.7364,-1.7468,-1.8104,-1.8244,-1.8175,-1.8259,-1.8203,-1.8016,-1.7543,-1.7386,-1.7347,-1.7379,-1.6963,-1.6516,-1.646,-1.5978,-1.5522,-1.558,-1.6114,-1.6458,-1.5875,-1.6758,-1.7618,-1.7678,-1.7783,-1.8249,-1.9396,-1.9271,-1.9168,-1.9651,-1.9708,-1.9708,-1.9708,-2.0106,-2.0654,-2.1307,-2.1455,-2.1787,-2.2441,-2.27,-2.2849,-2.2917,-2.348,-2.3797,-2.376,-2.3797,-2.4003,-2.4455,-2.5128,-2.5809,-2.6467,-2.7151,-2.742,-2.73,-2.6093,-2.5254,-2.465,-2.3424,-2.2727,-2.2463,-2.244,-2.2278,-2.2067,-2.202,-2.1616,-2.1033,-2.0823,-2.0724,-2.0662,-2.2772,-2.2743,-2.2743,-2.2795,-2.2818,-2.2834,-2.2873,-2.2584,-2.2439,-2.2571,-2.1414,-2.0558,-2.0576,-1.9638,-1.9026,-1.9026,-1.9026,-1.9078,-1.9168,-1.9078,-1.9045,-1.913,-1.8988,-1.8893,-1.8827,-1.8908,-1.9046,-1.9335,-1.9233,-1.9228,-1.9302,-1.9395,-1.9465,-1.9501,-1.9523,-1.9578,-1.9632,-1.9632,-1.9669,-1.9708,-1.9708,-1.9528,-1.9211,-1.8837,-1.8523,-1.8207,-1.78,-1.765,-1.7754,-1.8389,-1.807,-1.7502,-1.8155,-1.7819,-1.7194,-1.7236,-1.7265,-1.7265,-1.7298,-1.6931,-1.6572,-1.6603,-1.6204,-1.5888,-1.6248,-1.694,-1.7303,-1.6518,-1.7211,-1.8077,-1.8473,-1.8484,-1.8767,-1.97,-1.9888,-1.9984,-2.0228,-2.0258,-2.024,-2.0165,-2.0688,-2.1282,-2.1893,-2.1952,-2.226,-2.3012,-2.3099,-2.3184,-2.3239,-2.361,-2.376,-2.3696,-2.4115,-2.4328,-2.4263,-2.5527,-2.6094,-2.6004,-2.6828,-2.7149,-2.6991,-2.5784,-2.4934,-2.4373,-2.294,-2.2263,-2.2161,-2.1926,-2.1769,-2.1664,-2.1664,-2.1399,-2.0997,-2.0774,-2.0699,-2.0687]},{"header":{"parameterUnit":"m.s-1","parameterCategory":1,"la1":30.6,"la2":28.766,"lo1":-90.7593,"lo2":-88.6598,"dy":0.0162,"dx":0.0183,"nx":116,"ny":114,"refTime":"2023-03-07T18:00:00:Z","depth":0,"parameterNumber":3,"parameterNumberName":"V-component_of_WINDS"},"data":[0.0,0.0,0.0,0.0,0.0,0.0,0.0,0.0,0.0,0.0,0.0,0.0,0.0,0.0,0.0,0.0,0.0,0.0,0.0,0.0,0.0,0.0,0.0,0.0,0.0,0.0,0.0,0.0,0.0,0.0,0.0,0.0,0.0,0.0,0.0,0.0,0.0,0.0,0.0,0.0,0.0,0.0,0.0,0.0,0.0,0.0,0.0,0.0,0.0,0.0,0.0,0.0,0.0,0.0,0.0,0.0,0.0,0.0,0.0,0.0,0.0,0.0,0.0,0.0,0.0,0.0,0.0,0.0,0.0,0.0,0.0,0.0,0.0,0.0,0.0,0.0,0.0,0.0,0.0,0.0,0.0,0.0,0.0,0.0,0.0,0.0,0.0,0.0,0.0,0.0,0.0,0.0,0.0,0.0,0.0,0.0,0.0,0.0,0.0,0.0,0.0,0.0,0.0,0.0,0.0,0.0,0.0,0.0,0.0,0.0,0.0,0.0,0.0,0.0,0.0,0.0,0.0,0.0,0.0,0.0,0.0,0.0,0.0,0.0,0.0,0.0,0.0,0.0,0.0,0.0,0.0,0.0,0.0,0.0,0.0,0.0,0.0,0.0,0.0,0.0,0.0,0.0,0.0,0.0,0.0,0.0,0.0,0.0,0.0,0.0,0.0,0.0,0.0,0.0,0.0,0.0,0.0,0.0,0.0,0.0,0.0,0.0,0.0,0.0,0.0,0.0,0.0,0.0,0.0,0.0,0.0,0.0,0.0,0.0,0.0,0.0,0.0,0.0,0.0,0.0,0.0,0.0,0.0,0.0,0.0,0.0,0.0,0.0,0.0,0.0,0.0,0.0,0.0,0.0,0.0,0.0,0.0,0.0,0.0,0.0,0.0,0.0,0.0,0.0,0.0,0.0,0.0,0.0,0.0,0.0,0.0,0.0,0.0,0.0,0.0,0.0,0.0,0.0,0.0,0.0,0.0,0.0,0.0,0.0,0.0,0.0,0.0,0.0,0.0,0.0,0.0,0.0,0.0,0.0,0.0,0.0,0.0,0.0,0.0,0.0,0.0,0.0,0.0,0.0,0.0,0.0,0.0,0.0,0.0,0.0,0.0,0.0,0.0,0.0,0.0,0.0,0.0,0.0,0.0,0.0,0.0,0.0,0.0,0.0,0.0,0.0,0.0,0.0,0.0,0.0,0.0,0.0,0.0,0.0,0.0,0.0,0.0,0.0,0.0,0.0,0.0,0.0,0.0,0.0,0.0,0.0,0.0,0.0,0.0,0.0,0.0,0.0,0.0,0.0,0.0,0.0,0.0,0.0,0.0,0.0,0.0,0.0,0.0,0.0,0.0,0.0,0.0,0.0,0.0,0.0,0.0,0.0,0.0,0.0,0.0,0.0,0.0,0.0,0.0,0.0,0.0,0.0,0.0,0.0,0.0,0.0,0.0,0.0,0.0,0.0,0.0,0.0,0.0,0.0,0.0,0.0,0.0,0.0,0.0,0.0,0.0,0.0,0.0,0.0,0.0,0.0,0.0,0.0,0.0,0.0,0.0,0.0,0.0,0.0,0.0,0.0,0.0,0.0,0.0,0.0,0.0,0.0,0.0,0.0,0.0,0.0,0.0,0.0,0.0,0.0,0.0,0.0,0.0,0.0,0.0,0.0,0.0,0.0,0.0,0.0,0.0,0.0,0.0,0.0,0.0,0.0,0.0,0.0,0.0,0.0,0.0,0.0,0.0,0.0,0.0,0.0,0.0,0.0,0.0,0.0,0.0,0.0,0.0,0.0,0.0,0.0,0.0,0.0,0.0,0.0,0.0,0.0,0.0,0.0,0.0,0.0,0.0,0.0,0.0,0.0,0.0,0.0,0.0,0.0,0.0,0.0,0.0,0.0,0.0,0.0,0.0,0.0,0.0,0.0,0.0,0.0,0.0,0.0,0.0,0.0,0.0,0.0,0.0,0.0,0.0,0.0,0.0,0.0,0.0,0.0,0.0,0.0,0.0,0.0,0.0,0.0,0.0,0.0,0.0,0.0,0.0,0.0,0.0,0.0,0.0,0.0,0.0,0.0,0.0,0.0,0.0,0.0,0.0,0.0,0.0,0.0,0.0,0.0,0.0,0.0,0.0,0.0,0.0,0.0,0.0,0.0,0.0,0.0,0.0,0.0,0.0,0.0,0.0,0.0,0.0,0.0,0.0,0.0,0.0,0.0,0.0,0.0,0.0,0.0,0.0,0.0,0.0,0.0,0.0,0.0,0.0,0.0,0.0,0.0,0.0,0.0,0.0,0.0,0.0,0.0,0.0,0.0,0.0,0.0,0.0,0.0,0.0,0.0,0.0,0.0,0.0,0.0,0.0,0.0,0.0,0.0,0.0,0.0,0.0,0.0,0.0,0.0,0.0,0.0,0.0,0.0,0.0,0.0,0.0,0.0,0.0,0.0,0.0,0.0,0.0,0.0,0.0,0.0,0.0,0.0,0.0,0.0,0.0,0.0,0.0,0.0,0.0,0.0,0.0,0.0,0.0,0.0,0.0,0.0,0.0,0.0,0.0,0.0,0.0,0.0,0.0,0.0,0.0,0.0,0.0,0.0,0.0,0.0,0.0,0.0,0.0,0.0,0.0,0.0,0.0,0.0,0.0,0.0,0.0,0.0,0.0,0.0,0.0,0.0,0.0,0.0,0.0,0.0,0.0,0.0,0.0,0.0,0.0,0.0,0.0,0.0,0.0,0.0,0.0,0.0,0.0,0.0,0.0,0.0,0.0,0.0,0.0,0.0,0.0,0.0,0.0,0.0,0.0,0.0,0.0,0.0,0.0,0.0,0.0,0.0,0.0,0.0,0.0,0.0,0.0,0.0,0.0,0.0,0.0,0.0,0.0,0.0,0.0,0.0,0.0,0.0,0.0,0.0,0.0,0.0,0.0,0.0,0.0,0.0,0.0,0.0,0.0,0.0,0.0,0.0,0.0,0.0,0.0,0.0,0.0,0.0,0.0,0.0,0.0,0.0,0.0,0.0,0.0,0.0,0.0,0.0,0.0,0.0,0.0,0.0,0.0,0.0,0.0,0.0,0.0,0.0,0.0,0.0,0.0,0.0,0.0,0.0,0.0,0.0,0.0,0.0,0.0,0.0,0.0,0.0,0.0,0.0,0.0,0.0,0.0,0.0,0.0,0.0,0.0,0.0,0.0,0.0,0.0,0.0,0.0,0.0,0.0,0.0,0.0,0.0,0.0,0.0,0.0,0.0,0.0,0.0,0.0,0.0,0.0,0.0,0.0,0.0,0.0,0.0,0.0,0.0,0.0,0.0,0.0,0.0,0.0,0.0,0.0,0.0,0.0,0.0,0.0,0.0,0.0,0.0,0.0,0.0,0.0,0.0,0.0,0.0,0.0,0.0,0.0,0.0,0.0,0.0,0.0,0.0,0.0,0.0,0.0,0.0,0.0,0.0,0.0,0.0,0.0,0.0,0.0,0.0,0.0,0.0,0.0,0.0,0.0,0.0,0.0,0.0,0.0,0.0,0.0,0.0,0.0,0.0,0.0,0.0,0.0,0.0,0.0,0.0,0.0,0.0,0.0,0.0,0.0,0.0,0.0,0.0,0.0,0.0,0.0,0.0,0.0,0.0,0.0,0.0,0.0,0.0,0.0,0.0,0.0,0.0,0.0,0.0,0.0,0.0,0.0,0.0,0.0,0.0,0.0,0.0,0.0,0.0,0.0,0.0,0.0,0.0,0.0,0.0,0.0,0.0,0.0,0.0,0.0,0.0,0.0,0.0,0.0,0.0,0.0,0.0,0.0,0.0,0.0,0.0,0.0,0.0,0.0,0.0,0.0,0.0,0.0,0.0,0.0,0.0,0.0,0.0,0.0,0.0,0.0,0.0,0.0,0.0,0.0,0.0,0.0,0.0,0.0,0.0,0.0,0.0,0.0,0.0,0.0,0.0,0.0,0.0,0.0,0.0,0.0,0.0,0.0,0.0,0.0,0.0,0.0,0.0,0.0,0.0,0.0,0.0,0.0,0.0,0.0,0.0,0.0,0.0,0.0,0.0,0.0,0.0,0.0,0.0,0.0,0.0,0.0,0.0,0.0,0.0,0.0,0.0,0.0,0.0,0.0,0.0,0.0,0.0,0.0,0.0,0.0,0.0,0.0,0.0,0.0,0.0,0.0,0.0,0.0,0.0,0.0,0.0,0.0,0.0,0.0,0.0,0.0,0.0,0.0,0.0,0.0,0.0,0.0,0.0,0.0,0.0,0.0,0.0,0.0,0.0,0.0,0.0,0.0,0.0,0.0,0.0,0.0,0.0,0.0,0.0,0.0,0.0,0.0,0.0,0.0,0.0,0.0,0.0,0.0,0.0,0.0,0.0,0.0,0.0,0.0,0.0,0.0,0.0,0.0,0.0,0.0,0.0,0.0,0.0,0.0,0.0,0.0,0.0,0.0,0.0,0.0,0.0,0.0,0.0,0.0,0.0,0.0,0.0,0.0,0.0,0.0,0.0,0.0,0.0,0.0,0.0,0.0,0.0,0.0,0.0,0.0,0.0,0.0,0.0,0.0,0.0,0.0,0.0,0.0,0.0,0.0,0.0,0.0,0.0,0.0,0.0,0.0,0.0,0.0,0.0,0.0,0.0,0.0,0.0,0.0,0.0,0.0,0.0,0.0,0.0,0.0,0.0,0.0,0.0,0.0,0.0,0.0,0.0,0.0,0.0,0.0,0.0,0.0,0.0,0.0,0.0,0.0,0.0,0.0,0.0,0.0,0.0,0.0,0.0,0.0,0.0,0.0,0.0,0.0,0.0,0.0,0.0,0.0,0.0,0.0,0.0,0.0,0.0,0.0,0.0,0.0,0.0,0.0,0.0,0.0,0.0,0.0,0.0,0.0,0.0,0.0,0.0,0.0,0.0,0.0,0.0,0.0,0.0,0.0,0.0,0.0,0.0,0.0,0.0,0.0,0.0,0.0,0.0,0.0,0.0,0.0,0.0,0.0,0.0,0.0,0.0,0.0,0.0,0.0,0.0,0.0,0.0,0.0,0.0,0.0,0.0,0.0,0.0,0.0,0.0,0.0,0.0,0.0,0.0,0.0,0.0,0.0,0.0,0.0,0.0,0.0,0.0,0.0,0.0,0.0,0.0,0.0,0.0,0.0,0.0,0.0,0.0,0.0,0.0,0.0,0.0,0.0,0.0,0.0,0.0,0.0,0.0,0.0,0.0,0.0,0.0,0.0,0.0,0.0,0.0,0.0,0.0,0.0,0.0,0.0,0.0,0.0,0.0,0.0,0.0,0.0,0.0,0.0,0.0,0.0,0.0,0.0,0.0,0.0,0.0,0.0,0.0,0.0,0.0,0.0,0.0,0.0,0.0,0.0,0.0,0.0,0.0,0.0,0.0,0.0,0.0,0.0,0.0,0.0,0.0,0.0,0.0,0.0,0.0,0.0,0.0,0.0,0.0,0.0,0.0,0.0,0.0,0.0,0.0,0.0,0.0,0.0,0.0,0.0,0.0,0.0,0.0,0.0,0.0,0.0,0.0,0.0,0.0,0.0,0.0,0.0,0.0,0.0,0.0,0.0,0.0,0.0,0.0,0.0,0.0,0.0,0.0,0.0,0.0,0.0,0.0,0.0,0.0,0.0,0.0,0.0,0.0,0.0,0.0,0.0,0.0,0.0,0.0,0.0,0.0,0.0,0.0,0.0,0.0,0.0,0.0,0.0,0.0,0.0,0.0,0.0,0.0,0.0,0.0,0.0,0.0,0.0,0.0,0.0,0.0,0.0,0.0,0.0,0.0,0.0,0.0,0.0,0.0,0.0,0.0,0.0,0.0,0.0,0.0,0.0,0.0,0.0,0.0,0.0,0.0,0.0,0.0,0.0,0.0,0.0,0.0,0.0,0.0,0.0,0.0,0.0,0.0,0.0,0.0,0.0,0.0,0.0,0.0,0.0,0.0,0.0,0.0,0.0,0.0,0.0,0.0,0.0,0.0,0.0,0.0,0.0,0.0,0.0,0.0,0.0,0.0,0.0,0.0,0.0,0.0,0.0,0.0,0.0,0.0,0.0,0.0,0.0,0.0,0.0,0.0,0.0,0.0,0.0,0.0,1.0609,0.0,0.0,0.0,0.0,0.0,0.0,0.0,0.0,0.0,0.0,0.0,0.0,0.0,0.0,0.0,0.0,0.0,0.0,0.0,0.0,0.0,0.0,0.0,0.0,0.0,0.0,0.0,0.0,0.0,0.0,0.0,0.0,0.0,0.0,0.0,0.0,0.0,0.0,0.0,0.0,0.0,0.0,0.0,0.0,0.0,0.0,0.0,0.0,0.0,0.0,0.0,0.0,0.0,0.0,0.0,0.0,0.0,0.0,0.0,0.0,0.0,0.0,0.0,0.0,0.0,0.0,0.0,0.0,0.0,0.0,0.0,0.0,0.0,0.0,0.0,0.0,0.0,0.0,0.0,0.0,0.0,0.0,0.0,0.0,0.0,0.0,0.0,0.0,0.0,0.0,0.0,0.0,0.0,0.0,0.0,0.0,0.0,0.0,0.0,0.0,0.0,0.0,0.0,0.0,0.0,0.0,0.0,0.0,0.0,0.0,0.0,0.0,0.0,0.0,0.0,0.0,1.1112,0.0,0.0,0.0,0.0,0.0,0.0,0.0,0.0,0.0,0.0,0.0,0.0,0.0,0.0,0.0,0.0,0.0,0.0,0.0,0.0,0.0,0.0,0.0,0.0,0.0,0.0,0.0,0.0,0.0,0.0,0.0,0.0,0.0,0.0,0.0,0.0,0.0,0.0,0.0,0.0,0.0,0.0,0.0,0.0,0.0,0.0,0.0,0.0,0.0,0.0,0.0,0.0,0.0,0.0,0.0,0.0,0.0,0.0,0.0,0.0,0.0,0.0,0.0,0.0,0.0,0.0,0.0,0.0,0.0,0.0,0.0,0.0,0.0,0.0,0.0,0.0,0.0,0.0,0.0,0.0,0.0,0.0,0.0,0.0,0.0,0.0,0.0,0.0,0.0,0.0,0.0,0.0,0.0,0.0,0.0,0.0,0.0,0.0,0.0,0.0,0.0,0.0,0.0,0.0,0.0,0.0,0.0,0.0,1.066,1.1201,1.1479,1.2115,1.2432,1.2485,1.1817,1.1558,1.1615,1.1805,0.0,0.0,0.0,0.0,0.0,0.0,0.0,0.0,0.0,0.0,0.0,0.0,0.0,0.0,0.0,0.0,0.0,0.0,0.0,0.0,0.0,0.0,0.0,0.0,0.0,0.0,0.0,0.0,0.0,0.0,0.0,0.0,0.0,0.0,0.0,0.0,0.0,0.0,0.0761,0.0239,-0.0095,-0.0236,-0.0355,0.0,0.0,0.0,0.0,0.0,0.0,0.0,0.0,0.0,0.0,0.0,0.0,0.0,0.0,0.0,0.0,0.0,0.0,0.0,0.0,0.0,0.0,0.0,0.0,0.0,0.0,0.0,0.0,0.0,0.0,0.0,0.0,0.0,0.0,0.0,0.0,0.0,0.0,0.0,0.0,0.0,0.0,0.0,0.5973,0.5604,0.0,0.0,0.0,0.0,0.0,0.0,0.0,0.0,0.0,0.0,0.0,0.0,0.0,0.8056,0.8434,0.9536,1.0183,1.0407,1.1509,1.2049,1.21,1.2308,1.2577,1.2906,1.2571,0.0,1.2078,1.1836,0.0,0.0,0.0,0.0,0.0,0.0,0.0,0.0,0.0,0.0,0.0,0.0,0.0,0.0,0.0,0.0,0.0,0.0,0.0,0.0,0.0,0.0,0.0,0.0,0.0,0.0,0.0,0.0,0.0,0.0,0.0,0.0,0.0,0.0,0.0,0.0,0.1896,0.1623,0.1394,0.0939,0.0712,0.0634,0.0508,0.0126,-0.0393,-0.041,0.0,0.0,0.0,0.0,0.0,0.0,0.0,0.0,0.0,0.0,0.0,0.0,0.0,0.0,0.0,0.0,0.0,0.0,0.0,0.0,0.0,0.0,0.0,0.0,0.0,0.0,0.0,0.0,0.0,0.0,0.0,0.0,0.0,0.0,0.0,0.0,0.0,0.0,0.0,0.6116,0.6161,0.603,0.7155,0.7792,0.0,0.0,0.0,0.0,0.0,0.0,0.0,0.0,0.0,0.7946,0.8276,0.8803,0.9511,1.0229,1.0939,1.1621,1.2222,1.2596,1.2806,1.2964,1.3108,1.3254,1.2972,1.2826,1.2847,1.2437,1.2533,1.2953,0.0,0.0,0.0,0.0,1.3934,1.4122,0.0,0.0,0.0,0.0,0.0,0.0,0.0,0.0,0.0,0.0,0.0,0.0,0.0,0.0,0.0,0.1951,0.0,0.0,0.0,0.0,0.0,0.0,0.0,0.0,0.0,0.0,0.0,0.0,0.2459,0.231,0.2098,0.1675,0.1464,0.1384,0.1209,0.0687,-0.0026,0.0025,0.0,0.0,0.0,0.0,0.0,0.0,0.0,0.0,0.0,0.0,0.0,0.0,0.0,0.0,0.0,0.0,0.0,0.0,0.0,0.0,0.0,0.0,0.0,0.0,0.0,0.0,0.0,0.0,0.0,0.0,0.0,0.0,0.0,0.0,0.0,0.0,0.0,0.0,0.0,0.6122,0.6331,0.6294,0.7435,0.7953,0.0,0.0,0.0,0.0,0.0,0.0,0.765,0.7936,0.8204,0.8428,0.8866,0.9504,1.0359,1.0922,1.1587,1.238,1.2647,1.2935,1.3241,1.3376,1.348,1.3494,1.3287,1.3322,1.3455,1.2833,1.2931,1.3477,1.3249,1.3413,1.3862,1.4616,1.4885,1.4964,0.0,0.0,0.0,0.0,0.0,0.0,0.0,0.0,0.0,0.0,0.0,0.0,0.0,0.0,0.1951,0.1817,0.2042,0.2201,0.0,0.0,0.0,0.0,0.0,0.0,0.0,0.0,0.0,0.3061,0.2992,0.2947,0.292,0.2283,0.1859,0.1675,0.1347,0.1123,0.1036,0.1167,0.1091,0.0978,0.0,0.0,0.0,0.0,0.0,0.0,0.0,0.0,0.0,0.0,0.0,0.0,0.0,0.0,0.0,0.0,0.0,0.0,0.0,0.0,0.0,0.0,0.0,0.0,0.0,0.0,0.0,0.0,0.0,0.0,0.0,0.0,0.0,0.0,0.0,0.0,0.0,0.0,0.0,0.6075,0.7315,0.0,0.0,0.0,0.0,0.7636,0.7891,0.8068,0.8068,0.8082,0.8306,0.877,0.934,0.996,1.0593,1.1681,1.2172,1.2019,1.2671,1.3003,1.3019,1.3211,1.3385,1.3502,1.3683,1.3773,1.3716,1.2651,1.2724,1.3506,1.3543,1.4077,1.487,1.5231,1.5592,1.5898,0.0,0.0,0.0,0.0,0.0,0.0,0.0,0.0,0.0,0.0,0.0,0.0,0.0,0.1928,0.1884,0.1928,0.2286,0.2553,0.2637,0.0,0.0,0.0,0.0,0.0,0.0,0.0,0.4083,0.4141,0.3812,0.3635,0.3626,0.2911,0.2579,0.2583,0.2106,0.1953,0.2016,0.1389,0.1106,0.117,0.149,0.1392,0.0,0.0,0.0,0.0,0.0,0.0,0.0,0.0,0.0,0.0,0.0,0.0,0.0,0.0,0.0,0.0,0.0,0.0,0.0,0.0,0.0,0.0,0.0,0.0,0.0,0.0,0.0,0.0,0.0,0.0,0.0,0.0,0.0,0.0,0.0,0.0,0.0,0.6599,0.7485,0.0,0.7747,0.8567,0.89,0.8359,0.8694,0.8895,0.8823,0.9005,0.9398,0.9938,1.016,1.0681,1.148,1.1897,1.2257,1.252,1.2832,1.308,1.3211,1.3346,1.3459,1.3511,1.3571,1.367,1.3747,1.3101,1.3286,1.3944,1.3934,1.4376,1.5109,1.5732,1.6073,1.6249,0.0,0.0,0.0,0.0,0.0,0.0,0.0,0.0,0.0,0.0,0.0,0.1861,0.2042,0.204,0.2061,0.2152,0.2551,0.2882,0.3056,0.0,0.0,0.0,0.0,0.0,0.0,0.449,0.4557,0.4691,0.4347,0.4134,0.4048,0.3437,0.3179,0.3218,0.2708,0.2628,0.2809,0.1905,0.157,0.1618,0.1954,0.1852,0.1574,0.0,0.0,0.0,0.0,0.0,0.0,0.0,0.0,0.0,0.0,0.0,0.0,0.0,0.0,0.0,0.0,0.0,0.0,0.0,0.0,0.0,0.0,0.0,0.0,0.0,0.0,0.0,0.0,0.0,0.0,0.0,0.0,0.0,0.0,0.0,0.6446,0.7094,0.764,0.803,0.8146,0.8869,0.916,0.8753,0.9207,0.947,0.9357,0.9579,0.993,1.0428,1.0661,1.1115,1.1865,1.2142,1.2442,1.2744,1.2928,1.308,1.3211,1.3346,1.3459,1.3511,1.3511,1.3571,1.3683,1.3411,1.3591,1.4096,1.4274,1.4616,1.5149,1.6115,1.6405,1.6392,0.0,0.0,0.0,0.0,0.0,0.0,0.0,0.0,0.0,0.0,0.2201,0.2201,0.2201,0.2397,0.2526,0.2526,0.2832,0.3142,0.3417,0.3735,0.0,0.0,0.0,0.0,0.4911,0.4706,0.4632,0.4733,0.4584,0.4394,0.4203,0.3784,0.356,0.3499,0.309,0.3093,0.3363,0.2826,0.2545,0.2447,0.2828,0.2795,0.2534,0.0,0.0,0.0,0.0,0.0,0.0,0.0,0.0,0.0,0.0,0.0,0.0,0.0,0.0,0.0,0.0,0.0,0.0,0.0,0.0,0.0,0.0,0.0,0.0,0.0,0.0,0.0,0.0,0.0,0.0,0.0,0.0,0.0,0.5996,0.6358,0.6827,0.7428,0.7745,0.7913,0.7913,0.8718,0.9111,0.8831,0.9379,0.9713,0.9713,0.9713,0.984,1.012,1.0769,1.1283,1.1622,1.2413,1.276,1.2621,1.2867,1.3019,1.3036,1.3211,1.3393,1.3545,1.3528,1.3528,1.3528,1.3536,1.3627,1.3846,1.4535,1.4851,1.5068,1.6328,1.6581,1.6353,0.0,0.0,0.0,0.0,0.0,0.0,0.0,0.0,0.0,0.0,0.2241,0.2306,0.2417,0.2682,0.2901,0.2993,0.3362,0.3709,0.4027,0.0,0.0,0.0,0.0,0.0,0.5332,0.4996,0.4956,0.5207,0.4727,0.4521,0.4546,0.3989,0.368,0.3555,0.3258,0.3075,0.3039,0.2937,0.2825,0.2684,0.2709,0.2579,0.2382,0.0,0.0,0.0,0.0,0.0,0.0,0.0,0.0,0.0,0.0,0.0,0.0,0.0,0.0,0.0,0.0,0.0,0.0,0.0,0.0,0.0,0.0,0.0,0.0,0.0,0.0,0.0,0.0,0.0,0.0,0.0,0.0,0.5955,0.5943,0.6482,0.7016,0.7392,0.7699,0.8029,0.8384,0.911,0.9469,0.9247,0.9807,1.0128,1.0128,1.0128,1.0354,1.0809,1.1473,1.1872,1.1972,1.2751,1.3064,1.2897,1.3119,1.3406,1.3774,1.3556,1.3797,1.4341,1.4059,1.3939,1.3956,1.4247,1.4056,1.3683,1.4526,1.5032,1.534,1.6034,1.6285,1.6324,0.0,0.0,0.0,0.0,0.0,0.0,0.0,0.0,0.0,0.0,0.2261,0.2346,0.2482,0.2904,0.3192,0.3284,0.3666,0.4059,0.436,0.0,0.0,0.0,0.0,0.5358,0.5673,0.5356,0.525,0.5345,0.4901,0.4679,0.4634,0.4119,0.3887,0.3835,0.3544,0.3367,0.3268,0.3219,0.3156,0.3034,0.2834,0.2596,0.2366,0.2538,0.2447,0.2284,0.2446,0.2595,0.2702,0.2898,0.0,0.0,0.0,0.0,0.0,0.0,0.0,0.0,0.0,0.0,0.0,0.0,0.0,0.0,0.0,0.0,0.0,0.0,0.0,0.0,0.0,0.0,0.0,0.0,0.5669,0.6013,0.605,0.6582,0.705,0.7333,0.7576,0.7952,0.8533,0.9088,0.947,0.9593,0.9954,1.0244,1.0434,1.0333,1.0519,1.1056,1.1754,1.2151,1.2253,1.2892,1.3284,1.3369,1.3229,1.354,1.4219,1.3728,1.3939,1.4658,1.4093,1.3947,1.4101,1.4161,1.3953,0.0,0.0,0.0,0.0,0.0,1.6253,1.6458,0.0,0.0,0.0,0.0,0.0,0.0,0.0,0.0,0.0,0.0,0.0,0.2393,0.2549,0.3084,0.3464,0.3464,0.3869,0.426,0.0,0.0,0.0,0.5756,0.5858,0.593,0.5977,0.5735,0.5527,0.5357,0.5051,0.4822,0.4626,0.4226,0.4088,0.4152,0.3876,0.3789,0.3812,0.3634,0.352,0.3403,0.3165,0.2791,0.2419,0.255,0.2427,0.2195,0.236,0.2592,0.2841,0.3101,0.0,0.0,0.0,0.0,0.0,0.0,0.0,0.0,0.0,0.0,0.0,0.0,0.0,0.0,0.0,0.0,0.0,0.0,0.0,0.0,0.0,0.0,0.0,0.0,0.5682,0.6037,0.6191,0.6571,0.6947,0.724,0.7402,0.7753,0.849,0.8841,0.9233,0.9803,0.9926,1.0149,1.0498,0.0,0.0,0.0,0.0,1.2274,1.2485,1.2931,1.3413,1.3826,1.3278,1.3507,1.4311,1.3752,1.3939,1.4649,1.3896,1.3776,1.4076,1.381,1.383,1.4131,1.5087,1.4885,1.4267,1.5613,1.6286,1.6588,0.0,0.0,0.0,0.0,0.0,0.0,0.0,0.0,0.0,0.2257,0.2484,0.2684,0.2879,0.3435,0.3792,0.3792,0.4082,0.4485,0.0,0.0,0.5705,0.6152,0.6115,0.6168,0.6374,0.5971,0.5758,0.5787,0.5178,0.4879,0.4836,0.4535,0.4286,0.4036,0.4091,0.4019,0.3901,0.3999,0.3885,0.3568,0.3435,0.3019,0.248,0.2516,0.231,0.2076,0.2448,0.2687,0.2928,0.3143,0.3384,0.3684,0.389,0.0,0.0,0.0,0.0,0.0,0.0,0.0,0.0,0.0,0.0,0.0,0.0,0.0,0.0,0.0,0.0,0.0,0.0,0.0,0.0,0.5259,0.5658,0.5889,0.5751,0.6185,0.6656,0.7079,0.7268,0.7606,0.8289,0.8755,0.9151,0.9468,0.98,1.0015,1.011,1.0238,1.0534,1.0982,1.1966,1.2501,1.2485,1.3289,1.3582,1.3405,0.0,0.0,1.4005,1.3663,1.3939,1.4658,1.4187,1.4024,1.4136,1.4667,1.5113,1.548,1.52,1.4967,1.4918,1.577,1.6088,1.6103,0.0,0.0,0.0,0.0,0.0,0.0,0.0,0.0,0.0,0.0,0.2726,0.297,0.2988,0.3417,0.3666,0.3607,0.4053,0.0,0.0,0.5702,0.6048,0.6488,0.6556,0.664,0.6708,0.6307,0.6105,0.6162,0.5433,0.5112,0.508,0.4831,0.4546,0.4249,0.4454,0.4409,0.4216,0.4418,0.4267,0.3903,0.3878,0.3441,0.2798,0.2661,0.2465,0.2301,0.2624,0.2866,0.3053,0.3389,0.3664,0.3914,0.4251,0.4348,0.437,0.0,0.0,0.0,0.0,0.0,0.0,0.0,0.0,0.0,0.0,0.0,0.0,0.0,0.0,0.4564,0.0,0.0,0.5103,0.527,0.5538,0.571,0.5712,0.5919,0.625,0.6707,0.705,0.7488,0.8144,0.861,0.9053,0.955,0.9787,1.0021,1.0276,1.0301,1.0534,1.0982,1.1856,1.2289,1.2248,1.3016,1.3372,1.3363,1.3158,1.3401,1.4045,1.3507,1.3697,1.4411,1.3815,1.3741,1.4135,1.4377,1.4863,1.5374,1.4995,1.5029,1.536,1.5998,1.6146,1.6188,0.0,0.0,0.0,0.0,0.0,0.0,0.0,0.0,0.0,0.0,0.2912,0.3166,0.3129,0.3348,0.3495,0.0,0.0,0.0,0.0,0.6031,0.6364,0.6642,0.6929,0.7052,0.6969,0.6651,0.6514,0.6527,0.5804,0.5426,0.5363,0.5089,0.4818,0.456,0.4781,0.479,0.4637,0.4769,0.4636,0.4314,0.4245,0.3838,0.3243,0.3002,0.2772,0.2607,0.2902,0.3133,0.3347,0.3719,0.3983,0.4201,0.4644,0.4755,0.4739,0.4828,0.4839,0.0,0.0,0.0,0.0,0.0,0.0,0.0,0.0,0.0,0.4281,0.4363,0.4617,0.4827,0.4899,0.5017,0.5182,0.5321,0.5453,0.5558,0.5716,0.5737,0.5901,0.6285,0.6725,0.7299,0.8041,0.8395,0.8895,0.9646,0.9804,1.0028,1.0434,1.0403,1.0534,1.0916,1.1592,1.1954,1.2017,1.2594,1.3032,1.3249,1.2948,1.3199,1.3908,1.3283,1.3341,1.3933,1.3372,1.3448,1.3999,1.3905,1.4262,1.4831,1.4747,1.5026,1.5585,1.6041,1.6215,1.6294,0.0,0.0,0.0,0.0,0.0,0.0,0.0,0.0,0.0,0.0,0.0,0.0,0.0,0.0,0.0,0.0,0.0,0.0,0.559,0.6097,0.6427,0.6509,0.6903,0.7127,0.7166,0.6951,0.6869,0.6927,0.6358,0.5914,0.5563,0.5367,0.5038,0.4695,0.4848,0.4959,0.5015,0.493,0.4852,0.4797,0.4381,0.4067,0.3868,0.3727,0.3325,0.2919,0.3297,0.3624,0.3931,0.4027,0.4266,0.4583,0.4943,0.4988,0.4945,0.523,0.0,0.4737,0.4822,0.4742,0.4679,0.4965,0.4697,0.4462,0.0,0.0,0.458,0.4935,0.4932,0.4986,0.5273,0.5442,0.5551,0.5551,0.5579,0.5557,0.5464,0.5554,0.5755,0.6088,0.6242,0.6799,0.8074,0.8188,0.8508,0.9302,0.9728,0.9958,0.9894,1.0308,1.0624,1.0718,1.1326,1.1776,1.201,1.2446,1.2655,1.2687,1.2742,1.2846,1.2958,1.2991,1.3061,1.3151,1.3413,1.3593,1.3693,1.3941,1.4346,1.4719,1.4712,1.4912,1.5292,1.5711,1.5929,1.6071,0.0,0.0,0.0,0.0,0.0,0.0,0.0,0.0,0.0,0.0,0.0,0.0,0.0,0.0,0.0,0.0,0.0,0.0,0.5756,0.6046,0.6385,0.6708,0.6925,0.71,0.7263,0.7166,0.7133,0.7163,0.6785,0.6512,0.6344,0.5991,0.5637,0.5361,0.5718,0.5838,0.5763,0.5965,0.5799,0.5343,0.5152,0.465,0.4016,0.4017,0.3827,0.3555,0.3719,0.388,0.0,0.0,0.4434,0.4615,0.4972,0.4995,0.4937,0.5166,0.5091,0.0,0.5014,0.4951,0.4901,0.0,0.4923,0.4879,0.4976,0.5011,0.5058,0.5128,0.5333,0.5452,0.5425,0.5455,0.5473,0.0,0.5322,0.5199,0.5234,0.5184,0.5275,0.5638,0.578,0.6345,0.7608,0.7998,0.8387,0.8962,0.9434,0.9722,0.9804,1.0085,1.0264,1.0283,1.0745,1.091,1.0824,1.1395,1.1689,1.1733,1.197,1.2212,1.2398,1.2467,1.249,1.2522,1.3075,1.3202,1.3036,1.3457,1.378,1.4069,1.3958,1.4328,1.4967,1.5465,1.565,1.5739,0.0,0.0,0.0,0.0,0.0,0.0,0.0,0.0,0.0,0.0,0.0,0.0,0.0,0.0,0.0,0.0,0.0,0.0,0.0,0.602,0.6298,0.6693,0.6887,0.6991,0.7068,0.7261,0.7327,0.729,0.7149,0.7031,0.6939,0.6566,0.6234,0.5932,0.6425,0.6528,0.6337,0.6726,0.648,0.5796,0.5718,0.5108,0.4241,0.422,0.416,0.4109,0.4119,0.4159,0.0,0.0,0.4587,0.472,0.4977,0.4999,0.4994,0.5116,0.5156,0.5147,0.514,0.0,0.0,0.5035,0.5084,0.5133,0.5046,0.5222,0.5387,0.5336,0.5558,0.5692,0.5521,0.5393,0.5366,0.5384,0.5132,0.4943,0.502,0.4883,0.487,0.5165,0.5295,0.5737,0.6742,0.7519,0.8153,0.8587,0.9075,0.9434,0.9574,0.983,0.9919,0.9849,1.0071,1.0072,0.9838,1.0308,1.0656,1.0926,1.118,1.1569,1.2096,1.2096,1.2096,1.2127,1.2716,1.2777,1.2494,1.303,1.3312,1.3375,1.3411,1.3839,1.4519,1.501,1.5284,1.5426,0.0,0.0,0.0,0.0,0.0,0.0,0.0,0.0,0.0,0.0,0.0,0.0,0.0,0.0,0.0,0.0,0.0,0.0,0.0,0.6018,0.6201,0.6218,0.666,0.6775,0.6524,0.7152,0.744,0.729,0.7419,0.7354,0.7085,0.6955,0.663,0.6205,0.6619,0.6717,0.6604,0.6798,0.6589,0.6057,0.5796,0.5359,0.4833,0.4365,0.4276,0.4395,0.4464,0.0,0.0,0.0,0.4807,0.5066,0.4938,0.5,0.0,0.5259,0.5283,0.0,0.0,0.0,0.5128,0.5267,0.52,0.511,0.5098,0.5268,0.5437,0.5559,0.5504,0.5483,0.5668,0.5435,0.5261,0.5392,0.5128,0.4906,0.4909,0.475,0.4634,0.4718,0.4726,0.4928,0.0,0.6639,0.7645,0.8183,0.8721,0.9017,0.9017,0.951,0.9734,0.9518,0.9469,0.9426,0.9413,0.9373,0.9722,1.0433,1.0486,1.1086,1.2096,1.2096,1.2096,1.2112,1.2464,1.2425,1.2158,1.2831,1.2981,1.2872,1.332,1.3642,1.3871,1.4292,1.474,1.5204,0.0,0.0,0.0,0.0,0.0,0.0,0.0,0.0,0.0,0.0,0.0,0.0,0.0,0.0,0.0,0.0,0.0,0.0,0.0,0.5531,0.5779,0.619,0.6278,0.6563,0.7087,0.7436,0.7649,0.7687,0.7559,0.7533,0.7628,0.7224,0.7079,0.7126,0.7312,0.7324,0.7215,0.7502,0.7225,0.6547,0.622,0.5678,0.4979,0.4566,0.447,0.4599,0.0,0.0,0.0,0.0,0.0,0.0,0.4604,0.0,0.0,0.4881,0.0,0.0,0.0,0.0,0.5434,0.5494,0.5566,0.5605,0.5468,0.5579,0.5707,0.5625,0.5608,0.5544,0.5343,0.5053,0.4842,0.4808,0.4445,0.4206,0.4297,0.4117,0.4072,0.4219,0.4419,0.0,0.0,0.0,0.0,0.7293,0.8032,0.8529,0.8662,0.8765,0.8915,0.9166,0.8851,0.877,0.8923,0.8747,0.9034,0.98,1.0314,1.0697,1.0983,1.1166,1.1177,1.1146,1.1777,1.2017,1.1943,1.2617,1.2734,1.251,1.299,1.3233,1.335,1.3508,1.3797,1.4198,0.0,0.0,0.0,0.0,0.0,0.0,0.0,0.0,0.0,0.0,0.0,0.0,0.0,0.0,0.0,0.0,0.0,0.0,0.0,0.0,0.5525,0.599,0.5986,0.6248,0.6894,0.7172,0.7422,0.7679,0.7526,0.758,0.7895,0.7393,0.7334,0.7638,0.7532,0.7466,0.7443,0.7692,0.7341,0.6593,0.6407,0.5826,0.5035,0.471,0.4606,0.0,0.0,0.0,0.0,0.0,0.0,0.0,0.0,0.0,0.0,0.0,0.0,0.0,0.0,0.5773,0.5691,0.5624,0.5689,0.5752,0.5585,0.5614,0.5675,0.5447,0.5414,0.5302,0.4941,0.4694,0.4477,0.4368,0.3963,0.3727,0.3907,0.3658,0.3556,0.3791,0.4151,0.4306,0.0,0.0,0.0,0.6542,0.72,0.7685,0.8001,0.816,0.8351,0.8555,0.8344,0.8273,0.8353,0.8039,0.8273,0.9128,1.013,1.0501,1.0286,1.0658,1.0744,1.0633,1.128,1.1514,1.1478,1.2087,1.2226,1.2087,1.2617,1.2833,1.2886,1.2904,1.2939,1.312,0.0,0.0,0.0,0.0,0.0,0.0,0.0,0.0,0.0,0.0,0.0,0.0,0.0,0.0,0.0,0.0,0.0,0.0,0.0,0.0,0.0,0.568,0.5821,0.5938,0.6042,0.6428,0.6843,0.7341,0.7304,0.7491,0.7895,0.7479,0.7433,0.7667,0.7267,0.716,0.7295,0.7328,0.6948,0.6333,0.6364,0.5849,0.5036,0.4782,0.0,0.0,0.0,0.0,0.0,0.0,0.0,0.0,0.0,0.0,0.0,0.0,0.0,0.5862,0.6265,0.6176,0.5884,0.5703,0.5618,0.5559,0.5417,0.5382,0.5341,0.512,0.5006,0.4816,0.0,0.0,0.419,0.4105,0.3714,0.3492,0.377,0.337,0.3135,0.0,0.0,0.0,0.0,0.0,0.0,0.5873,0.0,0.6584,0.7026,0.774,0.8011,0.7793,0.7957,0.7928,0.7694,0.7324,0.7568,0.8401,0.9827,1.0336,1.0036,1.0504,1.0669,1.0546,1.0888,1.0972,1.0848,1.1298,1.1539,1.1653,1.2225,1.245,1.2432,1.2445,1.2228,1.2057,0.0,0.0,0.0,0.0,0.0,0.0,0.0,0.0,0.0,0.0,0.0,0.0,0.0,0.0,0.0,0.0,0.0,0.0,0.0,0.0,0.0,0.0,0.0,0.0,0.0,0.0,0.0,0.0,0.0,0.7345,0.7889,0.7327,0.7275,0.7609,0.7003,0.683,0.6992,0.6854,0.6783,0.6709,0.0,0.5908,0.5658,0.0,0.0,0.0,0.0,0.0,0.0,0.0,0.0,0.0,0.0,0.0,0.5922,0.0,0.0,0.6769,0.723,0.6934,0.6469,0.6427,0.6013,0.5535,0.5238,0.5189,0.5148,0.4972,0.5003,0.4948,0.0,0.0,0.0,0.4018,0.368,0.0,0.3965,0.3601,0.0,0.3691,0.0,0.3783,0.3491,0.4039,0.0,0.0,0.5604,0.6292,0.6558,0.6769,0.7083,0.7552,0.7226,0.7177,0.7405,0.7588,0.7883,0.8248,0.9025,0.9322,0.9153,0.9552,0.9679,0.9586,1.0236,1.0675,1.0954,1.1093,1.1243,1.1407,1.1895,1.1764,1.1409,1.1607,1.1594,1.1473,0.0,0.0,0.0,0.0,0.0,0.0,0.0,0.0,0.0,0.0,0.0,0.0,0.0,0.0,0.0,0.0,0.0,0.0,0.0,0.0,0.0,0.0,0.0,0.0,0.0,0.0,0.0,0.0,0.0,0.0,0.0,0.7376,0.7382,0.7701,0.6934,0.6793,0.7111,0.7012,0.0,0.0,0.0,0.0,0.0,0.0,0.0,0.0,0.0,0.0,0.0,0.0,0.0,0.6312,0.6603,0.666,0.674,0.748,0.0,0.7414,0.7944,0.7625,0.704,0.6673,0.6226,0.5764,0.5321,0.5223,0.5239,0.5206,0.5272,0.0,0.4611,0.0,0.0,0.0,0.0,0.0,0.3954,0.3564,0.3376,0.0,0.3951,0.0,0.3655,0.4104,0.4326,0.0,0.4953,0.5596,0.581,0.6121,0.6417,0.6728,0.6743,0.6921,0.7302,0.7695,0.8064,0.8374,0.8738,0.8891,0.8903,0.9052,0.9157,0.919,0.0,1.025,1.0575,1.0575,1.0737,1.1011,1.1208,1.1113,1.0877,1.0975,1.1035,1.1021,0.0,0.0,0.0,0.0,0.0,0.0,0.0,0.0,0.0,0.0,0.0,0.0,0.0,0.0,0.0,0.0,0.0,0.0,0.0,0.0,0.0,0.0,0.0,0.0,0.0,0.0,0.0,0.0,0.0,0.0,0.0,0.0,0.0,0.0,0.0,0.0,0.0,0.0,0.0,0.0,0.0,0.0,0.0,0.0,0.0,0.0,0.0,0.0,0.0,0.0,0.7548,0.7585,0.7456,0.7511,0.7752,0.8501,0.8315,0.8034,0.8592,0.8286,0.7576,0.6782,0.6392,0.6095,0.5563,0.543,0.5441,0.5554,0.0,0.5393,0.4653,0.459,0.4453,0.3906,0.0,0.3582,0.3985,0.3507,0.333,0.3869,0.4138,0.4162,0.3908,0.4453,0.4624,0.4092,0.4469,0.4803,0.5014,0.5631,0.5897,0.5782,0.644,0.6926,0.7214,0.7658,0.8117,0.8553,0.8679,0.8791,0.8888,0.8775,0.879,0.8999,0.9419,0.9742,0.9933,0.9939,1.0142,1.0493,1.0457,1.048,1.0548,1.0487,1.0507,1.0601,0.0,0.0,0.0,0.0,0.0,0.0,0.0,0.0,0.0,0.0,0.3494,0.349,0.0,0.0,0.0,0.0,0.0,0.0,0.0,0.0,0.0,0.0,0.0,0.0,0.0,0.0,0.0,0.0,0.0,0.0,0.0,0.0,0.0,0.0,0.0,0.0,0.0,0.0,0.0,0.0,0.0,0.0,0.0,0.0,0.0,0.0,0.0,0.0,0.0,0.0,0.7591,0.8131,0.844,0.8383,0.837,0.9069,0.9109,0.9032,0.9468,0.8854,0.8018,0.7568,0.693,0.6222,0.5675,0.557,0.0,0.0,0.5559,0.5523,0.4735,0.4738,0.4742,0.4404,0.0,0.0,0.0,0.0,0.3819,0.0,0.0,0.0,0.0,0.0,0.0,0.0,0.4658,0.4786,0.4622,0.5041,0.5376,0.5622,0.6328,0.6758,0.681,0.7524,0.8017,0.8275,0.8295,0.832,0.8329,0.825,0.8232,0.8316,0.8945,0.0,0.9494,0.9578,0.974,0.9957,1.0168,1.0032,0.9736,1.012,1.0189,1.0174,0.0,0.0,0.0,0.0,0.0,0.0,0.0,0.337,0.3396,0.3486,0.3495,0.3544,0.37,0.3753,0.388,0.0,0.0,0.0,0.0,0.0,0.0,0.0,0.0,0.0,0.0,0.0,0.0,0.0,0.0,0.0,0.0,0.0,0.0,0.0,0.0,0.0,0.0,0.0,0.0,0.0,0.0,0.0,0.0,0.0,0.0,0.0,0.0,0.0,0.0,0.0,0.7672,0.8279,0.8405,0.8425,0.847,0.8855,0.9099,0.9221,0.9377,0.9047,0.8441,0.7711,0.7111,0.6518,0.5925,0.0,0.0,0.0,0.5782,0.5698,0.5072,0.4948,0.0,0.0,0.0,0.0,0.0,0.0,0.0,0.0,0.0,0.0,0.0,0.4165,0.425,0.4253,0.4559,0.477,0.4811,0.4987,0.5344,0.59,0.6179,0.6616,0.7214,0.761,0.8043,0.8513,0.8301,0.8248,0.8301,0.8027,0.7993,0.8231,0.8616,0.9035,0.9395,0.9459,0.9676,0.9919,0.9997,0.9876,0.9675,0.9937,1.0033,1.0047,0.0,0.0,0.0,0.0,0.0,0.0,0.0,0.3446,0.3357,0.3466,0.3542,0.3658,0.3781,0.3772,0.3802,0.0,0.0,0.0,0.0,0.0,0.0,0.0,0.0,0.0,0.0,0.0,0.0,0.0,0.0,0.0,0.0,0.0,0.0,0.0,0.0,0.0,0.0,0.0,0.0,0.0,0.0,0.0,0.0,0.0,0.0,0.0,0.0,0.0,0.0,0.0,0.7535,0.7937,0.7874,0.8054,0.8343,0.8502,0.8769,0.8997,0.9023,0.8951,0.8629,0.7673,0.715,0.6736,0.6211,0.5946,0.0,0.0,0.6,0.586,0.5396,0.0,0.4901,0.0,0.4457,0.0,0.0,0.0,0.0,0.0,0.0,0.0,0.0,0.4187,0.0,0.4127,0.4472,0.4843,0.5191,0.5198,0.5471,0.6146,0.6196,0.6674,0.7563,0.7691,0.8043,0.8606,0.8285,0.8207,0.8332,0.7913,0.7922,0.8219,0.8462,0.8801,0.9223,0.9472,0.9734,1.0008,1.0001,0.9958,0.9925,1.0007,1.0108,1.0238,0.0,0.0,0.0,0.0,0.0,0.0,0.0,0.3469,0.3489,0.3738,0.3672,0.3642,0.3773,0.3836,0.3928,0.0,0.0,0.0,0.0,0.0,0.0,0.0,0.0,0.0,0.0,0.0,0.0,0.0,0.0,0.0,0.0,0.0,0.0,0.0,0.0,0.0,0.0,0.0,0.0,0.0,0.0,0.0,0.0,0.0,0.0,0.0,0.0,0.0,0.0,0.0,0.0,0.6871,0.6978,0.7486,0.8087,0.8339,0.0,0.0,0.873,0.8599,0.8221,0.7652,0.7111,0.6648,0.6418,0.0,0.0,0.5991,0.6,0.586,0.5383,0.4989,0.4735,0.0,0.0,0.4056,0.0,0.0,0.0,0.0,0.0,0.0,0.0,0.4216,0.0,0.4194,0.4666,0.5149,0.5546,0.5487,0.5628,0.5996,0.6652,0.7058,0.7166,0.765,0.7911,0.7987,0.7936,0.8005,0.8113,0.7965,0.7907,0.7964,0.8453,0.864,0.0,0.9431,0.9862,1.0021,1.0206,1.0263,1.0276,1.0461,1.0613,1.0839,0.0,0.0,0.0,0.0,0.0,0.0,0.3678,0.361,0.3589,0.3783,0.3747,0.374,0.3788,0.3866,0.3927,0.3972,0.0,0.0,0.0,0.0,0.0,0.0,0.0,0.0,0.0,0.0,0.0,0.0,0.0,0.0,0.0,0.0,0.0,0.0,0.0,0.0,0.0,0.0,0.0,0.0,0.0,0.0,0.0,0.0,0.0,0.0,0.0,0.0,0.0,0.0,0.0,0.0,0.6818,0.699,0.0,0.0,0.7941,0.8367,0.8084,0.8161,0.8101,0.7327,0.6969,0.6694,0.6159,0.0,0.5965,0.5751,0.5788,0.5792,0.5528,0.5084,0.4812,0.0,0.0,0.0,0.0,0.0,0.0,0.0,0.0,0.0,0.0,0.0,0.4394,0.4606,0.4863,0.5292,0.5923,0.5754,0.5896,0.6517,0.6837,0.7182,0.7584,0.7703,0.8012,0.8443,0.8152,0.8158,0.8404,0.8344,0.8309,0.8334,0.8726,0.8886,0.0,0.9544,0.9862,1.0034,1.0264,1.0322,1.0359,1.0813,1.0926,1.1021,0.0,0.0,0.0,0.0,0.0,0.3536,0.3768,0.3714,0.3694,0.3785,0.3844,0.3853,0.3813,0.3864,0.3931,0.4039,0.414,0.0,0.0,0.0,0.0,0.0,0.0,0.0,0.0,0.0,0.0,0.0,0.0,0.0,0.0,0.0,0.0,0.0,0.0,0.0,0.0,0.0,0.0,0.0,0.0,0.0,0.0,0.0,0.0,0.0,0.0,0.0,0.0,0.0,0.0,0.0,0.0,0.0,0.0,0.0,0.7529,0.806,0.7624,0.7704,0.7751,0.6988,0.6702,0.6483,0.0,0.0,0.5942,0.5664,0.5681,0.5709,0.5622,0.5129,0.4808,0.0,0.0,0.4504,0.4504,0.0,0.0,0.0,0.0,0.0,0.0,0.471,0.4763,0.5201,0.5149,0.5405,0.616,0.6047,0.6267,0.6897,0.7015,0.7343,0.791,0.7732,0.7974,0.8586,0.8213,0.8251,0.8664,0.8672,0.8685,0.8738,0.8955,0.9087,0.0,0.9666,0.9989,1.0197,1.0548,1.0703,1.0796,1.1297,1.1489,1.1632,0.0,0.0,0.0,0.0,0.0,0.0,0.3771,0.3796,0.3789,0.3792,0.3917,0.3952,0.3808,0.3863,0.4047,0.4369,0.446,0.0,0.0,0.0,0.0,0.0,0.0,0.0,0.0,0.0,0.0,0.7689,0.0,0.0,0.0,0.0,0.0,0.0,0.0,0.0,0.0,0.0,0.0,0.0,0.0,0.0,0.0,0.0,0.0,0.0,0.0,0.0,0.0,0.0,0.0,0.0,0.0,0.0,0.0,0.0,0.7148,0.7161,0.7425,0.7259,0.6945,0.6684,0.6244,0.5924,0.0,0.0,0.5834,0.5889,0.573,0.5595,0.5595,0.5056,0.4639,0.4779,0.0,0.0,0.4504,0.0,0.0,0.0,0.0,0.0,0.6035,0.5599,0.5475,0.5953,0.5567,0.0,0.6162,0.6451,0.6715,0.6985,0.731,0.7628,0.7901,0.7623,0.7699,0.8118,0.7973,0.8228,0.8802,0.8801,0.8883,0.9002,0.9139,0.9121,0.0,0.9784,1.0302,1.0632,1.1126,1.149,1.1809,1.2003,1.239,1.2803,0.0,0.0,0.0,0.0,0.0,0.0,0.0,0.3722,0.3767,0.3849,0.3907,0.3958,0.4065,0.4171,0.4283,0.4384,0.4502,0.0,0.0,0.0,0.0,0.0,0.0,0.0,0.0,0.0,0.7401,0.7152,0.7857,0.817,0.0,0.0,0.0,0.0,0.0,0.0,0.0,0.0,0.0,0.0,0.0,0.0,0.0,0.0,0.0,0.0,0.0,0.0,0.0,0.0,0.0,0.0,0.0,0.0,0.0,0.0,0.0,0.0,0.7151,0.7046,0.6895,0.6431,0.6137,0.5888,0.5583,0.0,0.5805,0.5824,0.57,0.5589,0.5536,0.5069,0.4762,0.5017,0.4973,0.0,0.0,0.0,0.0,0.0,0.0,0.0,0.0,0.0,0.6151,0.6204,0.6076,0.6057,0.6193,0.6486,0.68,0.7056,0.7347,0.7709,0.8115,0.7606,0.768,0.8307,0.8021,0.8107,0.8527,0.8897,0.9113,0.9153,0.937,0.9446,0.9446,0.9762,1.0158,1.0566,1.0814,1.1227,1.1789,1.2148,1.2562,1.3009,0.0,0.0,0.0,0.0,0.0,0.0,0.0,0.3772,0.3825,0.389,0.399,0.4066,0.4149,0.4396,0.4564,0.4595,0.4911,0.0,0.0,0.0,0.0,0.0,0.0,0.0,0.0,0.7169,0.7343,0.7008,0.7496,0.7696,0.7635,0.7492,0.7676,0.0,0.0,0.0,0.0,0.0,0.0,0.0,0.0,0.0,0.764,0.0,0.0,0.0,0.0,0.0,0.0,0.0,0.0,0.0,0.0,0.0,0.0,0.0,0.0,0.0,0.0,0.6776,0.6526,0.6168,0.5975,0.0,0.0,0.0,0.5795,0.5738,0.5658,0.5588,0.5582,0.5219,0.502,0.5344,0.5269,0.0,0.0,0.0,0.0,0.0,0.0,0.0,0.0,0.7105,0.6922,0.6831,0.6704,0.6577,0.6462,0.6764,0.6997,0.717,0.7345,0.7703,0.8274,0.7736,0.7847,0.8633,0.8261,0.8239,0.852,0.885,0.9088,0.9211,0.943,0.9546,0.0,0.9827,1.0179,1.0623,1.1069,1.161,1.2188,1.2576,1.2945,1.3348,0.0,0.0,0.0,0.0,0.0,0.0,0.0,0.385,0.3961,0.3924,0.4123,0.4249,0.4151,0.458,0.4867,0.4914,0.0,0.0,0.0,0.0,0.0,0.0,0.0,0.0,0.0,0.7014,0.7217,0.7158,0.7359,0.7385,0.7212,0.7267,0.7405,0.7629,0.7511,0.748,0.7499,0.7777,0.8005,0.8156,0.7911,0.7873,0.0,0.0,0.0,0.0,0.0,0.0,0.0,0.0,0.0,0.0,0.0,0.0,0.0,0.0,0.0,0.0,0.0,0.0,0.0,0.0,0.0,0.0,0.0,0.0,0.0,0.5646,0.5619,0.5642,0.5667,0.5478,0.5392,0.5624,0.0,0.0,0.0,0.0,0.0,0.0,0.0,0.0,0.8435,0.8023,0.7753,0.774,0.7426,0.7146,0.6956,0.7185,0.7308,0.7292,0.7298,0.7661,0.8395,0.7946,0.8152,0.8974,0.8579,0.8486,0.8665,0.8689,0.887,0.0,0.9333,0.9505,0.9684,1.0012,1.0388,1.0856,1.1751,1.2439,1.292,1.3139,1.3473,1.3844,0.0,0.0,0.0,0.0,0.0,0.0,0.0,0.0,0.0,0.0,0.4117,0.4281,0.4597,0.5048,0.5311,0.0,0.0,0.0,0.0,0.0,0.0,0.0,0.0,0.0,0.0,0.6655,0.6749,0.675,0.6945,0.717,0.7416,0.7232,0.7398,0.7821,0.7391,0.724,0.7367,0.7629,0.7849,0.803,0.7866,0.7784,0.0,0.0,0.0,0.0,0.6792,0.6765,0.0,0.0,0.0,0.0,0.0,0.0,0.0,0.0,0.6404,0.0,0.6245,0.0,0.6044,0.6237,0.5918,0.5561,0.0,0.0,0.0,0.0,0.0,0.0,0.0,0.0,0.0,0.0,0.0,0.0,0.0,0.0,0.0,0.0,0.0,0.881,0.879,0.8455,0.8188,0.8085,0.7878,0.7607,0.7293,0.7391,0.739,0.7233,0.7316,0.7738,0.8475,0.8054,0.8182,0.8836,0.848,0.8351,0.8399,0.8488,0.8725,0.9063,0.9302,0.9708,1.0221,1.0354,1.0822,1.1498,1.1936,1.2461,1.3,1.3139,1.3696,1.4269,0.0,0.0,0.0,0.0,0.0,0.0,0.0,0.0,0.0,0.0,0.0,0.0,0.0,0.0,0.0,0.0,0.0,0.0,0.0,0.0,0.0,0.0,0.0,0.0,0.6396,0.6749,0.6865,0.6773,0.681,0.6893,0.7095,0.6978,0.7102,0.7425,0.7146,0.7112,0.7315,0.7655,0.7817,0.7862,0.7789,0.0,0.0,0.0,0.0,0.0,0.6603,0.6603,0.0,0.6416,0.6255,0.6198,0.0,0.0,0.0,0.0,0.6101,0.5985,0.5992,0.5943,0.5895,0.6035,0.5823,0.5609,0.568,0.0,0.0,0.0,0.0,0.0,0.0,0.0,0.0,0.0,0.5827,0.0,0.0,0.0,0.0,0.0,0.0,0.8785,0.0,0.8708,0.8545,0.8319,0.8126,0.7899,0.7566,0.751,0.744,0.7349,0.7405,0.7722,0.8268,0.8,0.8116,0.866,0.8419,0.8248,0.816,0.8245,0.86,0.9144,0.936,0.9923,1.0713,1.0763,1.115,1.1738,1.1991,1.2458,1.2994,1.324,1.3607,1.3941,0.0,0.0,0.0,0.0,0.0,0.0,0.0,0.0,0.0,0.0,0.0,0.0,0.0,0.0,0.0,0.0,0.0,0.0,0.0,0.0,0.0,0.0,0.0,0.653,0.6426,0.694,0.7158,0.7089,0.6895,0.6804,0.6842,0.6869,0.6907,0.6955,0.6975,0.7132,0.738,0.7722,0.7874,0.785,0.7825,0.0,0.0,0.0,0.0,0.0,0.0,0.0,0.0,0.6313,0.6276,0.6325,0.6089,0.0,0.0,0.0,0.0,0.0,0.5916,0.5825,0.5712,0.5766,0.575,0.5717,0.5717,0.0,0.0,0.0,0.0,0.0,0.0,0.5722,0.0,0.0,0.0,0.0,0.0,0.0,0.0,0.0,0.0,0.0,0.8772,0.8842,0.8769,0.8475,0.8311,0.8085,0.7774,0.7635,0.7544,0.7523,0.7523,0.7673,0.799,0.7893,0.8077,0.8522,0.8362,0.8183,0.8032,0.8026,0.8506,0.9319,0.0,0.0,1.1215,1.12,1.1444,1.1888,1.212,1.2507,1.2969,1.3343,1.3446,1.3471,0.0,0.0,0.0,0.0,0.0,0.0,0.0,0.0,0.0,0.0,0.0,0.0,0.0,0.0,0.0,0.0,0.0,0.0,0.0,0.0,0.0,0.0,0.6328,0.6252,0.657,0.6654,0.694,0.7433,0.7276,0.7465,0.795,0.7784,0.7543,0.7241,0.7356,0.7498,0.7654,0.77,0.808,0.8619,0.8371,0.0,0.0,0.0,0.0,0.0,0.0,0.0,0.0,0.6249,0.6206,0.6206,0.604,0.0,0.0,0.0,0.0,0.0,0.5744,0.5728,0.5772,0.6045,0.5952,0.5793,0.5793,0.0,0.0,0.0,0.0,0.0,0.0,0.5696,0.0,0.0,0.0,0.0,0.0,0.0,0.0,0.9253,0.0,0.8933,0.9116,0.8984,0.883,0.8663,0.8475,0.8242,0.7966,0.7884,0.7787,0.767,0.767,0.7754,0.7903,0.8055,0.8318,0.8654,0.8361,0.8201,0.8172,0.8172,0.858,0.9322,0.0,1.0635,1.1775,1.1635,1.1977,1.2567,1.2721,1.2905,1.3096,1.3265,1.3528,1.3883,0.0,0.0,0.0,0.0,0.0,0.0,0.0,0.0,0.0,0.0,0.0,0.0,0.0,0.0,0.0,0.0,0.0,0.0,0.0,0.0,0.0,0.71,0.6929,0.6833,0.688,0.7148,0.7331,0.74,0.7447,0.7622,0.7913,0.7765,0.7586,0.7416,0.747,0.7622,0.781,0.7882,0.8104,0.8397,0.0,0.0,0.0,0.0,0.0,0.0,0.0,0.0,0.0,0.0,0.6249,0.6276,0.6062,0.0,0.0,0.0,0.0,0.0,0.5717,0.5717,0.5782,0.5941,0.5897,0.5814,0.5884,0.5906,0.0,0.0,0.0,0.0,0.0,0.0,0.0,0.0,0.0,0.0,0.0,0.8098,0.8427,0.0,0.0,0.89,0.9179,0.9044,0.8883,0.8724,0.8508,0.8283,0.8021,0.7925,0.7836,0.7691,0.7774,0.7899,0.8064,0.8225,0.8292,0.8268,0.8033,0.8024,0.8187,0.8203,0.8858,1.0017,0.0,1.1094,1.2311,1.2199,1.2357,1.2695,1.2688,1.273,1.2808,1.3164,1.3811,1.4537,0.0,0.0,0.0,0.0,0.0,0.0,0.0,0.0,0.0,0.0,0.0,0.0,0.0,0.0,0.0,0.0,0.0,0.0,0.0,0.0,0.7533,0.7582,0.7725,0.7632,0.7259,0.7679,0.7782,0.7518,0.762,0.7718,0.782,0.7647,0.7557,0.7499,0.7397,0.7521,0.7823,0.7905,0.8048,0.8165,0.0,0.0,0.0,0.0,0.0,0.0,0.0,0.0,0.0,0.0,0.0,0.0,0.0,0.0,0.0,0.5884,0.5814,0.5777,0.5804,0.5863,0.5922,0.6029,0.0,0.5857,0.5927,0.5997,0.0,0.0,0.0,0.0,0.0,0.0,0.0,0.0,0.0,0.7174,0.7968,0.805,0.8301,0.9069,0.8948,0.8912,0.9171,0.9116,0.8947,0.8675,0.8549,0.8324,0.7987,0.7974,0.7899,0.7719,0.7795,0.7944,0.8132,0.8193,0.8184,0.8077,0.7899,0.8002,0.8311,0.8324,0.9173,1.0606,1.0687,1.1496,1.2686,1.2554,1.2603,1.2725,1.2603,1.2611,1.2744,1.3256,1.4077,1.498,0.0,0.0,0.0,0.0,0.0,0.0,0.0,0.0,0.0,0.0,0.0,0.0,0.0,0.0,0.0,0.0,0.0,0.0,0.0,0.0,0.8593,0.842,0.8592,0.8378,0.7683,0.7816,0.799,0.8139,0.7972,0.7978,0.8157,0.789,0.7666,0.7475,0.7122,0.7153,0.7541,0.753,0.7866,0.8389,0.8521,0.0,0.0,0.0,0.0,0.0,0.0,0.0,0.0,0.0,0.0,0.0,0.0,0.0,0.5997,0.0,0.5847,0.5766,0.6077,0.6163,0.627,0.6717,0.6404,0.0,0.5836,0.6007,0.0,0.5761,0.0,0.0,0.0,0.0,0.0,0.0,0.0,0.7729,0.8527,0.0,0.8688,0.9546,0.9357,0.9171,0.9197,0.9248,0.9059,0.8553,0.8614,0.8459,0.7933,0.8085,0.803,0.7719,0.7719,0.7789,0.7927,0.7811,0.8047,0.8635,0.8304,0.8345,0.8663,0.8728,0.9431,1.0629,1.099,1.1731,1.2686,1.2554,1.2652,1.2881,1.2735,1.2916,1.3276,1.3688,1.4276,1.4869,0.0,0.0,0.0,0.0,0.0,0.0,0.0,0.0,0.0,0.0,0.0,0.0,0.0,0.0,0.0,0.0,0.0,0.0,0.0,0.0,0.8852,0.8695,0.8851,0.8716,0.827,0.8306,0.8259,0.8069,0.816,0.8154,0.8062,0.8006,0.7738,0.7258,0.7344,0.7338,0.7277,0.7559,0.7879,0.8184,0.8377,0.8326,0.0,0.0,0.0,0.0,0.0,0.0,0.0,0.0,0.6255,0.0,0.0,0.0,0.0,0.0,0.0,0.6153,0.6184,0.6419,0.6675,0.6851,0.6816,0.0,0.0,0.6689,0.6605,0.627,0.6435,0.0,0.0,0.0,0.0,0.0,0.0,0.7885,0.8662,0.8848,0.9116,0.9693,0.9656,0.9605,0.9684,0.9527,0.9299,0.9019,0.8895,0.872,0.8467,0.8373,0.8345,0.839,0.8063,0.8065,0.8452,0.8248,0.8446,0.906,0.8559,0.865,0.927,0.9381,0.9991,1.0983,1.1215,1.1732,1.2388,1.2343,1.2503,1.2782,1.286,1.316,1.3576,1.3801,1.4393,1.5101,0.0,0.0,0.0,0.0,0.0,0.0,0.0,0.0,0.0,0.0,0.0,0.0,0.0,0.0,0.0,0.0,0.0,0.0,0.0,0.9035,0.9004,0.8728,0.8878,0.8823,0.8501,0.8555,0.8442,0.8191,0.841,0.8358,0.803,0.8175,0.7968,0.7423,0.7641,0.7591,0.7367,0.7638,0.7854,0.7999,0.8294,0.8352,0.0,0.0,0.0,0.0,0.0,0.0,0.0,0.0,0.0,0.0,0.0,0.0,0.0,0.0,0.0,0.0,0.6583,0.6838,0.7118,0.0,0.0,0.0,0.7621,0.7321,0.7,0.6789,0.6852,0.0,0.0,0.0,0.0,0.0,0.8013,0.8341,0.8961,0.9239,0.9516,0.9853,0.9951,0.9971,0.9941,0.9774,0.9547,0.9288,0.9116,0.8964,0.8773,0.8659,0.8602,0.8641,0.8389,0.8339,0.8513,0.8638,0.8862,0.9237,0.8977,0.9167,0.9766,0.9776,1.0309,1.1206,1.1348,1.1695,1.2189,1.2189,1.2391,1.2746,1.3108,1.3452,1.3749,1.4152,1.4723,1.5333,0.0,0.0,0.0,0.0,0.0,0.0,0.0,0.0,0.0,0.0,0.0,0.0,0.0,0.0,0.0,0.0,0.0,0.0,0.8982,0.923,0.9134,0.8535,0.8752,0.8724,0.8301,0.8424,0.8523,0.86,0.8745,0.8573,0.8118,0.8464,0.8431,0.8089,0.7899,0.7845,0.7896,0.7767,0.7791,0.7923,0.827,0.8493,0.86,0.0,0.0,0.0,0.0,0.0,0.0,0.0,0.0,0.0,0.0,0.0,0.0,0.0,0.6498,0.6647,0.7314,0.7502,0.0,0.0,0.0,0.0,0.85,0.7827,0.7245,0.7307,0.0,0.7586,0.785,0.0,0.0,0.8285,0.8687,0.9148,0.954,0.9725,0.9882,1.0079,1.0293,1.0254,0.9842,0.9921,0.9783,0.9237,0.9268,0.9119,0.8736,0.8886,0.8785,0.8335,0.8635,0.8509,0.7923,0.8831,0.9225,0.9113,0.9576,0.9919,1.0098,0.9903,1.032,1.1206,1.1338,1.1695,1.2211,1.2221,1.2401,1.2777,1.3511,1.376,1.3818,1.4824,1.5282,1.5546,0.0,0.0,0.0,0.0,0.0,0.0,0.0,0.0,0.0,0.0,0.0,0.0,0.0,0.0,0.0,0.0,0.0,0.0,0.0,0.8887,0.8979,0.9253,0.903,0.8873,0.8787,0.864,0.8638,0.8745,0.8877,0.8856,0.8742,0.8923,0.8698,0.8102,0.8282,0.8092,0.7645,0.8036,0.8214,0.8288,0.8565,0.8705,0.8738,0.0,0.0,0.0,0.0,0.0,0.0,0.0,0.0,0.0,0.0,0.0,0.0,0.0,0.688,0.7181,0.744,0.0,0.0,0.8126,0.0,0.0,0.0,0.8451,0.0,0.0,0.0,0.7726,0.8236,0.0,0.0,0.8844,0.9168,0.9527,1.002,1.0176,1.0312,1.0563,1.064,1.0602,1.037,1.0264,1.0088,0.9783,0.9645,0.9545,0.9477,0.9388,0.9473,0.9704,0.9032,0.8882,0.938,0.8997,0.9066,0.9596,0.9832,1.0123,1.0448,1.0428,1.072,1.1202,1.1339,1.1691,1.2261,1.2861,1.3168,1.3324,1.4035,1.4289,1.4336,1.506,1.5514,1.5834,0.0,0.0,0.0,0.0,0.0,0.0,0.0,0.0,0.0,0.0,0.0,0.0,0.0,0.0,0.0,0.0,0.0,0.0,0.0,0.0,0.8966,0.922,0.9016,0.8866,0.8799,0.8731,0.8753,0.8883,0.8885,0.8901,0.8933,0.9113,0.8941,0.8466,0.878,0.8539,0.7914,0.8239,0.8323,0.8288,0.8459,0.8623,0.8804,0.0,0.0,0.0,0.0,0.0,0.0,0.0,0.0,0.0,0.0,0.0,0.0,0.7147,0.7419,0.7676,0.7855,0.0,0.0,0.8311,0.8549,0.8814,0.8918,0.0,0.0,0.0,0.0,0.8329,0.8642,0.8709,0.0,0.9361,0.9686,1.0011,1.0467,1.0582,1.0697,1.0918,1.0966,1.0899,1.0725,1.0544,1.0341,1.0137,0.9921,0.9852,0.9912,0.9784,0.9827,1.0133,0.9604,0.9481,0.98,0.9606,0.9646,0.9921,1.0193,1.0443,1.0678,1.0745,1.0926,1.1214,1.1567,1.1901,1.2267,1.3195,1.353,1.3504,1.4278,1.4513,1.4512,1.5357,1.593,1.6332,0.0,0.0,0.0,0.0,0.0,0.0,0.0,0.0,0.0,0.0,0.0,0.0,0.0,0.0,0.0,0.0,0.0,0.0,0.0,0.0,0.8971,0.8748,0.8831,0.8749,0.8507,0.8676,0.8856,0.9008,0.883,0.8777,0.8806,0.9097,0.915,0.9,0.9288,0.9087,0.8499,0.8417,0.8299,0.8136,0.8163,0.8418,0.8731,0.8784,0.0,0.0,0.0,0.0,0.0,0.0,0.0,0.0,0.0,0.0,0.7538,0.7897,0.8021,0.8103,0.8419,0.0,0.0,0.848,0.87,0.0,0.9248,0.0,0.9157,0.8923,0.0,0.9173,0.9096,0.9399,0.9716,0.9833,1.0176,1.0534,1.084,1.0926,1.1012,1.1204,1.1223,1.1136,1.0935,1.0717,1.0525,1.0322,1.0117,1.003,1.0098,1.0059,1.0002,0.9971,1.0227,1.0141,0.9626,1.0427,1.0606,1.0174,1.06,1.0803,1.0803,1.0869,1.1052,1.1327,1.1971,1.2298,1.2418,1.3368,1.3606,1.3467,1.44,1.458,1.4493,1.5701,1.6391,1.6831,0.0,0.0,0.0,0.0,0.0,0.0,0.0,0.0,0.0,0.0,0.0,0.0,0.0,0.0,0.0,0.0,0.0,0.0,0.0,0.0,0.8351,0.9066,0.8806,0.8607,0.8507,0.86,0.8801,0.9159,0.9115,0.9013,0.8898,0.9326,0.9255,0.8785,0.9315,0.922,0.8676,0.8965,0.8825,0.845,0.8754,0.8627,0.8282,0.8607,0.8517,0.0,0.0,0.0,0.0,0.0,0.0,0.0,0.7188,0.7551,0.8023,0.8,0.8185,0.0,0.0,0.8447,0.0,0.0,0.87,0.8972,0.9248,0.9359,0.9448,0.9495,0.9398,0.9355,0.9581,0.9495,0.9554,1.0089,1.039,1.064,1.0859,1.1136,1.1309,1.1346,1.1365,1.126,1.101,1.0745,1.0525,1.0322,1.0166,1.0088,1.0098,1.0235,1.036,1.0461,1.0266,1.0299,1.0592,1.0427,1.045,1.0651,1.081,1.0852,1.0803,1.0869,1.1278,1.1944,1.251,1.2987,1.3423,1.3889,1.4059,1.4075,1.4803,1.49,1.4779,1.6033,1.6471,1.6531,0.0,0.0,0.0,0.0,0.0,0.0,0.0,0.0,0.0,0.0,0.0,0.0,0.0,0.0,0.0,0.0,0.0,0.0,0.0,0.0,0.0,0.8776,0.8808,0.8776,0.8743,0.8607,0.874,0.9154,0.9089,0.0,0.0,0.0,0.0,0.8762,0.9135,0.9041,0.8579,0.8805,0.8682,0.8336,0.8603,0.852,0.8268,0.8476,0.8458,0.8339,0.8404,0.0,0.0,0.0,0.0,0.0,0.0,0.0,0.8365,0.8459,0.8582,0.0,0.0,0.0,0.0,0.8704,0.0,0.0,0.9437,0.9576,0.9715,0.9941,0.9742,0.96,0.9864,0.9687,0.971,1.0368,1.0552,1.0732,1.1132,1.1392,1.1533,1.1533,1.1533,1.144,1.1126,1.0945,1.0736,1.0467,1.0312,1.0273,1.0332,1.0448,1.0563,1.0727,1.0579,1.0617,1.091,1.0673,1.0644,1.0852,1.0881,1.0938,1.0985,1.1031,1.132,1.1849,1.2585,1.3063,1.3368,1.4043,1.421,1.4168,1.4733,1.4809,1.4733,1.5821,1.6264,1.6454,0.0,0.0,0.0,0.0,0.0,0.0,0.0,0.0,0.0,0.0,0.0,0.0,0.0,0.0,0.0,0.0,0.0,0.0,0.0,0.0,0.0,0.0,0.8746,0.8981,0.8907,0.8712,0.8728,0.9006,0.0,0.0,0.0,0.0,0.0,0.881,0.0,0.8761,0.8415,0.8488,0.837,0.8136,0.8268,0.8334,0.8316,0.8343,0.8398,0.8371,0.818,0.8229,0.8374,0.8134,0.0,0.0,0.0,0.0,0.8631,0.8935,0.0,0.0,0.0,0.0,0.8825,0.8996,0.9208,0.0,0.9562,0.9701,0.9858,0.0,1.0022,0.9971,1.0137,0.9959,1.0031,1.072,1.065,1.0718,1.1344,1.149,1.1529,1.1529,1.1578,1.1494,1.1188,1.114,1.0983,1.0678,1.0525,1.0476,1.0563,1.0582,1.0688,1.0843,1.0862,1.0881,1.091,1.091,1.091,1.091,1.093,1.1025,1.1204,1.1223,1.1421,1.1768,1.2552,1.3009,1.3227,1.4023,1.4221,1.4039,1.4493,1.4546,1.4535,1.5419,1.6003,1.6393,0.0,0.0,0.0,0.0,0.0,0.0,0.0,0.0,0.0,0.0,0.0,0.0,0.0,0.0,0.0,0.0,0.0,0.0,0.0,0.0,0.0,0.7979,0.8638,0.8859,0.8575,0.8852,0.8899,0.8665,0.0,0.0,0.0,0.0,0.0,0.881,0.0,0.0,0.8488,0.8613,0.8495,0.8205,0.8396,0.8279,0.7979,0.8158,0.799,0.7688,0.8048,0.8099,0.8021,0.826,0.8349,0.0,0.0,0.0,0.0,0.9096,0.0,0.0,0.0,0.0,0.9136,0.0,0.9406,0.9562,0.0,0.0,0.9672,0.0,1.0049,1.0544,1.0745,1.046,1.0487,1.1273,1.0701,1.0404,1.1068,1.0972,1.0824,1.0824,1.1098,1.1193,1.1042,1.1067,1.1021,1.0859,1.0668,1.0534,1.0438,1.0544,1.0602,1.065,1.0746,1.0833,1.091,1.091,1.091,1.091,1.1025,1.112,1.1204,1.1327,1.1865,1.2715,1.2835,1.339,1.4198,1.4226,1.414,1.4039,1.4395,1.4345,1.4193,1.5248,1.5728,1.6015,0.0,0.0,0.0,0.0,0.0,0.0,0.0,0.0,0.0,0.0,0.0,0.0,0.0,0.0,0.0,0.0,0.0,0.0,0.0,0.0,0.0,0.8017,0.8505,0.877,0.8724,0.8783,0.8729,0.0,0.0,0.0,0.0,0.9018,0.8918,0.0,0.0,0.0,0.0,0.8511,0.8425,0.8211,0.8364,0.825,0.0,0.8048,0.7927,0.7761,0.8006,0.8082,0.8129,0.849,0.8671,0.8773,0.8978,0.0,0.0,0.0,0.0,0.0,0.9144,0.9118,0.9095,0.0,0.9179,0.9241,0.9211,0.0,0.0,0.0,1.0298,1.0584,1.0567,1.0211,1.0152,1.0923,1.0475,1.0254,1.0842,1.0855,1.088,1.1013,1.116,1.1256,1.1288,1.1281,1.1193,1.1021,1.0831,1.0697,1.0687,1.064,1.064,1.0756,1.0822,1.086,1.091,1.1006,1.1044,1.1006,1.1101,1.1176,1.1204,1.1384,1.1836,1.2518,1.2801,1.3314,1.4013,1.4218,1.4233,1.4138,1.427,1.4227,1.4208,1.5025,1.5237,1.528,0.0,0.0,0.0,0.0,0.0,0.0,0.0,0.0,0.0,0.0,0.0,0.0,0.0,0.0,0.0,0.0,0.0,0.0,0.0,0.0,0.0,0.8006,0.8432,0.8662,0.8704,0.8656,0.0,0.0,0.0,0.0,0.8833,0.8798,0.8805,0.0,0.8664,0.0,0.0,0.0,0.0,0.0,0.8394,0.8283,0.0,0.0,0.7953,0.7912,0.8049,0.8193,0.8365,0.8716,0.8926,0.9076,0.9288,0.9299,0.0,0.0,0.0,0.0,0.0,0.0,0.9143,0.9171,0.9189,0.9229,0.0,0.0,0.0,0.0,1.0357,1.0417,1.0342,1.0072,1.0076,1.0785,1.0377,1.0154,1.0723,1.0672,1.0687,1.103,1.1138,1.1246,1.1453,1.1438,1.1354,1.1201,1.1012,1.0899,1.0897,1.0764,1.0746,1.0881,1.0888,1.0918,1.0949,1.112,1.1176,1.1111,1.1195,1.1241,1.1271,1.1429,1.1774,1.2283,1.2703,1.3292,1.3948,1.4265,1.4326,1.4199,1.4199,1.4199,1.4269,1.488,1.4948,1.4907,0.0,0.0,0.0,0.0,0.0,0.0,0.0,0.0,0.0,0.0,0.0,0.0,0.0,0.0,0.7592,0.798,0.7631,0.7391,0.7377,0.7512,0.7661,0.7809,0.8434,0.0,0.8164,0.857,0.0,0.0,0.0,0.0,0.9151,0.8538,0.8784,0.9715,0.9135,0.881,0.8683,0.0,0.0,0.0,0.8541,0.8365,0.0,0.0,0.0,0.0,0.0,0.8508,0.8704,0.8851,0.9024,0.9217,0.9428,0.9268,0.9116,0.0,0.0,0.0,0.0,0.9346,0.0,0.963,0.0,0.0,0.0,0.0,0.0,0.0,0.9981,1.011,1.034,1.0477,1.0744,1.136,1.0521,1.0038,1.0712,1.0157,0.9856,1.0389,1.067,1.0976,1.1376,1.1456,1.1485,1.1485,1.1298,1.1099,1.0907,1.0878,1.0869,1.0803,1.0869,1.0956,1.1092,1.1158,1.1176,1.1111,1.13,1.1394,1.1384,1.1477,1.1842,1.2412,1.2744,1.3543,1.4547,1.4443,1.4326,1.4199,1.4199,1.4199,1.4269,1.488,1.5092,1.5242,0.0,0.0,0.0,0.0,0.0,0.0,0.0,0.0,0.0,0.0,0.0,0.0,0.0,0.7581,0.7511,0.7671,0.7553,0.7447,0.7398,0.749,0.7687,0.8047,0.8202,0.8401,0.8678,0.8626,0.0,0.0,0.0,0.8456,0.8752,0.8949,0.9161,0.941,0.896,0.8963,0.927,0.9036,0.0,0.0,0.8643,0.8427,0.8311,0.0,0.0,0.0,0.0,0.0,0.8793,0.9024,0.9226,0.9415,0.9585,0.9486,0.9395,0.9704,0.0,0.0,0.0,0.0,0.0,0.9784,0.9699,0.9621,0.0,0.0,0.0,0.0,1.0349,1.0497,1.0632,1.0519,1.0482,1.0753,1.034,1.0059,1.0196,0.9939,0.9976,1.0645,1.0813,1.109,1.1675,1.1659,1.1589,1.1504,1.126,1.112,1.1099,1.0964,1.0888,1.0862,1.1004,1.1166,1.129,1.1233,1.1185,1.1176,1.1327,1.1413,1.1413,1.1552,1.1967,1.2539,1.2616,1.3198,1.4116,1.4402,1.4454,1.4326,1.4326,1.4326,1.4352,1.4673,1.4722,1.478,0.0,0.0,0.0,0.0,0.0,0.0,0.0,0.0,0.0,0.0,0.0,0.0,0.0,0.0,0.7614,0.7572,0.7572,0.7551,0.7503,0.753,0.7715,0.8026,0.8107,0.8298,0.8648,0.8563,0.0,0.0,0.0,0.0,0.0,0.9165,0.9449,0.9645,0.9108,0.9179,0.0,0.0,0.0,0.9188,0.0,0.857,0.8394,0.0,0.0,0.0,0.0,0.0,0.0,0.0,0.9386,0.9614,0.9713,0.0,0.0,0.0,0.0,0.0,0.9982,0.0,0.0,0.0,0.0,0.0,0.0,0.0,0.0,0.0,1.0656,1.0753,1.0849,1.0693,1.0584,1.0609,1.0399,1.0223,1.016,1.0021,1.0227,1.1007,1.1044,1.1203,1.175,1.178,1.1641,1.1355,1.1305,0.0,1.1333,1.1126,1.1004,1.0995,1.1166,1.1309,1.1413,1.1317,1.1298,1.1271,1.1384,1.1421,1.144,1.1608,1.1934,1.2342,1.2507,1.2986,1.3695,1.416,1.4303,1.4258,1.4365,1.443,1.4479,1.464,1.4575,1.4514,0.0,0.0,0.0,0.0,0.0,0.0,0.0,0.0,0.0,0.0,0.0,0.0,0.0,0.0,0.0,0.7712,0.7691,0.7691,0.7719,0.7719,0.7719,0.7712,0.8141,0.8272,0.8051,0.8335,0.0,0.0,0.0,0.0,0.0,0.0,0.9552,1.0528,0.9627,0.9516,1.0,0.0,0.9545,0.9299,0.0,0.8773,0.8435,0.0,0.0,0.0,0.8749,0.8952,0.0,0.9157,0.0,0.0,0.0,0.0,0.0,0.0,0.0,0.0,0.0,0.0,0.0,0.0,0.0,0.0,0.0,0.0,0.0,1.0991,1.0878,1.0864,1.0995,1.1064,1.1062,1.1003,1.0729,1.056,1.0708,1.0437,1.0546,1.1422,1.1348,1.1307,1.1571,1.1761,1.1638,1.1045,1.1449,1.1678,1.1616,1.1351,1.1204,1.1204,1.1327,1.1413,1.1413,1.1477,1.1477,1.1413,1.1477,1.1504,1.1504,1.1664,1.1756,1.1834,1.2427,1.2964,1.3412,1.3672,1.3872,1.4026,1.4291,1.4466,1.4639,1.4823,1.4697,1.4581,0.0,0.0,0.0,0.0,0.0,0.0,0.0,0.0,0.0,0.0,0.0,0.0,0.0,0.0,0.7836,0.7712,0.7691,0.7732,0.7836,0.7836,0.7899,0.8051,0.8099,0.8392,0.9007,0.8522,0.0,0.0,0.0,0.0,0.0,0.0,0.0,0.0,0.9831,1.0098,1.0457,0.9824,0.0,0.0,0.9348,0.9208,0.0,0.0,0.0,0.0,0.0,0.9157,0.9228,0.0,0.9477,0.9733,0.0,0.0,0.0,0.0,0.0,0.0,1.0077,0.0,0.0,0.0,0.0,0.0,0.0,0.0,0.0,1.2021,1.1773,1.1558,1.1696,1.131,1.0979,1.105,1.0908,1.0915,1.1301,1.1149,1.1288,1.2064,1.1622,1.1333,1.1504,1.1451,1.1342,0.0,1.1559,1.1822,1.1957,1.1619,1.1426,1.1429,1.1402,1.1413,1.1413,1.1477,1.1477,1.1413,1.1571,1.1645,1.1664,1.2027,1.2082,1.1892,1.2366,1.2745,1.3063,1.3339,1.3658,1.3993,1.3916,1.426,1.4801,1.4716,1.4841,1.5107,0.0,0.0,0.0,0.0,0.0,0.0,0.0,0.0,0.0,0.0,0.0,0.0,0.0,0.0,0.7944,0.7987,0.7813,0.7753,0.7891,0.7933,0.8015,0.8196,0.818,0.8422,0.8961,0.8551,0.0,0.0,0.0,0.0,0.0,0.0,0.0,0.0,0.0,0.0,0.0,0.0,0.0,0.0,0.9666,0.0,0.0,0.9417,0.9337,0.0,0.0,0.0,0.9457,0.9408,0.9596,0.0,0.0,0.0,0.0,0.0,0.0,0.0,0.0,0.0,0.0,0.0,0.0,0.0,1.154,1.1905,1.2199,0.0,1.1871,1.1661,1.1638,1.1498,1.1428,1.1503,1.1716,1.1838,1.1743,1.1587,1.1732,1.2446,1.2046,1.1668,1.1544,1.1561,1.1526,1.1393,1.1755,1.2011,1.2138,1.2048,1.1932,1.1796,1.1667,1.1678,1.1819,1.1615,1.1541,1.1623,1.1664,1.1738,1.1808,1.2215,1.2287,1.2125,1.249,1.2854,1.315,1.3199,1.3595,1.4168,1.4194,1.4564,1.5039,1.494,1.51,1.5433,0.0,0.0,0.0,0.0,0.0,0.0,0.0,0.0,0.0,0.0,0.0,0.0,0.0,0.0,0.0,0.0,0.8101,0.7894,0.7961,0.8028,0.8111,0.8216,0.8332,0.8409,0.8449,0.8484,0.0,0.0,0.0,0.0,0.0,0.0,0.0,0.0,0.0,0.0,0.0,0.0,0.0,1.0612,1.0088,0.9863,0.0,0.0,0.9725,0.9558,0.9558,0.9636,0.9713,0.9607,0.9804,0.0,0.0,0.0,0.0,0.0,0.9549,0.0,0.0,0.0,0.0,0.0,0.0,0.0,1.1303,1.197,1.2471,1.1882,1.171,1.1627,1.1444,1.1825,1.2174,1.2187,1.272,1.292,1.2227,1.2015,1.2155,1.2782,1.2577,1.2172,1.1702,1.1867,1.1885,1.1581,1.2002,1.2282,1.2264,1.2538,1.2556,1.2228,1.2054,1.2102,1.2395,1.1826,1.1686,1.1945,1.1808,1.1826,1.1982,1.2318,1.2455,1.2419,1.2808,1.3143,1.3418,1.3248,1.3661,1.4382,1.4663,1.497,1.5276,1.5309,1.5444,1.5669,0.0,0.0,0.0,0.0,0.0,0.0,0.0,0.0,0.0,0.0,0.0,0.0,0.0,0.0,0.0,0.0,0.8892,0.8815,0.8414,0.8398,0.8398,0.8353,0.8373,0.8529,0.8794,0.8558,0.8687,0.0,0.0,0.0,0.0,0.0,0.0,0.0,0.0,0.0,0.0,0.0,0.0,1.0957,1.0477,0.0,1.0264,1.0098,1.003,0.9981,0.9981,0.9971,0.9941,0.9971,1.004,1.0098,0.0,0.0,0.0,1.0099,0.0,0.0,0.0,0.0,0.0,0.0,0.0,0.0,1.178,1.214,1.249,0.0,1.3013,1.2911,1.3347,1.2969,1.2622,1.273,1.2828,1.3039,1.353,1.343,1.3447,1.3795,1.3256,1.2621,1.198,1.1644,1.156,1.1807,1.2511,1.2833,1.2609,1.2662,1.2603,1.2365,1.233,1.233,1.2395,1.2011,1.1975,1.2294,1.2113,1.215,1.2389,1.2836,1.2849,1.2508,1.3121,1.3273,1.3127,1.35,1.3874,1.4131,1.3979,1.4355,1.5019,1.5326,1.5828,1.6349,0.0,0.0,0.0,0.0,0.0,0.0,0.0,0.0,0.0,0.0,0.0,0.0,0.0,0.0,0.0,0.0,0.0,0.0,0.0,0.8765,0.8814,0.87,0.8793,0.8877,0.8943,0.8947,0.9133,0.95,0.0,0.0,0.0,0.0,0.0,0.0,0.0,0.0,0.0,0.0,1.1044,1.1063,1.0784,0.0,1.0631,1.0428,1.0351,1.0332,1.0244,1.0147,1.0069,1.0166,1.0215,0.0,0.0,1.0089,0.9972,0.0,0.9954,0.9489,0.0,0.0,0.0,1.0374,0.0,0.0,0.0,1.2411,1.2626,1.3057,1.3047,1.3025,1.3303,0.0,1.3235,1.3023,1.3474,1.3852,1.391,1.3763,1.3761,1.4017,1.3585,1.2958,1.2229,1.2091,1.2274,1.2854,1.3325,1.354,1.3402,1.3402,1.3208,1.2815,1.2662,1.2662,1.2803,1.2365,1.2312,1.2609,1.2401,1.2419,1.265,1.304,1.3109,1.2983,1.3476,1.3639,1.3568,1.3877,1.4162,1.4412,1.4473,1.4938,1.5581,1.5888,1.6253,1.6641,0.0,0.0,0.0,0.0,0.0,0.0,0.0,0.0,0.0,0.0,0.0,0.0,0.0,0.0,0.0,0.0,0.0,0.0,0.0,0.9171,0.9243,0.92,0.9263,0.9228,0.9056,0.9328,0.9518,0.9648,0.0,0.0,0.0,0.0,0.0,0.0,0.0,0.0,0.0,0.0,0.0,1.1189,0.0,1.0928,1.0862,1.0708,1.0621,1.0582,1.0409,1.0273,1.0176,1.0312,1.037,1.038,1.0418,1.0399,0.0,0.0,0.0,0.0,0.0,0.0,0.0,0.0,0.0,1.0976,0.0,0.0,0.0,0.0,0.0,0.0,0.0,0.0,0.0,0.0,0.0,0.0,0.0,1.3645,0.0,1.4047,1.3798,1.3317,1.2596,1.2736,1.3024,1.3447,1.3873,1.4071,1.397,1.4154,1.3928,1.3223,1.3187,1.3182,1.3181,1.2776,1.2669,1.2855,1.2632,1.2668,1.2925,1.3143,1.3314,1.3442,1.3762,1.3921,1.3939,1.4098,1.4397,1.4771,1.5073,1.557,1.6093,1.6224,1.6486,1.6769,0.9286,1.0096,0.0,0.0,0.0,0.0,0.0,0.0,0.0,0.0,0.0,0.0,0.0,0.0,0.0,0.0,0.0,0.0,1.0122,0.0,0.96,0.9876,0.9505,0.9279,0.9259,0.9299,0.9468,0.9774,0.0,0.0,0.0,0.0,0.0,0.0,1.0784,0.0,0.0,0.0,1.1146,0.0,1.1201,1.0976,0.0,1.0784,1.0697,1.0602,1.0563,1.0486,1.038,0.0,1.0448,1.0341,0.0,1.0448,1.0351,1.0544,0.0,0.0,0.0,0.0,0.0,0.0,1.0482,0.0,0.0,0.0,1.2202,1.29,0.0,0.0,0.0,0.0,0.0,0.0,0.0,0.0,1.3539,1.351,1.3714,1.4283,1.4111,1.3792,1.339,1.3178,1.2755,1.2017,1.334,1.3983,1.3488,1.4323,1.4299,1.3235,1.4038,1.4038,1.3107,1.3174,1.3155,1.3072,1.2797,1.2908,1.334,1.3412,1.3463,1.3514,1.3835,1.3728,1.3334,1.3827,1.4357,1.489,1.4862,1.5197,1.5661,1.549,1.6077,1.6925,1.0066,1.0709,0.0,0.0,0.0,0.0,0.0,0.0,0.0,0.0,0.0,0.0,0.0,0.0,0.0,0.0,0.0,1.0176,0.0,0.0,0.0,0.9731,0.9969,0.9925,0.9545,0.9765,1.0134,1.0674,1.0381,0.0,0.0,0.0,0.0,0.0,1.0877,0.0,1.1552,0.0,1.1088,0.0,0.0,0.0,0.0,1.0822,1.0717,1.0602,1.0602,1.0563,1.0525,0.0,1.0753,0.0,0.0,0.0,0.0,0.0,0.0,0.0,0.0,0.0,0.0,0.0,0.0,0.0,1.1048,0.0,1.2232,0.0,0.0,0.0,0.0,0.0,0.0,0.0,1.351,0.0,0.0,0.0,1.4015,0.0,0.0,0.0,1.3581,1.3098,1.2947,1.3292,1.3871,1.4098,1.3869,1.4228,1.4054,1.3223,1.3613,1.362,1.3159,1.3556,1.3556,1.3159,1.3399,1.3498,1.3459,1.3531,1.3648,1.3802,1.4013,1.3865,1.3467,1.3852,1.4219,1.4555,1.4605,1.5114,1.5785,1.5421,1.5847,1.6575,1.0627,0.0,0.0,0.0,0.0,0.0,0.0,0.0,0.0,0.0,0.0,0.0,1.1214,1.0782,0.0,0.0,1.0243,1.0297,0.0,0.0,1.0341,0.0,0.0,0.0,0.9881,1.0166,1.0587,1.1105,1.0675,0.0,0.0,0.0,0.0,0.0,0.0,1.1338,1.2042,0.0,1.1226,1.1706,1.1143,1.0867,1.0831,1.0793,1.0746,1.0688,1.0688,1.0659,1.0659,1.0688,1.0872,0.0,1.0741,0.0,0.0,0.0,0.0,0.0,1.0656,0.0,0.0,0.0,0.0,0.0,0.0,0.0,0.0,0.0,0.0,0.0,0.0,0.0,0.0,0.0,0.0,1.3424,0.0,0.0,0.0,0.0,0.0,0.0,0.0,1.3064,1.3176,1.3943,1.4141,1.4154,1.3983,1.4203,1.3979,1.3223,1.3601,1.3626,1.3176,1.3868,1.3868,1.3176,1.3616,1.3715,1.3497,1.3531,1.3698,1.3947,1.4059,1.3944,1.3711,1.3947,1.4224,1.4456,1.4384,1.4912,1.5647,1.5234,1.5536,1.614,1.0605,1.1344,0.0,0.0,0.0,0.0,0.0,0.0,0.0,0.0,0.0,0.0,0.0,0.0,0.0,0.0,0.0,1.0872,1.1514,0.0,1.034,0.0,0.0,1.0293,0.0,1.037,1.0467,1.0622,1.0602,0.0,0.0,0.0,0.0,0.0,0.0,1.1478,1.2083,1.1792,1.175,1.1861,1.1387,1.0955,1.0621,0.0,1.0833,1.0881,1.0881,0.0,0.0,1.0881,1.0679,0.0,0.0,0.0,0.0,0.0,0.0,0.0,0.0,0.0,0.0,1.0867,0.0,0.0,0.0,0.0,1.188,0.0,0.0,0.0,0.0,0.0,0.0,0.0,0.0,0.0,0.0,0.0,0.0,0.0,0.0,0.0,0.0,1.3213,1.3266,1.2785,1.3711,1.4042,1.3459,1.4354,1.4368,1.3235,1.4654,1.467,1.3119,1.4081,1.41,1.3107,1.3119,1.3262,1.3497,1.3442,1.3543,1.3804,1.3888,1.3904,1.3921,1.4105,1.447,1.4817,1.4236,1.4396,1.4902,1.4623,1.5029,1.5737,0.0,0.0,0.0,0.0,0.0,0.0,0.0,1.2529,0.0,0.0,0.0,0.0,0.0,1.2993,1.2842,0.0,0.0,1.201,1.207,1.1618,0.0,0.0,0.0,1.0723,0.0,0.0,0.0,0.0,0.0,0.0,0.0,0.0,0.0,0.0,0.0,1.1802,0.0,0.0,0.0,0.0,0.0,1.0713,1.0602,0.0,1.0746,1.0833,1.0833,1.0852,0.0,1.0881,1.0969,1.1024,1.0857,1.0891,1.0925,1.0624,1.0823,0.0,0.0,0.0,1.1331,1.1039,0.0,0.0,0.0,0.0,0.0,0.0,0.0,0.0,0.0,0.0,0.0,0.0,0.0,0.0,0.0,0.0,0.0,0.0,0.0,0.0,0.0,0.0,1.3298,1.3294,1.3557,1.3629,1.3421,1.3637,1.3785,1.379,1.3906,1.39,1.3754,1.4149,1.3942,1.3176,1.3667,1.3782,1.3564,1.3628,1.3762,1.3931,1.3908,1.3904,1.3891,1.3828,1.3963,1.4218,1.3957,1.411,1.4416,1.4252,1.4645,1.5425,1.2147,0.0,0.0,0.0,0.0,0.0,0.0,0.0,0.0,0.0,1.3912,0.0,1.4329,0.0,1.3919,0.0,1.3328,1.2748,1.2352,1.2116,0.0,1.0679,1.0899,0.0,0.0,0.0,0.0,0.0,0.0,1.1848,0.0,0.0,0.0,0.0,0.0,1.2132,1.2196,0.0,1.1834,0.0,0.0,1.0645,0.0,0.0,1.064,1.0803,0.0,1.09,1.091,1.0968,1.1067,1.1133,1.0876,1.095,1.1064,1.074,1.0911,1.1236,1.1287,1.1388,0.0,1.1286,1.1212,0.0,1.0791,0.0,1.1565,0.0,0.0,0.0,0.0,0.0,0.0,0.0,0.0,0.0,0.0,1.2738,0.0,0.0,0.0,0.0,0.0,0.0,1.3234,1.3198,1.326,1.3301,0.0,1.3456,1.3596,1.3765,1.3986,1.3998,1.3778,1.4246,1.4087,1.3284,1.3795,1.3891,1.3678,1.3711,1.3795,1.3931,1.3908,1.3888,1.3858,1.3828,1.3861,1.3954,1.4115,1.4275,1.4353,1.4096,1.459,1.551,0.0,0.0,0.0,0.0,1.3144,0.0,0.0,0.0,1.4154,0.0,1.4586,1.4864,1.532,1.4868,1.4393,1.4074,1.3639,1.3148,1.2556,1.2232,0.0,0.0,1.1528,1.1358,1.1378,0.0,0.0,0.0,0.0,0.0,0.0,0.0,0.0,0.0,1.2623,0.0,1.2381,1.2748,1.2396,1.1567,1.1105,1.0705,1.0418,1.0418,1.0582,1.0822,1.1025,1.1027,1.095,1.1054,1.0968,1.0834,1.0813,1.0803,1.0803,1.0745,1.0813,1.1024,1.1387,1.1321,1.125,1.1588,1.1166,0.0,0.0,0.0,1.1173,0.0,0.0,0.0,0.0,0.0,0.0,0.0,0.0,0.0,0.0,0.0,0.0,0.0,0.0,0.0,0.0,1.3055,1.3061,1.2576,1.2856,1.3104,0.0,1.3765,1.3828,1.3248,1.4802,1.4864,1.3248,1.4367,1.441,1.3408,1.3476,1.3611,1.3804,1.3678,1.3678,1.3804,1.3871,1.3871,1.3821,1.4072,1.4121,1.4093,1.4662,1.4827,1.4682,1.4239,1.4847,1.5954,1.3571,1.4129,1.4765,0.0,1.455,1.3982,0.0,0.0,0.0,0.0,1.5463,1.6051,1.6378,1.6186,1.5995,1.5908,1.5168,0.0,0.0,0.0,0.0,1.2413,1.2057,1.2073,1.2409,1.219,0.0,1.2899,0.0,0.0,1.2964,0.0,0.0,0.0,0.0,0.0,1.193,1.2606,1.243,1.1652,1.1219,1.0855,1.0563,0.0,1.0774,1.0869,1.0879,1.1107,1.1374,1.1052,1.1078,1.1194,1.0955,1.0833,1.0822,1.0957,1.1225,1.1453,1.1254,1.1639,1.1942,1.1445,1.1448,1.1574,0.0,0.0,0.0,0.0,0.0,0.0,0.0,0.0,0.0,0.0,0.0,0.0,0.0,0.0,0.0,1.2204,0.0,0.0,0.0,1.2855,1.28,1.2994,1.2747,0.0,0.0,0.0,1.4022,1.3871,1.4286,1.4317,1.3943,1.3869,1.3688,1.3493,1.3531,1.3644,1.3804,1.3808,1.3841,1.3871,1.3838,1.3821,1.3804,1.3762,1.4031,1.4458,1.4625,1.4899,1.5227,1.5204,1.5687,1.6366,1.4314,0.0,0.0,1.5419,0.0,0.0,1.4471,1.4883,0.0,1.5169,1.5871,0.0,1.6477,1.6567,1.6525,1.6315,1.577,0.0,1.4834,0.0,0.0,1.3287,1.2932,1.2785,1.2837,1.2657,0.0,1.317,0.0,0.0,1.3224,0.0,0.0,0.0,0.0,1.2702,0.0,1.2416,1.2374,1.1972,1.1527,1.1153,0.0,1.0846,1.0879,1.093,1.1116,1.1394,1.1579,1.1132,1.1219,1.1428,1.1015,1.0919,1.0988,1.1351,1.1572,1.1731,1.1839,1.2181,1.2383,1.1997,1.194,1.1987,1.1932,1.1743,1.1589,0.0,1.1682,1.1645,0.0,0.0,0.0,0.0,0.0,0.0,0.0,0.0,0.0,0.0,1.2194,0.0,0.0,1.2672,1.2598,1.2839,1.2776,0.0,0.0,0.0,1.4008,1.3715,1.4406,1.4462,1.3768,1.3986,1.3892,1.3459,1.3547,1.3695,1.3838,1.3888,1.3904,1.3904,1.3871,1.3791,1.3725,1.3765,1.3965,1.4284,1.4712,1.5356,1.6067,1.6146,1.6323,1.6572,0.0,0.0,0.0,0.0,0.0,0.0,0.0,1.5903,0.0,1.554,0.0,1.6337,1.6217,1.6451,1.6441,1.6031,0.0,1.5508,1.5034,1.4955,1.4723,1.4256,1.3841,1.3434,1.302,1.302,1.302,0.0,0.0,0.0,0.0,0.0,0.0,0.0,0.0,0.0,0.0,1.2314,1.2358,1.242,1.2007,1.1632,1.1338,1.115,1.1094,1.1166,1.164,1.1806,1.1743,1.1313,1.142,1.1653,1.1186,1.1108,1.1299,1.185,1.196,1.2056,1.2719,1.2839,1.2765,1.271,1.2439,1.2157,1.2106,1.1722,1.1421,1.1589,1.1496,1.1432,0.0,0.0,0.0,0.0,0.0,0.0,0.0,0.0,0.0,0.0,0.0,0.0,0.0,0.0,0.0,0.0,0.0,0.0,0.0,0.0,1.3887,1.3223,1.4701,1.4789,1.3358,1.4304,1.4377,1.3557,1.3663,1.3829,1.401,1.4089,1.4059,1.3993,1.401,1.3857,1.3615,1.3885,1.399,1.4097,1.4996,1.5973,1.6897,1.6897,1.6824,1.6731,0.0,0.0,0.0,0.0,0.0,1.6892,1.7025,1.6883,1.6623,1.6272,1.6601,1.6864,1.6826,1.6687,1.6567,1.6483,1.6098,0.0,0.0,0.0,0.0,1.4837,1.415,1.3732,1.3648,1.3648,1.3648,0.0,0.0,0.0,0.0,0.0,0.0,0.0,0.0,0.0,1.2942,1.2942,0.0,1.2723,1.2629,1.2423,1.2109,1.2068,1.2079,1.2152,1.231,1.2362,1.2289,1.1764,1.1921,1.2278,1.1864,1.1696,1.1802,1.2454,1.2819,1.2988,1.2839,1.329,1.3511,1.2483,1.2378,1.2337,1.1694,1.1381,1.1252,1.1279,1.1271,1.1252,1.1279,0.0,0.0,0.0,0.0,0.0,0.0,0.0,0.0,0.0,0.0,1.2135,0.0,0.0,0.0,0.0,0.0,0.0,0.0,0.0,1.3797,0.0,1.393,1.4273,0.0,0.0,1.3893,1.4317,1.4335,1.4458,1.4664,1.5104,1.4997,1.4489,1.4603,1.424,1.3615,1.3828,1.4423,1.5265,1.5808,1.6381,1.6897,1.696,1.7097,1.7267,0.0,0.0,0.0,0.0,0.0,0.0,0.0,1.7037,1.6999,1.651,1.6613,1.6699,1.6655,1.6686,1.6694,1.6694,1.6427,1.6339,1.6485,1.5768,1.5227,1.4997,1.453,1.4121,1.3797,1.3797,1.3797,1.3797,0.0,0.0,0.0,0.0,0.0,0.0,0.0,1.3152,0.0,0.0,0.0,1.3083,1.2871,1.2701,1.2542,1.2477,1.2404,1.2392,1.2774,1.2753,1.251,1.2215,1.2425,1.2741,1.233,1.2265,1.2423,1.299,1.3269,1.343,1.3596,1.3864,1.3932,1.3258,1.2926,1.2614,1.2062,1.1554,1.1204,1.1204,1.112,1.1071,1.1185,1.1346,0.0,0.0,0.0,0.0,0.0,0.0,0.0,0.0,0.0,0.0,0.0,0.0,0.0,0.0,0.0,1.3423,1.3517,0.0,1.4243,0.0,0.0,0.0,1.3798,0.0,1.3999,1.4338,1.4338,1.4601,1.5068,1.5319,1.5155,1.4598,1.4624,1.4245,1.3641,1.4156,1.5024,1.6034,1.6186,1.658,1.7065,1.7002,1.7191,1.7461,0.0,1.6149,0.0,0.0,1.6444,0.0,1.6699,1.7027,1.7136,1.6667,1.6596,1.6515,1.6374,1.6567,1.6733,1.6751,1.6666,1.6567,1.649,1.6157,1.5638,1.4977,1.4718,1.4368,1.3892,1.3868,1.3868,0.0,0.0,0.0,0.0,0.0,0.0,0.0,0.0,0.0,0.0,0.0,1.329,1.3413,1.3088,1.2991,1.3006,1.2866,1.2751,1.2738,1.3261,1.3222,1.2903,1.286,1.2955,1.2995,1.2807,1.2829,1.3054,1.3574,1.3715,1.3791,1.4298,1.435,1.4177,1.3986,1.3432,1.2826,1.2394,1.1737,1.1212,1.1147,1.1025,1.1006,1.1204,1.1354,0.0,0.0,0.0,0.0,0.0,0.0,0.0,0.0,0.0,0.0,1.23,0.0,0.0,0.0,0.0,1.3909,1.374,1.4419,1.4538,0.0,0.0,1.4467,1.3725,0.0,1.4167,1.4359,1.4396,1.4813,1.5504,1.5608,1.5342,1.4776,1.473,1.4357,1.3856,1.4498,1.5451,1.6494,1.6389,1.6709,1.7261,1.7157,1.7282,1.755,0.0,0.0,0.0,0.0,0.0,0.0,1.7306,1.7273,1.7228,1.6974,1.6845,1.6715,1.6602,1.6485,1.6488,1.6609,1.6609,1.6476,1.6174,1.5722,1.5228,1.4733,1.4414,1.4219,1.4152,1.4033,1.4033,0.0,0.0,1.3668,0.0,0.0,0.0,0.0,0.0,0.0,0.0,1.3266,1.3348,1.3586,1.3545,1.3606,1.37,1.3554,1.3637,1.3846,1.3912,1.3901,1.3882,1.4,1.3507,1.2925,1.3434,1.3509,1.3573,1.4302,1.4411,1.4342,1.4535,1.4477,1.4275,1.3837,1.3389,1.2874,1.2113,1.161,1.1217,1.0976,1.1006,1.1149,1.1346,1.1309,1.1298,0.0,0.0,0.0,0.0,0.0,1.1826,1.192,0.0,0.0,0.0,1.2715,0.0,0.0,1.3044,1.3011,1.3164,1.3817,1.4111,1.3908,1.408,1.4368,1.4752,1.3968,1.4016,1.4942,1.5107,1.5531,1.6125,1.6623,1.6294,1.5333,1.5371,1.5068,1.452,1.4589,1.5365,1.6494,1.6494,1.689,1.7475,1.7455,1.755,1.7679,0.0,0.0,0.0,0.0,0.0,0.0,0.0,1.7306,1.7239,1.7039,1.706,1.7043,1.6842,1.6722,1.6648,1.6722,1.6722,1.6549,1.6137,1.58,1.5365,1.4729,1.4456,1.428,1.4199,1.4163,1.4163,0.0,0.0,0.0,0.0,0.0,0.0,0.0,0.0,1.331,1.3396,1.342,1.3491,1.3597,1.3597,1.3634,1.3692,1.3797,1.3821,1.3787,1.4022,1.3898,1.3637,1.4066,1.3951,1.3681,1.3921,1.4031,1.4087,1.4399,1.4454,1.443,1.4557,1.45,1.4352,1.4177,1.3543,1.2867,1.2423,1.1753,1.1201,1.1044,1.1063,1.112,1.1206,1.1271,1.1327,1.1317,0.0,0.0,0.0,0.0,0.0,1.1888,0.0,1.2312,0.0,0.0,0.0,0.0,0.0,1.3939,1.3933,1.4662,1.4981,1.4797,0.0,1.4733,1.4961,1.4593,1.4758,1.5473,1.5526,1.5931,1.6638,1.6836,1.6556,1.588,1.5606,1.5514,1.5568,1.57,1.6244,1.7035,1.7082,1.7276,1.7496,1.7496,1.757,1.7699,1.7255,0.0,1.8453,0.0,1.7823,1.8063,1.7595,1.7573,1.7534,1.7346,1.7479,1.7423,1.6994,1.6864,1.6818,1.6818,1.668,1.6403,1.5988,1.57,1.525,1.4639,1.4475,0.0,1.4246,1.4222,1.4199,1.4199,1.3975,0.0,0.0,0.0,0.0,0.0,1.3386,1.342,1.3467,1.3515,1.3563,1.3597,1.3597,1.3681,1.3834,1.3915,1.3928,1.3931,1.3979,1.3829,1.3678,1.3963,1.416,1.4326,1.4269,1.435,1.4477,1.4593,1.4605,1.4628,1.4708,1.4651,1.4535,1.4419,1.3806,1.3148,1.2828,1.2169,1.1573,1.13,1.1359,1.1393,1.1227,1.129,1.1384,1.1298,0.0,0.0,0.0,1.1571,0.0,0.0,1.2023,1.2228,1.2246,1.2473,0.0,0.0,0.0,1.4622,1.4416,1.5094,1.5469,0.0,0.0,0.0,1.5201,1.5069,1.5258,1.5774,1.5734,1.6119,1.6833,1.6709,1.6455,1.6104,1.5614,1.5692,1.6163,1.629,1.6729,1.735,1.7385,1.754,1.772,1.7783,1.7965,1.8154,1.8548,1.8845,1.8916,1.8387,1.8624,1.8724,1.8164,1.8209,1.8236,1.8111,1.8209,1.7897,1.692,1.6818,1.6818,1.6818,1.6382,1.5967,1.5627,1.5167,1.4766,0.0,0.0,1.4396,1.4396,1.428,1.4199,1.4199,0.0,0.0,1.3797,0.0,1.3597,1.3597,1.3467,1.3467,1.3597,1.3467,1.3491,1.3597,1.3597,1.3928,1.435,1.3962,1.4163,1.4572,1.3781,1.3889,1.432,1.3849,1.4103,1.4569,1.4454,1.4477,1.4673,1.4994,1.5085,1.5085,1.5085,1.5006,1.4812,1.4489,1.4182,1.3826,1.3231,1.2874,1.2467,1.1734,1.1968,1.211,1.1508,1.1413,1.1421,1.1485,0.0,0.0,0.0,1.1712,0.0,1.1522,1.1913,1.2246,1.2383,1.2644,0.0,0.0,0.0,0.0,0.0,0.0,0.0,1.568,1.5185,0.0,1.568,1.5239,1.5239,1.5693,1.5774,1.6119,1.6684,1.623,1.6015,1.5977,1.5434,1.5511,1.6002,1.6002,1.6465,1.7199,1.7199,1.7602,1.8231,1.8495,1.8869,1.9239,1.9709,1.9877,1.9776,1.8806,1.8445,1.8137,1.7622,1.7588,1.7588,1.7573,1.7909,1.8057,1.7728,1.7451,1.7145,0.0,1.6464,1.6031,0.0,1.5203,1.4862,1.4418,1.4396,1.4396,1.4396,1.435,1.435,1.435,0.0,0.0,0.0,1.3821,1.3773,1.3597,1.3644,1.3644,1.3597,1.3539,1.361,1.3739,1.3941,1.4163,1.4396,1.4501,1.4605,1.4675,1.4404,1.417,1.3983,1.3972,1.3805,1.3662,1.416,1.4609,1.4892,1.4628,1.4943,1.5379,1.5434,1.5311,1.5142,1.4926,1.444,1.3904,1.3575,1.2884,1.2296,1.2281,1.2038,1.1796,1.169,1.1667,1.1649,1.1571,1.1519,0.0,1.1682,0.0,1.1877,1.1968,1.2347,1.2632,1.272,1.2943,0.0,0.0,0.0,0.0,0.0,0.0,0.0,0.0,1.5698,0.0,1.6237,1.6103,1.6103,1.6258,1.6279,1.6422,1.6709,1.7007,1.6957,1.6619,1.6824,1.6778,1.6645,1.7008,1.7351,1.7679,1.7679,1.814,1.8807,1.891,1.8822,1.8666,2.0402,2.0275,1.9846,1.8881,1.8576,1.8265,1.7718,1.7859,1.8014,1.7961,1.828,1.8464,1.8302,1.8073,0.0,1.7004,1.6537,1.6038,1.543,1.5041,1.4724,1.4418,1.4396,1.4396,1.4396,1.4396,0.0,1.4326,1.4104,1.3939,1.3823,1.3892,1.3844,1.3692,1.3716,1.3692,1.3597,1.3644,1.3669,1.3674,1.3894,1.4168,1.4451,1.4564,1.4756,1.4949,1.445,1.4316,1.4293,1.3813,1.3759,1.3953,1.4161,1.4753,1.5276,1.4807,1.52,1.5736,1.5635,1.5558,1.5435,1.5233,1.4777,1.4327,1.4005,1.3448,1.2912,1.2631,1.2335,1.2058,1.1841,1.1792,1.1811,1.1818,1.1822,1.1863,1.1947,0.0,1.2156,0.0,0.0,0.0,0.0,1.3042,1.3383,0.0,0.0,0.0,0.0,0.0,1.6115,1.6423,1.6141,1.617,1.65,1.6914,1.7049,1.6848,1.7027,1.7071,1.6983,1.7606,1.76,1.7126,1.7641,1.746,1.6799,1.7565,1.7718,1.7483,1.7929,1.8442,1.8953,1.9255,1.9334,1.9277,2.0677,2.0132,1.9453,0.0,1.8911,0.0,1.8328,1.8732,1.9073,1.8953,1.9093,1.9064,1.8667,1.864,1.824,1.7313,0.0,0.0,0.0,1.4798,1.443,1.443,1.4407,1.4396,1.4396,1.4396,1.4326,1.4199,1.408,1.408,1.4199,1.3975,1.3823,1.3768,1.3695,1.3624,1.3579,1.3729,1.3664,1.3453,1.3597,1.4003,1.451,1.4263,1.4748,1.5361,1.4155,1.44,1.5033,1.3561,1.4013,1.51,1.4417,1.4953,1.5732,1.5411,1.5724,1.6122,1.5746,1.5712,1.5666,1.5366,1.5152,1.4878,1.4386,1.4322,1.4044,1.2822,1.278,1.2751,1.1998,1.1866,1.1938,1.2192,1.2347,1.2413,1.2413,1.249,1.2526,0.0,0.0,0.0,1.2838,1.3007,1.3235,0.0,0.0,0.0,0.0,0.0,1.6609,1.6572,1.6588,1.6613,1.6613,1.7677,1.7928,1.741,1.794,1.7915,1.7423,1.7953,1.7903,1.7436,1.7965,1.7589,1.6638,1.7802,1.7697,1.6976,1.8037,1.8576,1.8819,1.9573,2.0225,2.0677,0.0,0.0,2.0089,1.9465,1.8671,1.8216,1.8472,1.8301,1.824,1.8504,1.8929,1.9117,1.8946,1.8907,1.854,1.7599,1.6914,1.6423,1.6185,1.5196,1.4639,1.4639,1.4477,1.4396,1.4396,1.4396,1.4326,1.4199,1.428,1.4326,1.435,1.4443,1.4153,1.3602,1.4117,1.3946,1.3261,1.3744,1.3905,1.3795,1.4036,1.4372,1.4745,1.4893,1.527,1.5668,1.5208,1.502,1.4939,1.4625,1.4511,1.461,1.5045,1.5504,1.5819,1.5473,1.577,1.621,1.6284,1.5825,1.5329,1.5244,1.4608,1.402,1.3997,1.3579,1.32,1.3257,1.2873,1.2549,1.2556,1.2437,1.2383,1.2556,1.2561,1.2532,1.2473,1.2796,1.297,0.0,1.3052,1.3254,1.3254,1.3215,1.3642,0.0,0.0,1.626,1.7059,1.7651,1.7726,1.7283,1.7622,1.7802,1.7802,1.8078,1.7928,1.741,1.794,1.7915,1.7423,1.7953,1.7903,1.7436,1.7965,1.7815,1.7262,1.8356,1.8729,1.8622,1.8913,1.9428,2.0061,2.0265,2.0208,2.0018,2.0805,2.0425,1.9969,1.9331,1.8908,1.8635,1.8609,1.8547,1.8596,1.8827,1.9106,1.9178,1.8844,1.882,1.8499,1.7754,1.7147,1.6631,1.6168,1.5404,1.5006,1.5062,1.4971,1.4834,1.464,1.4617,1.4535,1.4292,1.435,1.4396,1.4396,1.4569,1.4426,1.4013,1.446,1.4335,1.3867,1.431,1.4418,1.4274,1.4257,1.4577,1.5049,1.4963,1.5374,1.5944,1.5582,1.5514,1.552,1.5106,1.5078,1.5266,1.5622,1.5926,1.6161,1.6099,1.6283,1.6441,1.6093,1.5682,1.5262,1.4955,1.4474,1.4049,1.3957,1.3594,1.3248,1.32,1.2805,1.2556,1.2728,1.2662,1.2662,1.2903,1.289,1.2861,1.2838,1.3087,1.333,1.3435,1.3649,1.3772,1.3772,1.3983,1.4379,1.4982,1.5938,0.0,1.745,1.8349,1.8541,1.7844,1.8303,1.8455,1.8204,1.8455,1.8304,1.7765,1.8555,1.8392,1.7436,1.8216,1.8279,1.779,1.8318,1.8267,1.784,1.8932,1.917,1.8875,1.937,1.981,2.0209,2.0408,2.0334,2.0091,2.0706,2.0163,1.9635,1.9083,1.9257,1.9342,1.8869,1.9103,1.9348,1.9408,1.9373,1.9125,1.8633,1.8523,1.8253,1.7736,1.7315,1.6762,1.6019,1.5591,1.5435,1.5536,1.5491,1.5334,1.5006,1.4983,1.48,1.4489,1.4466,1.4466,1.4512,1.4616,1.4651,1.4607,1.4755,1.4755,1.4665,1.4994,1.4987,1.4742,1.448,1.472,1.525,1.4888,1.5299,1.6028,1.5647,1.583,1.6131,1.5277,1.5544,1.6219,1.6044,1.6235,1.6524,1.6705,1.6704,1.6488,1.5695,1.5348,1.5048,1.4364,1.4191,1.4133,1.3859,1.369,1.3462,1.2908,1.2709,1.2658,1.271,1.2745,1.2892,1.3276,1.3283,1.3275,1.3328,0.0,1.3586,1.3914,1.4107,1.4199,1.4199,1.4782,1.508,1.4943,1.6283,1.7193,1.7384,1.866,1.9075,1.8455,1.887,1.8895,1.8455,1.8807,1.877,1.8342,1.9246,1.892,1.7561,1.8555,1.8707,1.8242,1.877,1.8744,1.8405,1.9397,1.9321,1.8656,1.9636,1.9962,1.9887,2.0378,2.0533,2.0526,2.0231,1.9951,1.9811,1.9825,1.9422,1.9221,1.9571,1.9308,1.9183,1.9529,1.9156,1.8821,1.8621,1.8204,1.7724,1.7171,1.7065,1.6959,1.6815,1.6137,1.5726,1.5748,1.548,1.5345,1.5424,1.53,1.5085,1.4812,1.472,1.4766,1.4994,1.5017,1.4867,1.463,1.5136,1.5033,1.4488,1.5025,1.5219,1.5123,1.5071,1.4939,1.4836,1.522,1.5426,1.5561,1.5942,1.5895,1.5633,1.5459,1.5701,1.6046,1.601,1.6229,1.6447,1.6213,1.5859,1.5595,1.5767,1.489,1.3708,1.2925,1.2721,1.2758,1.2878,1.2794,1.2722,1.2776,1.2782,1.2794,1.2868,1.296,1.3226,1.3866,1.3731,1.3642,1.3932,0.0,1.3646,1.3363,1.3849,1.4199,1.4199,1.4651,1.5222,1.5925,1.6466,1.7211,1.8247,1.8883,1.9332,1.9547,1.9635,1.9648,1.956,1.9171,1.8958,1.8882,1.9045,1.8769,1.8103,1.8719,1.8707,1.8242,1.877,1.8958,1.892,1.9547,1.9585,1.9299,1.9926,2.0086,2.0033,2.0614,2.0871,2.0902,2.0014,1.9837,1.9837,1.9888,1.9635,1.9497,1.9761,1.9597,1.9384,1.9296,1.9071,1.8659,1.8025,1.7716,1.7343,1.6784,1.6734,1.6734,1.6734,1.6345,1.6132,1.6175,1.6022,1.5891,1.5768,1.5536,1.5356,1.5232,1.5153,1.5198,1.5311,1.5345,1.5317,1.5271,1.5606,1.5626,1.5389,1.575,1.5855,1.5812,1.5558,1.5554,1.5628,1.5312,1.5528,1.596,1.5624,1.5545,1.5574,1.5314,1.5622,1.6117,1.6184,1.6578,1.6896,1.6434,1.5524,1.47,1.4885,1.4169,1.3298,1.2917,1.282,1.2838,1.2903,1.2868,1.282,1.2855,1.2855,1.2873,1.2878,1.3007,1.3199,1.3501,1.3465,0.0,1.4027,1.4014,1.4113,1.4507,1.4885,1.5095,1.5063,1.5708,1.6149,1.6203,1.6942,1.7705,1.8469,1.8888,1.9309,1.9786,1.9798,1.9798,1.9798,1.956,1.9284,1.9008,1.9284,1.9007,1.8229,1.8757,1.8906,1.8753,1.8907,1.9183,1.956,1.9736,1.9762,1.9749,2.008,2.0292,2.0466,2.0782,2.0824,2.0764,1.995,1.9837,1.9811,1.9837,1.9837,1.9837,1.9837,1.9837,1.9698,1.9296,1.9108,1.8632,1.7677,1.7473,1.7149,1.655,1.65,1.65,1.65,1.6457,1.6457,1.65,1.65,1.6358,1.611,1.5846,1.5691,1.5625,1.558,1.558,1.558,1.5613,1.5736,1.5903,1.6001,1.61,1.6222,1.634,1.6392,1.6355,1.6015,1.607,1.6245,1.553,1.5618,1.6045,1.5349,1.5185,1.5261,1.491,1.5344,1.6035,1.6134,1.6658,1.7128,1.6487,1.529,1.4096,1.3916,1.3506,1.3094,1.306,1.3042,1.3042,1.3042,1.3042,1.3007,1.296,1.2925,1.2908,1.2943,1.3042,1.3144,1.3281,0.0,1.3438,1.3973,1.4085,1.44,1.5196,1.5616,1.582,1.5734,1.653,1.6881,1.6515,1.7458,1.8225,1.8592,1.8981,1.9359,1.9798,1.9798,1.9798,1.9798,1.9798,1.9597,1.9183,1.961,1.9309,1.8465,1.8994,1.9245,1.9242,1.9233,1.9523,1.999,1.9901,1.9851,1.9877,2.0181,2.0432,2.0686,2.0883,2.0852,2.0765,1.999,1.9901,1.9837,1.9952,1.999,1.999,1.999,1.999,1.9978,1.994,1.9397,1.8782,1.8204,1.7712,1.7149,1.655,1.65,1.65,1.65,1.65,1.65,1.65,1.65,1.6457,1.6371,1.6349,1.6219,1.5966,1.5846,1.5792,1.5792,1.5792,1.5925,1.6178,1.6178,1.6188,1.6222,1.634,1.6392,1.6392,1.6429,1.617,1.5806,1.6233,1.5806,1.5072,1.548,1.5022,1.4217,1.4179,1.475,1.5471,1.5471,1.6067,1.6592,1.5735,1.4868,1.4044,1.3363,1.3009,1.2785,1.2597,1.2561,1.2615,1.2861,1.2873,1.2873,1.3042,1.299,1.2943,1.306,1.3077,1.3268,1.3759,0.0,0.0,1.3858,1.4085,1.4147,1.4045,1.5019,1.5652,1.5521,1.6153,1.6766,1.7269,1.7848,1.8404,1.8945,1.9459,1.9761,1.9798,1.9798,1.9798,1.9798,1.9798,1.9786,1.9748,1.9786,1.9548,1.9142,1.9674,1.9724,1.9401,1.9775,1.9952,1.999,1.999,1.9787,1.9527,2.029,2.0443,2.0324,2.0954,2.1251,2.1331,1.9888,1.9824,1.9837,1.9862,1.9926,1.9978,1.9901,1.9661,1.9358,1.8943,1.8366,1.779,1.7225,1.6974,1.676,1.6513,1.65,1.6543,1.662,1.662,1.6599,1.65,1.6577,1.6577,1.6457,1.6457,1.6414,1.6315,1.6262,1.6241,1.6241,1.6197,1.6253,1.6371,1.634,1.6362,1.6392,1.6436,1.6457,1.6457,1.65,1.6183,1.5718,1.5932,1.5743,1.5336,1.4859,1.4929,1.5107,1.4343,1.4897,1.5867,1.5795,1.6088,1.6238,1.5159,1.4417,1.3861,1.3454,1.3506,1.3593,1.3209,1.303,1.2995,1.3207,1.3151,1.3094,1.3237,1.3168,1.3194,1.3524,1.3313,1.3263,1.3766,0.0,1.3375,1.4223,1.4404,1.4672,1.5253,1.579,1.6102,1.606,1.671,1.7191,1.7385,1.8275,1.8867,1.8995,1.9522,1.9759,1.9682,1.9759,1.9798,1.9798,1.9798,1.9798,1.9798,1.9798,1.9723,1.9586,1.9774,1.9838,1.9787,1.9851,1.9926,1.999,1.9926,1.9788,1.9687,2.0256,2.0454,2.0494,2.1013,2.1277,2.1399,1.9914,1.9888,1.9862,1.9862,2.0029,2.0093,1.9888,1.9649,1.9268,1.8602,1.8152,1.7614,1.6873,1.6785,1.6722,1.6513,1.65,1.6543,1.662,1.6675,1.6654,1.6577,1.6654,1.6654,1.6543,1.6522,1.6522,1.6543,1.6522,1.65,1.65,1.6457,1.6457,1.65,1.6457,1.6457,1.6479,1.6479,1.6479,1.6479,1.6479,1.6274,1.5932,1.5756,1.5613,1.5336,1.4425,1.4513,1.4967,1.4397,1.4979,1.5977,1.6172,1.6297,1.6192,1.5352,1.4826,1.4454,1.3951,1.4207,1.4485,1.396,1.3552,1.3373,1.3711,1.3518,1.3284,1.3323,1.3388,1.352,1.3895,1.3753,1.3618,1.3779,1.3447,1.3423,1.4183,1.4479,1.4922,1.5789,1.6142,1.634,1.634,1.7002,1.7458,1.7649,1.8565,1.917,1.9233,1.961,1.9759,1.9656,1.9759,1.9798,1.9798,1.9798,1.9798,1.9798,1.9798,1.9837,1.9862,2.009,2.0194,2.0156,2.0181,2.0155,2.0054,1.9914,1.9888,1.9952,2.0308,2.0573,2.0772,2.1082,2.1277,2.1399,2.0156,2.008,1.999,1.999,2.0284,2.0385,2.0042,2.0105,1.9952,1.9268,1.9081,1.8569,1.7524,1.7398,1.7137,1.655,1.65,1.65,1.65,1.6633,1.6697,1.6697,1.6697,1.6697,1.6697,1.6577,1.6577,1.6697,1.6577,1.65,1.65,1.65,1.65,1.65,1.65,1.6457,1.6392,1.6392,1.6392,1.6392,1.6392,1.6423,1.6412,1.5894,1.5361,1.4808,1.4286,1.3727,1.3338,1.4133,1.4839,1.5566,1.6425,1.6592,1.6474,1.6415,1.6297,1.5931,1.4805,1.4982,1.5343,1.467,1.4007,1.3668,1.4256,1.389,1.3357,1.3245,1.3577,1.3933,1.4079,1.4393,1.4425,1.3896,1.3748,1.3668,1.3617,1.4188,1.4767,1.5158,1.5792,1.62,1.62,1.6814,1.7474,1.8143,1.8694,1.9233,1.9773,1.9798,1.9798,1.9798,1.9798,1.9798,1.9798,1.9798,1.9798,1.9798,1.9798,1.9862,2.0003,2.0757,2.0875,2.0525,2.0926,2.0745,2.0182,2.0042,2.0093,2.0233,2.0498,2.0747,2.1021,2.1155,2.1302,2.1399,2.0182,2.008,1.999,1.999,2.0169,2.0182,1.9888,1.9649,1.9255,1.859,1.814,1.7589,1.6861,1.6773,1.671,1.6513,1.65,1.6543,1.662,1.6782,1.6803,1.6697,1.6697,1.6697,1.6697,1.6654,1.6654,1.6697,1.6654,1.6599,1.65,1.65,1.65,1.65,1.65,1.65,1.6479,1.6414,1.6211,1.5903,1.5811,1.5391,1.484,1.506,1.4815,1.433,1.4166,1.4309,1.4567,1.4288,1.4923,1.5865,1.6118,1.6163,1.6026,1.5769,1.5461,1.5105,1.4634,1.4844,1.5025,1.4201,1.4189,1.4276,1.4024,1.4037,1.4082,1.3994,1.4008,1.4287,1.5085,1.4917,1.4764,1.502,1.4656,1.4416,1.4695,1.4984,1.529,1.5579,1.5959,1.62,1.62,1.7161,1.7886,1.8191,1.9058,1.9635,1.9798,1.9798,1.9798,1.9798,1.9798,1.9798,1.9798,1.9798,1.9798,1.9798,1.9798,1.9837,1.9862,2.009,2.0181,2.0156,2.0168,2.0143,2.0042,1.9914,1.9888,1.9965,2.0308,2.0573,2.0772,2.1204,2.1496,2.1688,2.0372,2.0296,2.0195,2.0195,2.0271,2.022,1.9914,1.9674,1.927,1.8606,1.8053,1.7488,1.6923,1.6681,1.6543,1.65,1.65,1.6522,1.662,1.6705,1.6705,1.662,1.6675,1.6718,1.6782,1.6782,1.6782,1.6782,1.6718,1.662,1.65,1.65,1.65,1.65,1.65,1.65,1.65,1.6436,1.6248,1.6019,1.5907,1.5391,1.4752,1.4865,1.4563,1.4078,1.3828,1.4038,1.439,1.4268,1.5075,1.6163,1.619,1.6123,1.6037,1.616,1.5793,1.5283,1.5006,1.5122,1.5052,1.4085,1.4309,1.4735,1.4529,1.4276,1.4063,1.3957,1.4042,1.4286,1.4947,1.5049,1.507,1.5222,1.5019,1.4947,1.5245,1.5294,1.548,1.5908,1.61,1.6222,1.6275,1.7122,1.7923,1.8469,1.9321,1.9798,1.9798,1.9798,1.9798,1.9798,1.9798,1.9798,1.9798,1.9798,1.9911,2.015,2.015,2.015,2.0189,2.0682,2.061,2.0105,2.0407,2.0382,2.0054,1.9888,1.985,1.9991,2.0334,2.0673,2.097,2.1385,2.1722,2.1973,2.0624,2.0587,2.0486,2.0486,2.0486,2.0385,2.0042,1.999,1.975,1.9032,1.8518,1.7978,1.7398,1.697,1.6654,1.6522,1.6522,1.6522,1.65,1.6522,1.6522,1.6522,1.6654,1.6782,1.6897,1.6897,1.6897,1.6897,1.6782,1.6654,1.6522,1.65,1.65,1.65,1.65,1.65,1.65,1.6436,1.6411,1.6425,1.6339,1.6011,1.5512,1.5009,1.4488,1.3946,1.3403,1.3215,1.3338,1.4197,1.5283,1.6323,1.6422,1.6375,1.6412,1.7098,1.6801,1.6146,1.5766,1.5638,1.5367,1.4313,1.4474,1.4986,1.5281,1.4488,1.3642,1.3518,1.3821,1.4141,1.4242,1.4912,1.531,1.4915,1.509,1.5306,1.5471,1.5388,1.5538,1.6139,1.6222,1.6275,1.6392,1.6891,1.7699,1.892,1.9434,1.9736,1.9736,1.9747,1.9798,1.9798,1.9798,1.9798,1.9798,1.9849,2.015,2.0691,2.0691,2.0717,2.0792,2.1941,2.1659,2.0335,2.1174,2.1048,2.0182,1.9914,1.9991,2.0233,2.0485,2.0945,2.1447,2.1722,2.1996,2.2254,2.0687,2.0587,2.0486,2.0486,2.0486,2.0385,2.0042,1.999,1.9661,1.866,1.835,1.785,1.6945,1.6751,1.6675,1.6654,1.6654,1.662,1.65,1.6599,1.6654,1.6654,1.6846,1.6939,1.6981,1.6981,1.6981,1.6981,1.6897,1.6791,1.6654,1.6556,1.65,1.65,1.65,1.65,1.65,1.6436,1.6186,1.5848,1.5736,1.5192,1.4425,1.433,1.3903,1.3378,1.3248,1.3267,1.3526,1.4653,1.5184,1.5485,1.6068,1.6521,1.6798,1.6663,1.6527,1.6402,1.6258,1.6006,1.5663,1.526,1.5034,1.4773,1.4284,1.4245,1.4275,1.4128,1.4105,1.4349,1.5198,1.5178,1.5271,1.599,1.5811,1.572,1.6126,1.6197,1.6213,1.621,1.6297,1.6383,1.6392,1.697,1.7804,1.892,1.9108,1.9171,1.9171,1.9457,1.9682,1.9798,1.9708,1.9682,1.9798,2.0277,2.0566,2.0691,2.0691,2.0918,2.1333,2.1306,2.115,2.0886,2.0642,2.0399,2.0182,2.0029,2.0105,2.0372,2.0535,2.0981,2.1592,2.1864,2.2184,2.2555,2.0712,2.0637,2.0612,2.0612,2.0537,2.041,2.0144,1.9889,1.9546,1.9118,1.8421,1.7837,1.7543,1.71,1.6846,1.6846,1.6803,1.6782,1.6693,1.6748,1.6803,1.6803,1.6918,1.7044,1.7094,1.7094,1.7065,1.7002,1.696,1.6867,1.6697,1.6633,1.6543,1.65,1.65,1.65,1.65,1.6457,1.6316,1.6082,1.6011,1.5532,1.484,1.4576,1.4135,1.3584,1.3303,1.325,1.3445,1.4401,1.4694,1.4866,1.5899,1.6196,1.6241,1.6783,1.6672,1.6389,1.6481,1.6066,1.5533,1.517,1.4655,1.4223,1.4197,1.4128,1.4037,1.3946,1.3801,1.391,1.4706,1.487,1.5153,1.589,1.6023,1.6132,1.642,1.6457,1.6436,1.6362,1.6414,1.6591,1.6942,1.7529,1.821,1.9031,1.9284,1.9371,1.9371,1.9519,1.9656,1.9798,1.9656,1.9656,1.9798,2.0402,2.083,2.1081,2.1358,2.1496,2.1493,2.1564,2.1192,2.059,2.0681,2.0604,2.0397,2.0447,2.0598,2.0797,2.0995,2.141,2.1926,2.2184,2.2486,2.2797,2.0762,2.0712,2.0712,2.0737,2.0612,2.0486,2.0296,1.986,1.962,1.975,1.8643,1.7958,1.8282,1.7534,1.7002,1.7002,1.6939,1.6897,1.6897,1.6897,1.6918,1.6918,1.6981,1.7107,1.7233,1.722,1.717,1.7065,1.7023,1.6897,1.674,1.6718,1.6654,1.6522,1.6522,1.65,1.65,1.65,1.65,1.65,1.65,1.6183,1.5643,1.5211,1.4702,1.416,1.3672,1.3509,1.3614,1.4277,1.4491,1.4731,1.5912,1.588,1.5634,1.6811,1.6652,1.6127,1.6349,1.5831,1.5146,1.4675,1.4042,1.3659,1.4267,1.4029,1.3629,1.3472,1.344,1.3588,1.3964,1.45,1.5051,1.5579,1.5976,1.6314,1.6488,1.6457,1.6436,1.65,1.6597,1.6951,1.7676,1.8124,1.8608,1.9166,1.9497,1.9635,1.9635,1.9606,1.9656,1.9759,1.9656,1.9706,1.9949,2.0553,2.1119,2.1631,2.2184,2.2209,2.1782,2.2074,2.1529,2.0411,2.0991,2.1029,2.0709,2.0944,2.1129,2.1302,2.152,2.1864,2.2301,2.2555,2.2752,2.2925,2.0888,2.0775,2.0737,2.0863,2.0775,2.0624,2.0486,2.0396,2.0177,1.969,1.8973,1.8334,1.7996,1.739,1.7002,1.7002,1.6981,1.696,1.6897,1.6939,1.6981,1.6981,1.7115,1.7233,1.7363,1.7253,1.7253,1.7342,1.7107,1.6981,1.696,1.6782,1.6697,1.6675,1.6543,1.65,1.65,1.65,1.65,1.65,1.65,1.6183,1.568,1.5618,1.5261,1.479,1.4771,1.4765,1.4854,1.5462,1.572,1.5799,1.6118,1.6211,1.6186,1.5865,1.5689,1.5585,1.5579,1.5107,1.458,1.4467,1.395,1.3522,1.3634,1.3793,1.381,1.335,1.3907,1.4523,1.4573,1.466,1.5077,1.6203,1.5956,1.5836,1.6416,1.65,1.65,1.65,1.7058,1.7679,1.8238,1.8365,1.8608,1.9166,1.9132,1.9046,1.8933,1.9356,1.9617,1.963,1.9617,1.9919,2.0566,2.1131,2.1656,2.2209,2.2732,2.2957,2.2857,2.2138,2.1856,2.1952,2.1184,2.0962,2.1131,2.1155,2.1326,2.1544,2.1592,2.1996,2.2555,2.2775,2.2865,2.2947,2.0913,2.0886,2.0886,2.0888,2.0863,2.0787,2.0686,2.0424,2.0205,2.0145,1.9154,1.847,1.8567,1.7799,1.7282,1.7282,1.7282,1.7253,1.7183,1.7253,1.7261,1.7225,1.7323,1.7427,1.7556,1.744,1.7606,1.807,1.7432,1.7086,1.7002,1.6897,1.6846,1.6803,1.6748,1.6684,1.662,1.662,1.6577,1.65,1.65,1.635,1.612,1.5806,1.5542,1.5311,1.5036,1.4942,1.503,1.5671,1.5502,1.5114,1.5852,1.5731,1.5346,1.5417,1.5443,1.5443,1.5406,1.4848,1.4279,1.4243,1.3687,1.3243,1.3543,1.3933,1.4106,1.3738,1.4156,1.4671,1.4926,1.5068,1.5401,1.6203,1.6467,1.6657,1.6974,1.6999,1.7021,1.7109,1.767,1.8297,1.8905,1.8956,1.9138,1.9611,1.9598,1.9497,1.9371,1.9506,1.963,1.9708,1.9967,2.0413,2.1091,2.1658,2.2287,2.2956,2.3321,2.3187,2.2648,2.2168,2.1867,2.1706,2.1392,2.1313,2.1447,2.1688,2.1817,2.1949,2.1949,2.2208,2.2615,2.282,2.2888,2.2925]}]]